Wetterdaten: Sonntag, 28.05.2017
Datum Zeit Temp. A. Pool Temp. Feuchte A. Luftdruck Regen Wind Richtung Richtung Sonnenschein ET UV Solar Taupunkt Windchill Windben Empfang
28.05.2017 00:00 17,5 C 23,3 C 65 % 1019,8 hPa 0,0 l/m 12,3 km/h (3 Bft) O-NO 66 0 min 0,000 mm 0,0 UV-I 0 W/m 10,8 C 15,0 C 17,7 km/h (3 Bft) 100,00 %
28.05.2017 00:02 17,4 C 23,3 C 65 % 1019,8 hPa 0,0 l/m 17,8 km/h (3 Bft) O-SO 105 0 min 0,000 mm 0,0 UV-I 0 W/m 10,8 C 13,4 C 25,7 km/h (4 Bft) 100,00 %
28.05.2017 00:04 17,4 C 23,3 C 65 % 1019,8 hPa 0,0 l/m 15,0 km/h (3 Bft) O-NO 68 0 min 0,000 mm 0,0 UV-I 0 W/m 10,8 C 14,1 C 19,3 km/h (3 Bft) 95,12 %
28.05.2017 00:06 17,4 C 23,3 C 65 % 1019,8 hPa 0,0 l/m 18,5 km/h (3 Bft) NO 56 0 min 0,000 mm 0,0 UV-I 0 W/m 10,8 C 13,2 C 27,4 km/h (4 Bft) 98,00 %
28.05.2017 00:08 17,4 C 23,3 C 65 % 1019,8 hPa 0,0 l/m 17,4 km/h (3 Bft) O-NO 65 0 min 0,000 mm 0,0 UV-I 0 W/m 10,8 C 13,5 C 25,7 km/h (4 Bft) 100,00 %
28.05.2017 00:10 17,4 C 23,3 C 65 % 1019,8 hPa 0,0 l/m 17,9 km/h (3 Bft) NO 55 0 min 0,000 mm 0,0 UV-I 0 W/m 10,8 C 13,3 C 25,7 km/h (4 Bft) 97,56 %
28.05.2017 00:12 17,4 C 23,3 C 65 % 1019,8 hPa 0,0 l/m 15,0 km/h (3 Bft) O-NO 71 0 min 0,000 mm 0,0 UV-I 0 W/m 10,8 C 14,1 C 20,9 km/h (4 Bft) 96,43 %
28.05.2017 00:14 17,4 C 23,3 C 65 % 1019,9 hPa 0,0 l/m 16,8 km/h (3 Bft) NO 44 0 min 0,000 mm 0,0 UV-I 0 W/m 10,8 C 13,6 C 22,5 km/h (4 Bft) 98,00 %
28.05.2017 00:16 17,4 C 23,3 C 65 % 1019,9 hPa 0,0 l/m 15,8 km/h (3 Bft) NO 48 0 min 0,000 mm 0,0 UV-I 0 W/m 10,8 C 13,9 C 22,5 km/h (4 Bft) 97,87 %
28.05.2017 00:18 17,4 C 23,3 C 65 % 1020,0 hPa 0,0 l/m 15,1 km/h (3 Bft) NO 50 0 min 0,000 mm 0,0 UV-I 0 W/m 10,8 C 14,1 C 24,1 km/h (4 Bft) 100,00 %
28.05.2017 00:20 17,4 C 23,3 C 65 % 1020,0 hPa 0,0 l/m 17,7 km/h (3 Bft) O-NO 74 0 min 0,000 mm 0,0 UV-I 0 W/m 10,8 C 13,4 C 24,1 km/h (4 Bft) 98,21 %
28.05.2017 00:22 17,3 C 23,3 C 65 % 1020,0 hPa 0,0 l/m 13,3 km/h (3 Bft) O-NO 59 0 min 0,000 mm 0,0 UV-I 0 W/m 10,7 C 14,5 C 20,9 km/h (4 Bft) 100,00 %
28.05.2017 00:24 17,3 C 23,3 C 65 % 1020,0 hPa 0,0 l/m 14,5 km/h (3 Bft) NO 46 0 min 0,000 mm 0,0 UV-I 0 W/m 10,7 C 14,1 C 22,5 km/h (4 Bft) 100,00 %
28.05.2017 00:26 17,2 C 23,3 C 66 % 1020,0 hPa 0,0 l/m 17,0 km/h (3 Bft) O-NO 63 0 min 0,000 mm 0,0 UV-I 0 W/m 10,8 C 13,3 C 24,1 km/h (4 Bft) 100,00 %
28.05.2017 00:28 17,2 C 23,3 C 66 % 1020,0 hPa 0,0 l/m 15,3 km/h (3 Bft) O 89 0 min 0,000 mm 0,0 UV-I 0 W/m 10,8 C 13,8 C 19,3 km/h (3 Bft) 98,00 %
28.05.2017 00:30 17,1 C 23,3 C 66 % 1020,0 hPa 0,0 l/m 16,4 km/h (3 Bft) O 84 0 min 0,000 mm 0,0 UV-I 0 W/m 10,7 C 13,3 C 20,9 km/h (4 Bft) 100,00 %
28.05.2017 00:32 17,1 C 23,3 C 66 % 1020,0 hPa 0,0 l/m 16,6 km/h (3 Bft) O-NO 61 0 min 0,000 mm 0,0 UV-I 0 W/m 10,7 C 13,3 C 25,7 km/h (4 Bft) 98,08 %
28.05.2017 00:34 17,0 C 22,8 C 66 % 1020,1 hPa 0,0 l/m 14,7 km/h (3 Bft) NO 55 0 min 0,000 mm 0,0 UV-I 0 W/m 10,6 C 13,7 C 20,9 km/h (4 Bft) 98,00 %
28.05.2017 00:36 16,9 C 22,8 C 66 % 1020,1 hPa 0,0 l/m 17,1 km/h (3 Bft) O 80 0 min 0,000 mm 0,0 UV-I 0 W/m 10,5 C 12,9 C 27,4 km/h (4 Bft) 97,78 %
28.05.2017 00:38 16,9 C 22,8 C 66 % 1020,1 hPa 0,0 l/m 14,5 km/h (3 Bft) O 101 0 min 0,000 mm 0,0 UV-I 0 W/m 10,5 C 13,6 C 20,9 km/h (4 Bft) 100,00 %
28.05.2017 00:40 16,9 C 22,8 C 66 % 1020,1 hPa 0,0 l/m 14,1 km/h (3 Bft) O-NO 69 0 min 0,000 mm 0,0 UV-I 0 W/m 10,5 C 13,8 C 20,9 km/h (4 Bft) 100,00 %
28.05.2017 00:42 16,8 C 22,8 C 66 % 1020,0 hPa 0,0 l/m 15,0 km/h (3 Bft) O-NO 67 0 min 0,000 mm 0,0 UV-I 0 W/m 10,4 C 13,4 C 20,9 km/h (4 Bft) 98,11 %
28.05.2017 00:44 16,8 C 22,8 C 66 % 1020,0 hPa 0,0 l/m 16,0 km/h (3 Bft) O-NO 69 0 min 0,000 mm 0,0 UV-I 0 W/m 10,4 C 13,1 C 22,5 km/h (4 Bft) 100,00 %
28.05.2017 00:46 16,8 C 22,8 C 66 % 1020,0 hPa 0,0 l/m 13,1 km/h (3 Bft) O-NO 65 0 min 0,000 mm 0,0 UV-I 0 W/m 10,4 C 14,0 C 25,7 km/h (4 Bft) 100,00 %
28.05.2017 00:48 16,8 C 22,8 C 66 % 1020,0 hPa 0,0 l/m 13,4 km/h (3 Bft) O-NO 65 0 min 0,000 mm 0,0 UV-I 0 W/m 10,4 C 13,9 C 24,1 km/h (4 Bft) 98,00 %
28.05.2017 00:50 16,7 C 22,8 C 66 % 1020,0 hPa 0,0 l/m 14,2 km/h (3 Bft) NO 56 0 min 0,000 mm 0,0 UV-I 0 W/m 10,3 C 13,5 C 20,9 km/h (4 Bft) 100,00 %
28.05.2017 00:52 16,7 C 22,8 C 66 % 1020,1 hPa 0,0 l/m 12,5 km/h (3 Bft) O-NO 68 0 min 0,000 mm 0,0 UV-I 0 W/m 10,3 C 14,1 C 19,3 km/h (3 Bft) 94,64 %
28.05.2017 00:54 16,6 C 22,8 C 66 % 1020,0 hPa 0,0 l/m 17,3 km/h (3 Bft) O-NO 59 0 min 0,000 mm 0,0 UV-I 0 W/m 10,2 C 12,5 C 24,1 km/h (4 Bft) 92,68 %
28.05.2017 00:56 16,6 C 22,8 C 67 % 1020,1 hPa 0,0 l/m 11,8 km/h (2 Bft) O-NO 75 0 min 0,000 mm 0,0 UV-I 0 W/m 10,4 C 14,2 C 17,7 km/h (3 Bft) 95,74 %
28.05.2017 00:58 16,5 C 22,8 C 67 % 1020,1 hPa 0,0 l/m 17,2 km/h (3 Bft) NO 44 0 min 0,000 mm 0,0 UV-I 0 W/m 10,4 C 12,4 C 20,9 km/h (4 Bft) 95,74 %
28.05.2017 01:00 16,4 C 22,8 C 67 % 1020,1 hPa 0,0 l/m 12,2 km/h (2 Bft) O-NO 61 0 min 0,076 mm 0,0 UV-I 0 W/m 10,3 C 13,8 C 17,7 km/h (3 Bft) 97,56 %
28.05.2017 01:02 16,4 C 22,8 C 67 % 1020,0 hPa 0,0 l/m 15,5 km/h (3 Bft) NO 37 0 min 0,000 mm 0,0 UV-I 0 W/m 10,3 C 12,7 C 20,9 km/h (4 Bft) 98,00 %
28.05.2017 01:04 16,4 C 22,8 C 66 % 1020,0 hPa 0,0 l/m 12,8 km/h (3 Bft) NO 37 0 min 0,000 mm 0,0 UV-I 0 W/m 10,0 C 13,6 C 16,1 km/h (3 Bft) 97,87 %
28.05.2017 01:06 16,4 C 22,8 C 67 % 1020,0 hPa 0,0 l/m 14,5 km/h (3 Bft) O-NO 57 0 min 0,000 mm 0,0 UV-I 0 W/m 10,3 C 13,0 C 24,1 km/h (4 Bft) 98,21 %
28.05.2017 01:08 16,4 C 22,8 C 66 % 1020,0 hPa 0,0 l/m 13,9 km/h (3 Bft) O-NO 61 0 min 0,000 mm 0,0 UV-I 0 W/m 10,0 C 13,2 C 20,9 km/h (4 Bft) 96,30 %
28.05.2017 01:10 16,4 C 22,8 C 66 % 1020,0 hPa 0,0 l/m 15,3 km/h (3 Bft) N-NO 31 0 min 0,000 mm 0,0 UV-I 0 W/m 10,0 C 12,8 C 24,1 km/h (4 Bft) 96,23 %
28.05.2017 01:12 16,3 C 22,8 C 66 % 1020,0 hPa 0,0 l/m 11,3 km/h (2 Bft) O-NO 63 0 min 0,000 mm 0,0 UV-I 0 W/m 9,9 C 14,0 C 17,7 km/h (3 Bft) 98,11 %
28.05.2017 01:14 16,3 C 22,8 C 66 % 1020,1 hPa 0,0 l/m 15,5 km/h (3 Bft) O-NO 69 0 min 0,000 mm 0,0 UV-I 0 W/m 9,9 C 12,6 C 24,1 km/h (4 Bft) 94,23 %
28.05.2017 01:16 16,3 C 22,8 C 66 % 1020,0 hPa 0,0 l/m 12,5 km/h (3 Bft) O-NO 58 0 min 0,000 mm 0,0 UV-I 0 W/m 9,9 C 13,6 C 20,9 km/h (4 Bft) 95,24 %
28.05.2017 01:18 16,3 C 22,8 C 66 % 1020,0 hPa 0,0 l/m 12,5 km/h (3 Bft) NO 46 0 min 0,000 mm 0,0 UV-I 0 W/m 9,9 C 13,6 C 20,9 km/h (4 Bft) 97,37 %
28.05.2017 01:20 16,3 C 22,8 C 66 % 1020,0 hPa 0,0 l/m 13,0 km/h (3 Bft) O-NO 66 0 min 0,000 mm 0,0 UV-I 0 W/m 9,9 C 13,4 C 19,3 km/h (3 Bft) 96,61 %
28.05.2017 01:22 16,2 C 22,8 C 66 % 1020,0 hPa 0,0 l/m 14,4 km/h (3 Bft) O 83 0 min 0,000 mm 0,0 UV-I 0 W/m 9,8 C 12,8 C 20,9 km/h (4 Bft) 97,73 %
28.05.2017 01:24 16,2 C 22,8 C 67 % 1020,0 hPa 0,0 l/m 12,4 km/h (3 Bft) O-NO 63 0 min 0,000 mm 0,0 UV-I 0 W/m 10,1 C 13,5 C 17,7 km/h (3 Bft) 95,45 %
28.05.2017 01:26 16,1 C 22,8 C 67 % 1020,0 hPa 0,0 l/m 12,6 km/h (3 Bft) O 87 0 min 0,000 mm 0,0 UV-I 0 W/m 10,0 C 13,3 C 17,7 km/h (3 Bft) 97,87 %
28.05.2017 01:28 16,1 C 22,8 C 67 % 1020,0 hPa 0,0 l/m 11,5 km/h (2 Bft) O 84 0 min 0,000 mm 0,0 UV-I 0 W/m 10,0 C 13,7 C 19,3 km/h (3 Bft) 96,00 %
28.05.2017 01:30 16,0 C 22,8 C 67 % 1020,1 hPa 0,0 l/m 10,8 km/h (2 Bft) O-SO 111 0 min 0,000 mm 0,0 UV-I 0 W/m 9,9 C 13,9 C 16,1 km/h (3 Bft) 98,00 %
28.05.2017 01:32 15,9 C 22,8 C 67 % 1020,1 hPa 0,0 l/m 9,5 km/h (2 Bft) O-NO 76 0 min 0,000 mm 0,0 UV-I 0 W/m 9,8 C 14,3 C 16,1 km/h (3 Bft) 94,74 %
28.05.2017 01:34 15,9 C 22,8 C 68 % 1020,2 hPa 0,0 l/m 9,2 km/h (2 Bft) O-NO 68 0 min 0,000 mm 0,0 UV-I 0 W/m 10,0 C 14,5 C 14,5 km/h (3 Bft) 98,11 %
28.05.2017 01:36 15,8 C 22,8 C 68 % 1020,2 hPa 0,0 l/m 10,0 km/h (2 Bft) NO 50 0 min 0,000 mm 0,0 UV-I 0 W/m 9,9 C 14,0 C 14,5 km/h (3 Bft) 100,00 %
28.05.2017 01:38 15,8 C 22,8 C 68 % 1020,2 hPa 0,0 l/m 9,3 km/h (2 Bft) NO 55 0 min 0,000 mm 0,0 UV-I 0 W/m 9,9 C 14,3 C 14,5 km/h (3 Bft) 98,00 %
28.05.2017 01:40 15,8 C 22,8 C 68 % 1020,2 hPa 0,0 l/m 7,2 km/h (2 Bft) O-NO 63 0 min 0,000 mm 0,0 UV-I 0 W/m 9,9 C 15,4 C 12,9 km/h (3 Bft) 96,43 %
28.05.2017 01:42 15,7 C 22,8 C 69 % 1020,2 hPa 0,0 l/m 9,2 km/h (2 Bft) O-NO 61 0 min 0,000 mm 0,0 UV-I 0 W/m 10,0 C 14,3 C 12,9 km/h (3 Bft) 97,37 %
28.05.2017 01:44 15,6 C 22,8 C 69 % 1020,2 hPa 0,0 l/m 6,8 km/h (2 Bft) O-NO 59 0 min 0,000 mm 0,0 UV-I 0 W/m 9,9 C 15,4 C 9,7 km/h (2 Bft) 98,11 %
28.05.2017 01:46 15,5 C 22,8 C 69 % 1020,2 hPa 0,0 l/m 8,1 km/h (2 Bft) NO 53 0 min 0,000 mm 0,0 UV-I 0 W/m 9,8 C 14,6 C 14,5 km/h (3 Bft) 94,74 %
28.05.2017 01:48 15,4 C 22,8 C 69 % 1020,3 hPa 0,0 l/m 7,0 km/h (2 Bft) O-NO 63 0 min 0,000 mm 0,0 UV-I 0 W/m 9,7 C 15,1 C 9,7 km/h (2 Bft) 98,11 %
28.05.2017 01:50 15,4 C 22,8 C 70 % 1020,3 hPa 0,0 l/m 6,2 km/h (2 Bft) O-NO 63 0 min 0,000 mm 0,0 UV-I 0 W/m 10,0 C 15,4 C 9,7 km/h (2 Bft) 94,00 %
28.05.2017 01:52 15,3 C 22,8 C 70 % 1020,2 hPa 0,0 l/m 6,2 km/h (2 Bft) O-NO 78 0 min 0,000 mm 0,0 UV-I 0 W/m 9,9 C 15,3 C 9,7 km/h (2 Bft) 97,73 %
28.05.2017 01:54 15,2 C 22,8 C 70 % 1020,3 hPa 0,0 l/m 5,7 km/h (1 Bft) NO 42 0 min 0,000 mm 0,0 UV-I 0 W/m 9,8 C 15,2 C 9,7 km/h (2 Bft) 93,18 %
28.05.2017 01:56 15,1 C 22,8 C 71 % 1020,2 hPa 0,0 l/m 6,5 km/h (2 Bft) NO 53 0 min 0,000 mm 0,0 UV-I 0 W/m 9,9 C 15,1 C 9,7 km/h (2 Bft) 96,23 %
28.05.2017 01:58 15,1 C 22,8 C 71 % 1020,2 hPa 0,0 l/m 7,8 km/h (2 Bft) O-NO 60 0 min 0,000 mm 0,0 UV-I 0 W/m 9,9 C 14,3 C 14,5 km/h (3 Bft) 97,87 %
28.05.2017 02:00 15,0 C 22,8 C 71 % 1020,2 hPa 0,0 l/m 7,6 km/h (2 Bft) O-NO 68 0 min 0,051 mm 0,0 UV-I 0 W/m 9,8 C 14,3 C 11,3 km/h (2 Bft) 95,24 %
28.05.2017 02:02 14,9 C 22,8 C 71 % 1020,3 hPa 0,0 l/m 7,3 km/h (2 Bft) O-NO 73 0 min 0,000 mm 0,0 UV-I 0 W/m 9,7 C 14,4 C 16,1 km/h (3 Bft) 96,00 %
28.05.2017 02:04 14,9 C 22,8 C 71 % 1020,3 hPa 0,0 l/m 7,0 km/h (2 Bft) O-NO 64 0 min 0,000 mm 0,0 UV-I 0 W/m 9,7 C 14,6 C 9,7 km/h (2 Bft) 95,45 %
28.05.2017 02:06 14,9 C 22,8 C 71 % 1020,2 hPa 0,0 l/m 7,8 km/h (2 Bft) O-NO 57 0 min 0,000 mm 0,0 UV-I 0 W/m 9,7 C 14,1 C 9,7 km/h (2 Bft) 95,12 %
28.05.2017 02:08 14,9 C 22,8 C 71 % 1020,2 hPa 0,0 l/m 7,3 km/h (2 Bft) NO 55 0 min 0,000 mm 0,0 UV-I 0 W/m 9,7 C 14,4 C 11,3 km/h (2 Bft) 92,45 %
28.05.2017 02:10 14,9 C 22,8 C 71 % 1020,3 hPa 0,0 l/m 7,5 km/h (2 Bft) O-NO 67 0 min 0,000 mm 0,0 UV-I 0 W/m 9,7 C 14,3 C 12,9 km/h (3 Bft) 90,57 %
28.05.2017 02:12 14,9 C 22,8 C 71 % 1020,3 hPa 0,0 l/m 7,5 km/h (2 Bft) O-NO 61 0 min 0,000 mm 0,0 UV-I 0 W/m 9,7 C 14,3 C 11,3 km/h (2 Bft) 97,73 %
28.05.2017 02:14 14,9 C 22,8 C 71 % 1020,3 hPa 0,0 l/m 6,8 km/h (2 Bft) O-NO 67 0 min 0,000 mm 0,0 UV-I 0 W/m 9,7 C 14,7 C 11,3 km/h (2 Bft) 97,14 %
28.05.2017 02:16 14,9 C 22,8 C 71 % 1020,3 hPa 0,0 l/m 6,7 km/h (2 Bft) O-NO 61 0 min 0,000 mm 0,0 UV-I 0 W/m 9,7 C 14,7 C 12,9 km/h (3 Bft) 96,61 %
28.05.2017 02:18 14,8 C 22,8 C 72 % 1020,3 hPa 0,0 l/m 7,4 km/h (2 Bft) NO 56 0 min 0,000 mm 0,0 UV-I 0 W/m 9,8 C 14,2 C 11,3 km/h (2 Bft) 95,12 %
28.05.2017 02:20 14,8 C 22,8 C 72 % 1020,3 hPa 0,0 l/m 8,3 km/h (2 Bft) O 84 0 min 0,000 mm 0,0 UV-I 0 W/m 9,8 C 13,7 C 12,9 km/h (3 Bft) 98,11 %
28.05.2017 02:22 14,7 C 22,8 C 72 % 1020,3 hPa 0,0 l/m 8,8 km/h (2 Bft) O-NO 64 0 min 0,000 mm 0,0 UV-I 0 W/m 9,7 C 13,4 C 12,9 km/h (3 Bft) 95,45 %
28.05.2017 02:24 14,7 C 22,8 C 72 % 1020,3 hPa 0,0 l/m 8,0 km/h (2 Bft) NO 54 0 min 0,000 mm 0,0 UV-I 0 W/m 9,7 C 13,8 C 12,9 km/h (3 Bft) 98,00 %
28.05.2017 02:26 14,7 C 22,8 C 72 % 1020,3 hPa 0,0 l/m 8,5 km/h (2 Bft) O-NO 74 0 min 0,000 mm 0,0 UV-I 0 W/m 9,7 C 13,5 C 14,5 km/h (3 Bft) 95,45 %
28.05.2017 02:28 14,7 C 22,8 C 72 % 1020,2 hPa 0,0 l/m 8,5 km/h (2 Bft) O-NO 59 0 min 0,000 mm 0,0 UV-I 0 W/m 9,7 C 13,5 C 12,9 km/h (3 Bft) 97,73 %
28.05.2017 02:30 14,7 C 22,8 C 72 % 1020,1 hPa 0,0 l/m 7,2 km/h (2 Bft) O-NO 69 0 min 0,000 mm 0,0 UV-I 0 W/m 9,7 C 14,2 C 11,3 km/h (2 Bft) 96,23 %
28.05.2017 02:32 14,6 C 22,8 C 72 % 1020,2 hPa 0,0 l/m 8,3 km/h (2 Bft) O-NO 57 0 min 0,000 mm 0,0 UV-I 0 W/m 9,6 C 13,5 C 12,9 km/h (3 Bft) 95,12 %
28.05.2017 02:34 14,6 C 22,8 C 72 % 1020,1 hPa 0,0 l/m 9,2 km/h (2 Bft) O-NO 74 0 min 0,000 mm 0,0 UV-I 0 W/m 9,6 C 13,1 C 14,5 km/h (3 Bft) 98,11 %
28.05.2017 02:36 14,6 C 22,8 C 72 % 1020,1 hPa 0,0 l/m 10,3 km/h (2 Bft) NO 44 0 min 0,000 mm 0,0 UV-I 0 W/m 9,6 C 12,5 C 14,5 km/h (3 Bft) 94,87 %
28.05.2017 02:38 14,5 C 22,8 C 73 % 1020,0 hPa 0,0 l/m 11,1 km/h (2 Bft) O-NO 69 0 min 0,000 mm 0,0 UV-I 0 W/m 9,7 C 12,1 C 19,3 km/h (3 Bft) 97,73 %
28.05.2017 02:40 14,4 C 22,8 C 73 % 1020,0 hPa 0,0 l/m 9,1 km/h (2 Bft) NO 53 0 min 0,000 mm 0,0 UV-I 0 W/m 9,6 C 12,9 C 12,9 km/h (3 Bft) 96,00 %
28.05.2017 02:42 14,4 C 22,8 C 73 % 1020,0 hPa 0,0 l/m 8,9 km/h (2 Bft) NO 50 0 min 0,000 mm 0,0 UV-I 0 W/m 9,6 C 13,0 C 12,9 km/h (3 Bft) 98,00 %
28.05.2017 02:44 14,3 C 22,8 C 73 % 1020,0 hPa 0,0 l/m 10,6 km/h (2 Bft) O-NO 63 0 min 0,000 mm 0,0 UV-I 0 W/m 9,5 C 12,1 C 16,1 km/h (3 Bft) 95,74 %
28.05.2017 02:46 14,3 C 22,8 C 73 % 1020,0 hPa 0,0 l/m 10,1 km/h (2 Bft) NO 49 0 min 0,000 mm 0,0 UV-I 0 W/m 9,5 C 12,3 C 17,7 km/h (3 Bft) 97,37 %
28.05.2017 02:48 14,3 C 22,8 C 73 % 1020,0 hPa 0,0 l/m 10,1 km/h (2 Bft) NO 53 0 min 0,000 mm 0,0 UV-I 0 W/m 9,5 C 12,3 C 14,5 km/h (3 Bft) 100,00 %
28.05.2017 02:50 14,3 C 22,8 C 73 % 1020,0 hPa 0,0 l/m 11,9 km/h (2 Bft) NO 53 0 min 0,000 mm 0,0 UV-I 0 W/m 9,5 C 11,5 C 17,7 km/h (3 Bft) 94,00 %
28.05.2017 02:52 14,3 C 22,8 C 73 % 1020,0 hPa 0,0 l/m 10,9 km/h (2 Bft) O-NO 63 0 min 0,000 mm 0,0 UV-I 0 W/m 9,5 C 11,9 C 16,1 km/h (3 Bft) 97,56 %
28.05.2017 02:54 14,3 C 22,8 C 73 % 1020,0 hPa 0,0 l/m 11,5 km/h (2 Bft) O 80 0 min 0,000 mm 0,0 UV-I 0 W/m 9,5 C 11,7 C 16,1 km/h (3 Bft) 95,74 %
28.05.2017 02:56 14,3 C 22,8 C 73 % 1020,0 hPa 0,0 l/m 9,4 km/h (2 Bft) O-NO 66 0 min 0,000 mm 0,0 UV-I 0 W/m 9,5 C 12,6 C 14,5 km/h (3 Bft) 94,00 %
28.05.2017 02:58 14,3 C 22,8 C 73 % 1020,0 hPa 0,0 l/m 11,5 km/h (2 Bft) O 87 0 min 0,000 mm 0,0 UV-I 0 W/m 9,5 C 11,7 C 17,7 km/h (3 Bft) 97,87 %
28.05.2017 03:00 14,3 C 22,8 C 73 % 1020,1 hPa 0,0 l/m 11,1 km/h (2 Bft) NO 52 0 min 0,025 mm 0,0 UV-I 0 W/m 9,5 C 11,8 C 16,1 km/h (3 Bft) 97,56 %
28.05.2017 03:02 14,4 C 22,8 C 72 % 1020,1 hPa 0,0 l/m 11,4 km/h (2 Bft) O-NO 73 0 min 0,000 mm 0,0 UV-I 0 W/m 9,4 C 11,8 C 16,1 km/h (3 Bft) 96,00 %
28.05.2017 03:04 14,4 C 22,8 C 72 % 1020,1 hPa 0,0 l/m 10,1 km/h (2 Bft) NO 53 0 min 0,000 mm 0,0 UV-I 0 W/m 9,4 C 12,4 C 16,1 km/h (3 Bft) 97,56 %
28.05.2017 03:06 14,5 C 22,8 C 72 % 1020,1 hPa 0,0 l/m 12,0 km/h (2 Bft) O-NO 65 0 min 0,000 mm 0,0 UV-I 0 W/m 9,5 C 11,7 C 17,7 km/h (3 Bft) 98,21 %
28.05.2017 03:08 14,6 C 22,8 C 72 % 1020,1 hPa 0,0 l/m 9,3 km/h (2 Bft) O-NO 63 0 min 0,000 mm 0,0 UV-I 0 W/m 9,6 C 13,0 C 14,5 km/h (3 Bft) 95,83 %
28.05.2017 03:10 14,5 C 22,2 C 72 % 1020,0 hPa 0,0 l/m 11,1 km/h (2 Bft) O-NO 62 0 min 0,000 mm 0,0 UV-I 0 W/m 9,5 C 12,1 C 17,7 km/h (3 Bft) 98,44 %
28.05.2017 03:12 14,5 C 22,8 C 72 % 1020,1 hPa 0,0 l/m 11,8 km/h (2 Bft) O 84 0 min 0,000 mm 0,0 UV-I 0 W/m 9,5 C 11,8 C 17,7 km/h (3 Bft) 94,34 %
28.05.2017 03:14 14,4 C 22,2 C 72 % 1020,0 hPa 0,0 l/m 11,4 km/h (2 Bft) NO 49 0 min 0,000 mm 0,0 UV-I 0 W/m 9,4 C 11,8 C 17,7 km/h (3 Bft) 100,00 %
28.05.2017 03:16 14,4 C 22,8 C 72 % 1020,0 hPa 0,0 l/m 14,7 km/h (3 Bft) O-NO 65 0 min 0,000 mm 0,0 UV-I 0 W/m 9,4 C 10,6 C 20,9 km/h (4 Bft) 92,45 %
28.05.2017 03:18 14,4 C 22,8 C 72 % 1020,1 hPa 0,0 l/m 12,6 km/h (3 Bft) O-NO 65 0 min 0,000 mm 0,0 UV-I 0 W/m 9,4 C 11,3 C 17,7 km/h (3 Bft) 94,92 %
28.05.2017 03:20 14,4 C 22,2 C 72 % 1020,2 hPa 0,0 l/m 10,9 km/h (2 Bft) O-NO 58 0 min 0,000 mm 0,0 UV-I 0 W/m 9,4 C 12,0 C 17,7 km/h (3 Bft) 95,12 %
28.05.2017 03:22 14,4 C 22,2 C 72 % 1020,1 hPa 0,0 l/m 9,5 km/h (2 Bft) O-NO 61 0 min 0,000 mm 0,0 UV-I 0 W/m 9,4 C 12,7 C 16,1 km/h (3 Bft) 95,74 %
28.05.2017 03:24 14,4 C 22,2 C 72 % 1020,2 hPa 0,0 l/m 10,1 km/h (2 Bft) O-NO 65 0 min 0,000 mm 0,0 UV-I 0 W/m 9,4 C 12,4 C 14,5 km/h (3 Bft) 96,23 %
28.05.2017 03:26 14,4 C 22,2 C 72 % 1020,2 hPa 0,0 l/m 13,3 km/h (3 Bft) O 82 0 min 0,000 mm 0,0 UV-I 0 W/m 9,4 C 11,1 C 19,3 km/h (3 Bft) 97,37 %
28.05.2017 03:28 14,4 C 22,2 C 72 % 1020,2 hPa 0,0 l/m 14,0 km/h (3 Bft) O-NO 71 0 min 0,000 mm 0,0 UV-I 0 W/m 9,4 C 10,8 C 20,9 km/h (4 Bft) 98,11 %
28.05.2017 03:30 14,4 C 22,2 C 72 % 1020,2 hPa 0,0 l/m 11,7 km/h (2 Bft) O-NO 64 0 min 0,000 mm 0,0 UV-I 0 W/m 9,4 C 11,7 C 16,1 km/h (3 Bft) 95,12 %
28.05.2017 03:32 14,4 C 22,2 C 72 % 1020,1 hPa 0,0 l/m 11,2 km/h (2 Bft) O-NO 60 0 min 0,000 mm 0,0 UV-I 0 W/m 9,4 C 11,9 C 17,7 km/h (3 Bft) 98,11 %
28.05.2017 03:34 14,4 C 22,2 C 72 % 1020,2 hPa 0,0 l/m 13,0 km/h (3 Bft) O-NO 69 0 min 0,000 mm 0,0 UV-I 0 W/m 9,4 C 11,2 C 17,7 km/h (3 Bft) 100,00 %
28.05.2017 03:36 14,4 C 22,2 C 72 % 1020,1 hPa 0,0 l/m 12,2 km/h (2 Bft) O-NO 77 0 min 0,000 mm 0,0 UV-I 0 W/m 9,4 C 11,5 C 20,9 km/h (4 Bft) 98,11 %
28.05.2017 03:38 14,4 C 22,2 C 72 % 1020,1 hPa 0,0 l/m 10,3 km/h (2 Bft) O-NO 75 0 min 0,000 mm 0,0 UV-I 0 W/m 9,4 C 12,3 C 16,1 km/h (3 Bft) 100,00 %
28.05.2017 03:40 14,3 C 22,2 C 72 % 1020,1 hPa 0,0 l/m 13,0 km/h (3 Bft) O-NO 78 0 min 0,000 mm 0,0 UV-I 0 W/m 9,3 C 11,1 C 24,1 km/h (4 Bft) 97,37 %
28.05.2017 03:42 14,3 C 22,2 C 72 % 1020,0 hPa 0,0 l/m 14,4 km/h (3 Bft) O-NO 59 0 min 0,000 mm 0,0 UV-I 0 W/m 9,3 C 10,6 C 20,9 km/h (4 Bft) 98,00 %
28.05.2017 03:44 14,3 C 22,2 C 73 % 1020,0 hPa 0,0 l/m 13,4 km/h (3 Bft) O-NO 59 0 min 0,000 mm 0,0 UV-I 0 W/m 9,5 C 10,9 C 19,3 km/h (3 Bft) 98,00 %
28.05.2017 03:46 14,3 C 22,2 C 73 % 1020,0 hPa 0,0 l/m 14,5 km/h (3 Bft) O 81 0 min 0,000 mm 0,0 UV-I 0 W/m 9,5 C 10,5 C 20,9 km/h (4 Bft) 97,73 %
28.05.2017 03:48 14,2 C 22,2 C 73 % 1019,9 hPa 0,0 l/m 15,1 km/h (3 Bft) O-NO 59 0 min 0,000 mm 0,0 UV-I 0 W/m 9,4 C 10,2 C 22,5 km/h (4 Bft) 100,00 %
28.05.2017 03:50 14,2 C 22,2 C 73 % 1020,0 hPa 0,0 l/m 12,7 km/h (3 Bft) O-NO 69 0 min 0,000 mm 0,0 UV-I 0 W/m 9,4 C 11,1 C 17,7 km/h (3 Bft) 95,24 %
28.05.2017 03:52 14,2 C 22,2 C 73 % 1019,9 hPa 0,0 l/m 11,0 km/h (2 Bft) NO 55 0 min 0,000 mm 0,0 UV-I 0 W/m 9,4 C 11,8 C 16,1 km/h (3 Bft) 100,00 %
28.05.2017 03:54 14,2 C 22,2 C 73 % 1019,9 hPa 0,0 l/m 11,6 km/h (2 Bft) O-NO 65 0 min 0,000 mm 0,0 UV-I 0 W/m 9,4 C 11,5 C 19,3 km/h (3 Bft) 94,29 %
28.05.2017 03:56 14,1 C 22,2 C 73 % 1019,9 hPa 0,0 l/m 10,7 km/h (2 Bft) NO 42 0 min 0,000 mm 0,0 UV-I 0 W/m 9,3 C 11,8 C 14,5 km/h (3 Bft) 98,39 %
28.05.2017 03:58 14,1 C 22,2 C 74 % 1019,9 hPa 0,0 l/m 11,0 km/h (2 Bft) O-NO 62 0 min 0,000 mm 0,0 UV-I 0 W/m 9,5 C 11,7 C 17,7 km/h (3 Bft) 96,00 %
28.05.2017 04:00 14,0 C 22,2 C 74 % 1019,8 hPa 0,0 l/m 8,8 km/h (2 Bft) NO 49 0 min 0,051 mm 0,0 UV-I 0 W/m 9,4 C 12,6 C 14,5 km/h (3 Bft) 100,00 %
28.05.2017 04:02 13,9 C 22,2 C 74 % 1019,8 hPa 0,0 l/m 12,4 km/h (3 Bft) NO 51 0 min 0,000 mm 0,0 UV-I 0 W/m 9,3 C 10,8 C 14,5 km/h (3 Bft) 86,36 %
28.05.2017 04:04 13,8 C 22,2 C 74 % 1019,9 hPa 0,0 l/m 8,7 km/h (2 Bft) O-NO 73 0 min 0,000 mm 0,0 UV-I 0 W/m 9,2 C 12,5 C 12,9 km/h (3 Bft) 100,00 %
28.05.2017 04:06 13,8 C 22,2 C 75 % 1019,9 hPa 0,0 l/m 8,7 km/h (2 Bft) O-NO 59 0 min 0,000 mm 0,0 UV-I 0 W/m 9,4 C 12,5 C 14,5 km/h (3 Bft) 98,00 %
28.05.2017 04:08 13,8 C 22,2 C 75 % 1019,9 hPa 0,0 l/m 6,9 km/h (2 Bft) O-NO 78 0 min 0,000 mm 0,0 UV-I 0 W/m 9,4 C 13,5 C 11,3 km/h (2 Bft) 98,11 %
28.05.2017 04:10 13,8 C 22,2 C 75 % 1019,8 hPa 0,0 l/m 9,0 km/h (2 Bft) NO 46 0 min 0,000 mm 0,0 UV-I 0 W/m 9,4 C 12,3 C 19,3 km/h (3 Bft) 100,00 %
28.05.2017 04:12 13,8 C 22,2 C 75 % 1019,9 hPa 0,0 l/m 8,6 km/h (2 Bft) NO 49 0 min 0,000 mm 0,0 UV-I 0 W/m 9,4 C 12,5 C 16,1 km/h (3 Bft) 97,87 %
28.05.2017 04:14 13,8 C 22,2 C 75 % 1019,9 hPa 0,0 l/m 6,1 km/h (2 Bft) O-NO 78 0 min 0,000 mm 0,0 UV-I 0 W/m 9,4 C 13,8 C 8,0 km/h (2 Bft) 100,00 %
28.05.2017 04:16 13,7 C 22,2 C 75 % 1019,9 hPa 0,0 l/m 6,4 km/h (2 Bft) NO 49 0 min 0,000 mm 0,0 UV-I 0 W/m 9,3 C 13,7 C 9,7 km/h (2 Bft) 95,12 %
28.05.2017 04:18 13,7 C 22,2 C 75 % 1019,9 hPa 0,0 l/m 6,9 km/h (2 Bft) O-NO 69 0 min 0,000 mm 0,0 UV-I 0 W/m 9,3 C 13,4 C 11,3 km/h (2 Bft) 94,34 %
28.05.2017 04:20 13,7 C 22,2 C 75 % 1019,8 hPa 0,0 l/m 9,2 km/h (2 Bft) O-NO 78 0 min 0,000 mm 0,0 UV-I 0 W/m 9,3 C 12,1 C 14,5 km/h (3 Bft) 97,37 %
28.05.2017 04:22 13,6 C 22,2 C 75 % 1019,8 hPa 0,0 l/m 8,8 km/h (2 Bft) O-NO 63 0 min 0,000 mm 0,0 UV-I 0 W/m 9,3 C 12,2 C 12,9 km/h (3 Bft) 100,00 %
28.05.2017 04:24 13,6 C 22,2 C 75 % 1019,8 hPa 0,0 l/m 7,6 km/h (2 Bft) O-NO 58 0 min 0,000 mm 0,0 UV-I 0 W/m 9,3 C 12,9 C 12,9 km/h (3 Bft) 97,87 %
28.05.2017 04:26 13,6 C 22,2 C 75 % 1019,8 hPa 0,0 l/m 5,4 km/h (1 Bft) NO 45 0 min 0,000 mm 0,0 UV-I 0 W/m 9,3 C 13,6 C 8,0 km/h (2 Bft) 98,00 %
28.05.2017 04:28 13,5 C 22,2 C 76 % 1019,8 hPa 0,0 l/m 5,4 km/h (1 Bft) NO 54 0 min 0,000 mm 0,0 UV-I 0 W/m 9,4 C 13,5 C 14,5 km/h (3 Bft) 96,00 %
28.05.2017 04:30 13,4 C 22,2 C 76 % 1019,9 hPa 0,0 l/m 4,2 km/h (1 Bft) NO 53 0 min 0,000 mm 0,0 UV-I 0 W/m 9,3 C 13,4 C 6,4 km/h (2 Bft) 97,44 %
28.05.2017 04:32 13,3 C 22,2 C 76 % 1019,9 hPa 0,0 l/m 5,7 km/h (1 Bft) O-NO 57 0 min 0,000 mm 0,0 UV-I 0 W/m 9,2 C 13,3 C 9,7 km/h (2 Bft) 100,00 %
28.05.2017 04:34 13,3 C 22,2 C 77 % 1019,9 hPa 0,0 l/m 5,7 km/h (1 Bft) O-NO 78 0 min 0,000 mm 0,0 UV-I 0 W/m 9,4 C 13,3 C 8,0 km/h (2 Bft) 97,62 %
28.05.2017 04:36 13,3 C 22,2 C 77 % 1019,8 hPa 0,0 l/m 6,2 km/h (2 Bft) NO 37 0 min 0,000 mm 0,0 UV-I 0 W/m 9,4 C 13,3 C 9,7 km/h (2 Bft) 100,00 %
28.05.2017 04:38 13,2 C 22,2 C 77 % 1019,8 hPa 0,0 l/m 5,2 km/h (1 Bft) O-NO 74 0 min 0,000 mm 0,0 UV-I 0 W/m 9,3 C 13,2 C 8,0 km/h (2 Bft) 97,87 %
28.05.2017 04:40 13,2 C 22,2 C 77 % 1019,9 hPa 0,0 l/m 7,7 km/h (2 Bft) O-NO 78 0 min 0,000 mm 0,0 UV-I 0 W/m 9,3 C 12,4 C 12,9 km/h (3 Bft) 98,00 %
28.05.2017 04:42 13,2 C 22,2 C 77 % 1019,9 hPa 0,0 l/m 6,8 km/h (2 Bft) NO 52 0 min 0,000 mm 0,0 UV-I 0 W/m 9,3 C 13,0 C 12,9 km/h (3 Bft) 97,37 %
28.05.2017 04:44 13,2 C 22,2 C 77 % 1019,9 hPa 0,0 l/m 8,8 km/h (2 Bft) O 80 0 min 0,000 mm 0,0 UV-I 0 W/m 9,3 C 11,8 C 14,5 km/h (3 Bft) 98,11 %
28.05.2017 04:46 13,2 C 22,2 C 77 % 1019,9 hPa 0,0 l/m 6,4 km/h (2 Bft) O-NO 62 0 min 0,000 mm 0,0 UV-I 0 W/m 9,3 C 13,2 C 11,3 km/h (2 Bft) 100,00 %
28.05.2017 04:48 13,2 C 22,2 C 77 % 1019,9 hPa 0,0 l/m 8,0 km/h (2 Bft) O-NO 75 0 min 0,000 mm 0,0 UV-I 0 W/m 9,3 C 12,2 C 14,5 km/h (3 Bft) 95,12 %
28.05.2017 04:50 13,2 C 22,2 C 77 % 1019,9 hPa 0,0 l/m 6,7 km/h (2 Bft) NO 47 0 min 0,000 mm 0,0 UV-I 0 W/m 9,3 C 13,0 C 12,9 km/h (3 Bft) 100,00 %
28.05.2017 04:52 13,2 C 22,2 C 77 % 1019,9 hPa 0,0 l/m 4,0 km/h (1 Bft) O-NO 61 0 min 0,000 mm 0,0 UV-I 0 W/m 9,3 C 13,2 C 6,4 km/h (2 Bft) 96,00 %
28.05.2017 04:54 13,1 C 22,2 C 77 % 1019,9 hPa 0,0 l/m 6,6 km/h (2 Bft) O-NO 66 0 min 0,000 mm 0,0 UV-I 4 W/m 9,2 C 13,0 C 12,9 km/h (3 Bft) 96,00 %
28.05.2017 04:56 13,1 C 22,2 C 78 % 1019,9 hPa 0,0 l/m 5,0 km/h (1 Bft) O-NO 76 0 min 0,000 mm 0,0 UV-I 5 W/m 9,4 C 13,1 C 8,0 km/h (2 Bft) 97,73 %
28.05.2017 04:58 13,0 C 22,2 C 78 % 1019,9 hPa 0,0 l/m 3,5 km/h (1 Bft) O-NO 74 0 min 0,000 mm 0,0 UV-I 5 W/m 9,3 C 13,0 C 4,8 km/h (1 Bft) 92,68 %
28.05.2017 05:00 12,9 C 22,2 C 78 % 1019,9 hPa 0,0 l/m 4,4 km/h (1 Bft) O-NO 74 0 min 0,026 mm 0,0 UV-I 5 W/m 9,2 C 12,9 C 6,4 km/h (2 Bft) 94,00 %
28.05.2017 05:02 12,8 C 22,2 C 79 % 1020,0 hPa 0,0 l/m 4,3 km/h (1 Bft) O-NO 69 0 min 0,000 mm 0,0 UV-I 5 W/m 9,2 C 12,8 C 6,4 km/h (2 Bft) 98,00 %
28.05.2017 05:04 12,8 C 22,2 C 79 % 1020,0 hPa 0,0 l/m 4,7 km/h (1 Bft) O-NO 78 0 min 0,000 mm 0,0 UV-I 7 W/m 9,2 C 12,8 C 9,7 km/h (2 Bft) 97,87 %
28.05.2017 05:06 12,8 C 22,2 C 79 % 1020,0 hPa 0,0 l/m 5,6 km/h (1 Bft) O-NO 72 0 min 0,000 mm 0,0 UV-I 7 W/m 9,2 C 12,8 C 6,4 km/h (2 Bft) 94,00 %
28.05.2017 05:08 12,8 C 22,2 C 79 % 1020,0 hPa 0,0 l/m 4,7 km/h (1 Bft) O-NO 65 0 min 0,000 mm 0,0 UV-I 7 W/m 9,2 C 12,8 C 11,3 km/h (2 Bft) 95,74 %
28.05.2017 05:10 12,7 C 22,2 C 79 % 1020,0 hPa 0,0 l/m 4,5 km/h (1 Bft) O-NO 74 0 min 0,000 mm 0,0 UV-I 8 W/m 9,2 C 12,7 C 6,4 km/h (2 Bft) 95,24 %
28.05.2017 05:12 12,7 C 22,2 C 79 % 1020,0 hPa 0,0 l/m 4,9 km/h (1 Bft) O-NO 76 0 min 0,000 mm 0,0 UV-I 9 W/m 9,2 C 12,7 C 8,0 km/h (2 Bft) 96,15 %
28.05.2017 05:14 12,7 C 22,2 C 79 % 1020,0 hPa 0,0 l/m 5,6 km/h (1 Bft) O-NO 73 0 min 0,000 mm 0,0 UV-I 10 W/m 9,2 C 12,7 C 8,0 km/h (2 Bft) 97,44 %
28.05.2017 05:16 12,7 C 22,2 C 79 % 1020,0 hPa 0,0 l/m 4,6 km/h (1 Bft) O 86 0 min 0,000 mm 0,0 UV-I 11 W/m 9,2 C 12,7 C 6,4 km/h (2 Bft) 93,62 %
28.05.2017 05:18 12,7 C 22,2 C 79 % 1020,0 hPa 0,0 l/m 5,6 km/h (1 Bft) O-NO 74 0 min 0,000 mm 0,0 UV-I 11 W/m 9,2 C 12,7 C 8,0 km/h (2 Bft) 98,11 %
28.05.2017 05:20 12,8 C 22,2 C 79 % 1020,0 hPa 0,0 l/m 5,6 km/h (1 Bft) O-NO 69 0 min 0,000 mm 0,0 UV-I 12 W/m 9,2 C 12,8 C 8,0 km/h (2 Bft) 91,49 %
28.05.2017 05:22 12,8 C 22,2 C 79 % 1019,9 hPa 0,0 l/m 6,2 km/h (2 Bft) NO 55 0 min 0,000 mm 0,0 UV-I 13 W/m 9,2 C 12,8 C 8,0 km/h (2 Bft) 95,12 %
28.05.2017 05:24 12,8 C 22,2 C 79 % 1019,9 hPa 0,0 l/m 7,3 km/h (2 Bft) O-NO 63 2 min 0,000 mm 0,0 UV-I 14 W/m 9,2 C 12,2 C 11,3 km/h (2 Bft) 94,29 %
28.05.2017 05:26 12,9 C 22,2 C 79 % 1019,9 hPa 0,0 l/m 7,8 km/h (2 Bft) NO 44 2 min 0,000 mm 0,0 UV-I 15 W/m 9,3 C 12,0 C 14,5 km/h (3 Bft) 92,31 %
28.05.2017 05:28 12,9 C 22,2 C 79 % 1020,0 hPa 0,0 l/m 6,6 km/h (2 Bft) NO 55 2 min 0,000 mm 0,0 UV-I 19 W/m 9,3 C 12,8 C 8,0 km/h (2 Bft) 100,00 %
28.05.2017 05:30 12,8 C 22,2 C 79 % 1019,9 hPa 0,0 l/m 6,3 km/h (2 Bft) NO 40 2 min 0,000 mm 0,0 UV-I 24 W/m 9,2 C 12,8 C 8,0 km/h (2 Bft) 94,34 %
28.05.2017 05:32 12,8 C 22,2 C 79 % 1020,0 hPa 0,0 l/m 6,3 km/h (2 Bft) NO 52 2 min 0,000 mm 0,0 UV-I 29 W/m 9,2 C 12,8 C 8,0 km/h (2 Bft) 98,00 %
28.05.2017 05:34 12,7 C 22,2 C 79 % 1020,0 hPa 0,0 l/m 6,0 km/h (2 Bft) NO 36 2 min 0,000 mm 0,0 UV-I 33 W/m 9,2 C 12,7 C 8,0 km/h (2 Bft) 93,62 %
28.05.2017 05:36 12,7 C 22,2 C 79 % 1020,0 hPa 0,0 l/m 5,8 km/h (2 Bft) NO 41 2 min 0,000 mm 0,0 UV-I 36 W/m 9,2 C 12,7 C 9,7 km/h (2 Bft) 95,74 %
28.05.2017 05:38 12,6 C 22,2 C 80 % 1020,0 hPa 0,0 l/m 4,8 km/h (1 Bft) NO 53 2 min 0,000 mm 0,0 UV-I 40 W/m 9,2 C 12,6 C 6,4 km/h (2 Bft) 94,74 %
28.05.2017 05:40 12,6 C 22,2 C 80 % 1020,0 hPa 0,0 l/m 5,0 km/h (1 Bft) NO 47 2 min 0,000 mm 0,0 UV-I 41 W/m 9,2 C 12,6 C 6,4 km/h (2 Bft) 95,45 %
28.05.2017 05:42 12,6 C 22,2 C 80 % 1020,0 hPa 0,0 l/m 5,9 km/h (2 Bft) O-NO 69 2 min 0,000 mm 0,0 UV-I 43 W/m 9,2 C 12,6 C 8,0 km/h (2 Bft) 92,16 %
28.05.2017 05:44 12,7 C 22,2 C 80 % 1020,0 hPa 0,0 l/m 5,3 km/h (1 Bft) O-NO 63 2 min 0,000 mm 0,0 UV-I 48 W/m 9,3 C 12,7 C 8,0 km/h (2 Bft) 97,44 %
28.05.2017 05:46 12,7 C 22,2 C 79 % 1020,0 hPa 0,0 l/m 6,5 km/h (2 Bft) O-NO 71 2 min 0,000 mm 0,0 UV-I 51 W/m 9,2 C 12,7 C 12,9 km/h (3 Bft) 96,36 %
28.05.2017 05:48 12,8 C 22,2 C 79 % 1020,0 hPa 0,0 l/m 6,7 km/h (2 Bft) NO 49 2 min 0,000 mm 0,0 UV-I 53 W/m 9,2 C 12,6 C 11,3 km/h (2 Bft) 98,00 %
28.05.2017 05:50 12,8 C 22,2 C 79 % 1020,0 hPa 0,0 l/m 5,9 km/h (2 Bft) NO 40 2 min 0,000 mm 0,0 UV-I 50 W/m 9,2 C 12,8 C 8,0 km/h (2 Bft) 94,00 %
28.05.2017 05:52 12,8 C 22,2 C 79 % 1020,0 hPa 0,0 l/m 5,0 km/h (1 Bft) NO 44 2 min 0,000 mm 0,0 UV-I 55 W/m 9,2 C 12,8 C 8,0 km/h (2 Bft) 100,00 %
28.05.2017 05:54 12,8 C 22,2 C 79 % 1020,1 hPa 0,0 l/m 4,2 km/h (1 Bft) O-NO 69 2 min 0,000 mm 0,0 UV-I 64 W/m 9,2 C 12,8 C 6,4 km/h (2 Bft) 94,00 %
28.05.2017 05:56 12,8 C 22,2 C 79 % 1020,1 hPa 0,0 l/m 3,9 km/h (1 Bft) O-NO 77 2 min 0,000 mm 0,0 UV-I 67 W/m 9,2 C 12,8 C 6,4 km/h (2 Bft) 94,00 %
28.05.2017 05:58 12,8 C 22,2 C 79 % 1020,1 hPa 0,0 l/m 3,2 km/h (1 Bft) O-NO 57 2 min 0,000 mm 0,0 UV-I 70 W/m 9,2 C 12,8 C 6,4 km/h (2 Bft) 98,00 %
28.05.2017 06:00 12,9 C 22,2 C 79 % 1020,1 hPa 0,0 l/m 4,7 km/h (1 Bft) O-NO 65 2 min 0,025 mm 0,0 UV-I 75 W/m 9,3 C 12,9 C 8,0 km/h (2 Bft) 97,56 %
28.05.2017 06:02 12,9 C 22,2 C 79 % 1020,1 hPa 0,0 l/m 6,0 km/h (2 Bft) NO 55 2 min 0,000 mm 0,0 UV-I 77 W/m 9,3 C 12,9 C 8,0 km/h (2 Bft) 96,00 %
28.05.2017 06:04 13,0 C 22,2 C 79 % 1020,1 hPa 0,0 l/m 6,5 km/h (2 Bft) O-NO 61 2 min 0,000 mm 0,0 UV-I 80 W/m 9,4 C 13,0 C 9,7 km/h (2 Bft) 96,00 %
28.05.2017 06:06 13,1 C 22,2 C 78 % 1020,1 hPa 0,0 l/m 8,0 km/h (2 Bft) NO 49 2 min 0,000 mm 0,0 UV-I 85 W/m 9,4 C 12,1 C 11,3 km/h (2 Bft) 97,56 %
28.05.2017 06:08 13,1 C 22,2 C 78 % 1020,1 hPa 0,0 l/m 7,9 km/h (2 Bft) O-NO 78 2 min 0,000 mm 0,0 UV-I 90 W/m 9,4 C 12,2 C 12,9 km/h (3 Bft) 95,74 %
28.05.2017 06:10 13,2 C 22,2 C 78 % 1020,1 hPa 0,0 l/m 7,1 km/h (2 Bft) O 83 2 min 0,000 mm 0,0 UV-I 93 W/m 9,4 C 12,8 C 12,9 km/h (3 Bft) 97,87 %
28.05.2017 06:12 13,3 C 22,2 C 78 % 1020,1 hPa 0,0 l/m 8,3 km/h (2 Bft) O-NO 71 2 min 0,000 mm 0,0 UV-I 93 W/m 9,5 C 12,1 C 14,5 km/h (3 Bft) 96,23 %
28.05.2017 06:14 13,3 C 22,2 C 78 % 1020,1 hPa 0,0 l/m 5,9 km/h (2 Bft) O-NO 64 0 min 0,000 mm 0,0 UV-I 75 W/m 9,5 C 13,3 C 11,3 km/h (2 Bft) 97,87 %
28.05.2017 06:16 13,3 C 22,2 C 78 % 1020,1 hPa 0,0 l/m 5,0 km/h (1 Bft) O-NO 64 0 min 0,000 mm 0,0 UV-I 47 W/m 9,5 C 13,3 C 9,7 km/h (2 Bft) 97,37 %
28.05.2017 06:18 13,3 C 22,2 C 78 % 1020,1 hPa 0,0 l/m 6,0 km/h (2 Bft) O-NO 69 0 min 0,000 mm 0,0 UV-I 33 W/m 9,5 C 13,3 C 9,7 km/h (2 Bft) 100,00 %
28.05.2017 06:20 13,3 C 22,2 C 78 % 1020,1 hPa 0,0 l/m 5,9 km/h (2 Bft) O-NO 64 0 min 0,000 mm 0,0 UV-I 33 W/m 9,5 C 13,3 C 8,0 km/h (2 Bft) 96,23 %
28.05.2017 06:22 13,4 C 22,2 C 78 % 1020,1 hPa 0,0 l/m 7,3 km/h (2 Bft) NO 54 0 min 0,000 mm 0,0 UV-I 53 W/m 9,6 C 12,8 C 11,3 km/h (2 Bft) 100,00 %
28.05.2017 06:24 13,4 C 22,2 C 78 % 1020,2 hPa 0,0 l/m 9,6 km/h (2 Bft) O-NO 63 0 min 0,000 mm 0,0 UV-I 93 W/m 9,6 C 11,6 C 14,5 km/h (3 Bft) 98,11 %
28.05.2017 06:26 13,5 C 22,2 C 78 % 1020,1 hPa 0,0 l/m 10,5 km/h (2 Bft) O-NO 64 0 min 0,000 mm 0,0 UV-I 86 W/m 9,7 C 11,2 C 17,7 km/h (3 Bft) 96,00 %
28.05.2017 06:28 13,6 C 22,2 C 77 % 1020,1 hPa 0,0 l/m 8,3 km/h (2 Bft) NO 51 2 min 0,000 mm 0,0 UV-I 131 W/m 9,6 C 12,5 C 14,5 km/h (3 Bft) 100,00 %
28.05.2017 06:30 13,6 C 22,2 C 77 % 1020,1 hPa 0,0 l/m 10,6 km/h (2 Bft) O-NO 77 2 min 0,000 mm 0,0 UV-I 138 W/m 9,6 C 11,3 C 19,3 km/h (3 Bft) 98,08 %
28.05.2017 06:32 13,7 C 22,2 C 76 % 1020,1 hPa 0,0 l/m 7,7 km/h (2 Bft) O-NO 69 2 min 0,000 mm 0,0 UV-I 143 W/m 9,5 C 12,9 C 14,5 km/h (3 Bft) 100,00 %
28.05.2017 06:34 13,8 C 22,2 C 76 % 1020,1 hPa 0,0 l/m 8,6 km/h (2 Bft) NO 52 2 min 0,000 mm 0,0 UV-I 148 W/m 9,6 C 12,5 C 12,9 km/h (3 Bft) 97,14 %
28.05.2017 06:36 13,8 C 22,2 C 76 % 1020,1 hPa 0,0 l/m 8,5 km/h (2 Bft) O-NO 64 2 min 0,000 mm 0,0 UV-I 153 W/m 9,6 C 12,6 C 12,9 km/h (3 Bft) 100,00 %
28.05.2017 06:38 13,9 C 22,2 C 76 % 1020,0 hPa 0,0 l/m 7,4 km/h (2 Bft) O-NO 61 2 min 0,000 mm 0,0 UV-I 159 W/m 9,7 C 13,3 C 12,9 km/h (3 Bft) 96,23 %
28.05.2017 06:40 13,9 C 22,2 C 76 % 1020,1 hPa 0,0 l/m 9,9 km/h (2 Bft) NO 54 2 min 0,000 mm 0,0 UV-I 164 W/m 9,7 C 12,0 C 12,9 km/h (3 Bft) 97,56 %
28.05.2017 06:42 14,0 C 22,2 C 76 % 1020,0 hPa 0,0 l/m 7,5 km/h (2 Bft) O 82 2 min 0,000 mm 0,0 UV-I 170 W/m 9,8 C 13,3 C 11,3 km/h (2 Bft) 96,23 %
28.05.2017 06:44 14,1 C 22,2 C 76 % 1020,1 hPa 0,0 l/m 6,5 km/h (2 Bft) O-NO 60 2 min 0,000 mm 0,0 UV-I 174 W/m 9,9 C 14,1 C 9,7 km/h (2 Bft) 100,00 %
28.05.2017 06:46 14,2 C 22,2 C 76 % 1020,1 hPa 0,0 l/m 9,4 km/h (2 Bft) O 80 2 min 0,000 mm 0,0 UV-I 179 W/m 10,0 C 12,5 C 16,1 km/h (3 Bft) 98,15 %
28.05.2017 06:48 14,3 C 22,2 C 75 % 1020,1 hPa 0,0 l/m 8,6 km/h (2 Bft) NO 47 2 min 0,000 mm 0,0 UV-I 185 W/m 9,9 C 13,0 C 14,5 km/h (3 Bft) 98,00 %
28.05.2017 06:50 14,3 C 22,2 C 75 % 1020,2 hPa 0,0 l/m 8,6 km/h (2 Bft) NO 46 2 min 0,000 mm 0,0 UV-I 190 W/m 9,9 C 13,0 C 16,1 km/h (3 Bft) 97,56 %
28.05.2017 06:52 14,4 C 22,2 C 74 % 1020,2 hPa 0,0 l/m 7,9 km/h (2 Bft) O-NO 65 2 min 0,000 mm 0,0 UV-I 196 W/m 9,8 C 13,5 C 11,3 km/h (2 Bft) 98,11 %
28.05.2017 06:54 14,6 C 22,2 C 74 % 1020,1 hPa 0,0 l/m 7,6 km/h (2 Bft) NO 55 2 min 0,000 mm 0,0 UV-I 202 W/m 10,0 C 13,9 C 12,9 km/h (3 Bft) 100,00 %
28.05.2017 06:56 14,6 C 22,2 C 73 % 1020,1 hPa 0,0 l/m 8,6 km/h (2 Bft) O-NO 76 2 min 0,000 mm 0,0 UV-I 207 W/m 9,8 C 13,4 C 14,5 km/h (3 Bft) 96,92 %
28.05.2017 06:58 14,7 C 22,2 C 73 % 1020,1 hPa 0,0 l/m 9,7 km/h (2 Bft) O-NO 67 2 min 0,000 mm 0,0 UV-I 213 W/m 9,9 C 12,9 C 17,7 km/h (3 Bft) 100,00 %
28.05.2017 07:00 14,8 C 22,2 C 73 % 1020,1 hPa 0,0 l/m 9,3 km/h (2 Bft) O-NO 59 2 min 0,102 mm 0,0 UV-I 218 W/m 10,0 C 13,2 C 16,1 km/h (3 Bft) 94,34 %
28.05.2017 07:02 14,8 C 22,2 C 72 % 1020,1 hPa 0,0 l/m 11,3 km/h (2 Bft) NO 55 2 min 0,000 mm 0,0 UV-I 224 W/m 9,8 C 12,3 C 17,7 km/h (3 Bft) 97,37 %
28.05.2017 07:04 14,9 C 22,2 C 72 % 1020,2 hPa 0,0 l/m 14,6 km/h (3 Bft) O-NO 66 2 min 0,000 mm 0,0 UV-I 229 W/m 9,9 C 11,2 C 19,3 km/h (3 Bft) 98,00 %
28.05.2017 07:06 15,0 C 22,2 C 72 % 1020,1 hPa 0,0 l/m 11,3 km/h (2 Bft) O-NO 59 2 min 0,000 mm 0,0 UV-I 236 W/m 10,0 C 12,6 C 19,3 km/h (3 Bft) 98,11 %
28.05.2017 07:08 15,1 C 22,2 C 72 % 1020,1 hPa 0,0 l/m 9,4 km/h (2 Bft) O-NO 57 2 min 0,000 mm 0,0 UV-I 241 W/m 10,1 C 13,5 C 16,1 km/h (3 Bft) 97,44 %
28.05.2017 07:10 15,2 C 22,2 C 72 % 1020,1 hPa 0,0 l/m 12,5 km/h (3 Bft) NO 44 2 min 0,000 mm 0,0 UV-I 248 W/m 10,2 C 12,3 C 17,7 km/h (3 Bft) 98,11 %
28.05.2017 07:12 15,2 C 22,2 C 72 % 1020,1 hPa 0,0 l/m 11,8 km/h (2 Bft) O-NO 78 2 min 0,000 mm 0,5 UV-I 253 W/m 10,2 C 12,6 C 16,1 km/h (3 Bft) 97,56 %
28.05.2017 07:14 15,3 C 22,2 C 72 % 1020,1 hPa 0,0 l/m 9,4 km/h (2 Bft) O-NO 62 2 min 0,000 mm 0,5 UV-I 259 W/m 10,3 C 13,7 C 16,1 km/h (3 Bft) 94,00 %
28.05.2017 07:16 15,3 C 22,2 C 72 % 1020,1 hPa 0,0 l/m 9,6 km/h (2 Bft) O-NO 67 2 min 0,000 mm 0,5 UV-I 265 W/m 10,3 C 13,6 C 12,9 km/h (3 Bft) 94,00 %
28.05.2017 07:18 15,4 C 22,2 C 71 % 1020,1 hPa 0,0 l/m 15,0 km/h (3 Bft) NO 50 2 min 0,000 mm 0,5 UV-I 270 W/m 10,2 C 11,7 C 22,5 km/h (4 Bft) 100,00 %
28.05.2017 07:20 15,4 C 22,2 C 71 % 1020,1 hPa 0,0 l/m 13,6 km/h (3 Bft) O 88 2 min 0,000 mm 0,5 UV-I 276 W/m 10,2 C 12,1 C 20,9 km/h (4 Bft) 94,92 %
28.05.2017 07:22 15,5 C 22,2 C 71 % 1020,1 hPa 0,0 l/m 13,2 km/h (3 Bft) O-NO 69 2 min 0,000 mm 0,5 UV-I 281 W/m 10,3 C 12,4 C 17,7 km/h (3 Bft) 97,37 %
28.05.2017 07:24 15,6 C 21,7 C 71 % 1020,1 hPa 0,0 l/m 11,4 km/h (2 Bft) O 81 2 min 0,000 mm 0,6 UV-I 289 W/m 10,4 C 13,2 C 17,7 km/h (3 Bft) 96,43 %
28.05.2017 07:26 15,7 C 21,7 C 70 % 1020,1 hPa 0,0 l/m 13,0 km/h (3 Bft) O 82 2 min 0,000 mm 0,6 UV-I 294 W/m 10,2 C 12,7 C 19,3 km/h (3 Bft) 95,12 %
28.05.2017 07:28 15,7 C 21,7 C 70 % 1020,1 hPa 0,0 l/m 12,2 km/h (2 Bft) NO 44 2 min 0,000 mm 0,6 UV-I 301 W/m 10,2 C 13,0 C 17,7 km/h (3 Bft) 97,37 %
28.05.2017 07:30 15,8 C 22,2 C 70 % 1020,2 hPa 0,0 l/m 15,2 km/h (3 Bft) O-NO 60 2 min 0,000 mm 0,6 UV-I 308 W/m 10,3 C 12,1 C 20,9 km/h (4 Bft) 94,92 %
28.05.2017 07:32 15,8 C 22,2 C 69 % 1020,2 hPa 0,0 l/m 13,8 km/h (3 Bft) O-NO 69 2 min 0,000 mm 0,7 UV-I 314 W/m 10,1 C 12,6 C 19,3 km/h (3 Bft) 97,56 %
28.05.2017 07:34 15,8 C 22,2 C 69 % 1020,1 hPa 0,0 l/m 14,4 km/h (3 Bft) O 80 2 min 0,000 mm 0,7 UV-I 320 W/m 10,1 C 12,4 C 22,5 km/h (4 Bft) 100,00 %
28.05.2017 07:36 15,9 C 21,7 C 69 % 1020,2 hPa 0,0 l/m 12,4 km/h (3 Bft) NO 42 2 min 0,000 mm 0,7 UV-I 326 W/m 10,2 C 13,2 C 17,7 km/h (3 Bft) 100,00 %
28.05.2017 07:38 16,0 C 21,7 C 68 % 1020,2 hPa 0,0 l/m 14,8 km/h (3 Bft) O-NO 64 2 min 0,000 mm 0,7 UV-I 331 W/m 10,1 C 12,5 C 22,5 km/h (4 Bft) 97,87 %
28.05.2017 07:40 16,0 C 22,2 C 68 % 1020,3 hPa 0,0 l/m 12,9 km/h (3 Bft) NO 47 2 min 0,000 mm 0,8 UV-I 336 W/m 10,1 C 13,1 C 17,7 km/h (3 Bft) 97,73 %
28.05.2017 07:43 16,1 C 22,2 C 68 % 1020,3 hPa 0,0 l/m 12,3 km/h (3 Bft) O-NO 62 3 min 0,000 mm 0,8 UV-I 345 W/m 10,2 C 13,4 C 17,7 km/h (3 Bft) 97,50 %
28.05.2017 07:44 16,1 C 21,7 C 68 % 1020,3 hPa 0,0 l/m 11,0 km/h (2 Bft) O 88 1 min 0,000 mm 0,8 UV-I 350 W/m 10,2 C 13,9 C 14,5 km/h (3 Bft) 100,00 %
28.05.2017 07:46 16,2 C 21,7 C 69 % 1020,3 hPa 0,0 l/m 9,3 km/h (2 Bft) O-NO 66 2 min 0,000 mm 0,8 UV-I 354 W/m 10,5 C 14,7 C 14,5 km/h (3 Bft) 100,00 %
28.05.2017 07:48 16,3 C 21,7 C 68 % 1020,3 hPa 0,0 l/m 10,0 km/h (2 Bft) NO 55 2 min 0,000 mm 0,9 UV-I 361 W/m 10,4 C 14,6 C 14,5 km/h (3 Bft) 96,00 %
28.05.2017 07:50 16,3 C 21,7 C 68 % 1020,3 hPa 0,0 l/m 16,1 km/h (3 Bft) O 85 2 min 0,000 mm 0,9 UV-I 367 W/m 10,4 C 12,4 C 19,3 km/h (3 Bft) 98,00 %
28.05.2017 07:52 16,3 C 22,2 C 69 % 1020,3 hPa 0,0 l/m 12,7 km/h (3 Bft) NO 52 2 min 0,000 mm 0,9 UV-I 372 W/m 10,6 C 13,5 C 19,3 km/h (3 Bft) 100,00 %
28.05.2017 07:54 16,4 C 22,2 C 67 % 1020,3 hPa 0,0 l/m 12,8 km/h (3 Bft) O 82 2 min 0,000 mm 0,9 UV-I 379 W/m 10,3 C 13,6 C 16,1 km/h (3 Bft) 94,64 %
28.05.2017 07:56 16,4 C 22,2 C 68 % 1020,2 hPa 0,0 l/m 11,5 km/h (2 Bft) O-NO 71 2 min 0,000 mm 1,0 UV-I 385 W/m 10,5 C 14,1 C 19,3 km/h (3 Bft) 100,00 %
28.05.2017 07:58 16,5 C 22,2 C 67 % 1020,3 hPa 0,0 l/m 14,0 km/h (3 Bft) O-NO 63 2 min 0,000 mm 1,0 UV-I 391 W/m 10,4 C 13,3 C 19,3 km/h (3 Bft) 100,00 %
28.05.2017 08:00 16,6 C 21,7 C 67 % 1020,3 hPa 0,0 l/m 14,3 km/h (3 Bft) NO 44 2 min 0,000 mm 1,0 UV-I 397 W/m 10,4 C 13,3 C 19,3 km/h (3 Bft) 98,00 %
28.05.2017 08:02 16,6 C 21,7 C 67 % 1020,4 hPa 0,0 l/m 13,7 km/h (3 Bft) O-NO 69 2 min 0,203 mm 1,1 UV-I 403 W/m 10,4 C 13,5 C 17,7 km/h (3 Bft) 98,00 %
28.05.2017 08:04 16,6 C 22,2 C 67 % 1020,4 hPa 0,0 l/m 11,1 km/h (2 Bft) O-NO 70 2 min 0,000 mm 1,1 UV-I 409 W/m 10,4 C 14,4 C 17,7 km/h (3 Bft) 100,00 %
28.05.2017 08:06 16,7 C 21,7 C 67 % 1020,3 hPa 0,0 l/m 13,3 km/h (3 Bft) O-NO 77 2 min 0,000 mm 1,1 UV-I 415 W/m 10,5 C 13,8 C 20,9 km/h (4 Bft) 98,11 %
28.05.2017 08:08 16,7 C 21,7 C 67 % 1020,3 hPa 0,0 l/m 12,5 km/h (3 Bft) NO 53 2 min 0,000 mm 1,1 UV-I 420 W/m 10,5 C 14,1 C 19,3 km/h (3 Bft) 100,00 %
28.05.2017 08:10 16,8 C 21,7 C 67 % 1020,3 hPa 0,0 l/m 14,6 km/h (3 Bft) O 91 2 min 0,000 mm 1,2 UV-I 425 W/m 10,6 C 13,5 C 19,3 km/h (3 Bft) 100,00 %
28.05.2017 08:12 16,8 C 21,7 C 67 % 1020,3 hPa 0,0 l/m 14,6 km/h (3 Bft) NO 55 2 min 0,000 mm 1,2 UV-I 431 W/m 10,6 C 13,5 C 19,3 km/h (3 Bft) 97,37 %
28.05.2017 08:14 16,8 C 22,2 C 65 % 1020,3 hPa 0,0 l/m 15,8 km/h (3 Bft) O-NO 69 2 min 0,000 mm 1,2 UV-I 438 W/m 10,2 C 13,1 C 22,5 km/h (4 Bft) 98,00 %
28.05.2017 08:16 16,8 C 22,2 C 66 % 1020,3 hPa 0,0 l/m 13,1 km/h (3 Bft) NO 56 2 min 0,000 mm 1,3 UV-I 443 W/m 10,4 C 14,0 C 19,3 km/h (3 Bft) 97,87 %
28.05.2017 08:18 16,8 C 21,7 C 66 % 1020,3 hPa 0,0 l/m 13,0 km/h (3 Bft) O 79 2 min 0,000 mm 1,3 UV-I 449 W/m 10,4 C 14,0 C 16,1 km/h (3 Bft) 100,00 %
28.05.2017 08:20 16,8 C 21,7 C 66 % 1020,3 hPa 0,0 l/m 10,8 km/h (2 Bft) NO 43 2 min 0,000 mm 1,3 UV-I 454 W/m 10,4 C 14,8 C 17,7 km/h (3 Bft) 92,68 %
28.05.2017 08:22 16,9 C 21,7 C 66 % 1020,3 hPa 0,0 l/m 11,8 km/h (2 Bft) NO 51 2 min 0,000 mm 1,3 UV-I 460 W/m 10,5 C 14,5 C 14,5 km/h (3 Bft) 97,62 %
28.05.2017 08:24 17,1 C 21,7 C 67 % 1020,2 hPa 0,0 l/m 11,4 km/h (2 Bft) NO 56 2 min 0,000 mm 1,4 UV-I 466 W/m 10,9 C 14,9 C 17,7 km/h (3 Bft) 98,28 %
28.05.2017 08:26 17,2 C 21,7 C 66 % 1020,3 hPa 0,0 l/m 13,6 km/h (3 Bft) NO 46 2 min 0,000 mm 1,4 UV-I 472 W/m 10,8 C 14,3 C 22,5 km/h (4 Bft) 95,74 %
28.05.2017 08:28 17,2 C 22,2 C 66 % 1020,3 hPa 0,0 l/m 15,3 km/h (3 Bft) O-NO 76 2 min 0,000 mm 1,5 UV-I 478 W/m 10,8 C 13,8 C 19,3 km/h (3 Bft) 95,56 %
28.05.2017 08:30 17,2 C 22,2 C 66 % 1020,3 hPa 0,0 l/m 13,3 km/h (3 Bft) O 90 2 min 0,000 mm 1,5 UV-I 483 W/m 10,8 C 14,4 C 16,1 km/h (3 Bft) 94,29 %
28.05.2017 08:32 17,3 C 22,2 C 65 % 1020,3 hPa 0,0 l/m 10,1 km/h (2 Bft) O 80 2 min 0,000 mm 1,5 UV-I 489 W/m 10,7 C 15,6 C 14,5 km/h (3 Bft) 98,39 %
28.05.2017 08:34 17,3 C 22,2 C 65 % 1020,3 hPa 0,0 l/m 6,9 km/h (2 Bft) O-NO 72 2 min 0,000 mm 1,6 UV-I 496 W/m 10,7 C 17,1 C 11,3 km/h (2 Bft) 95,45 %
28.05.2017 08:36 17,4 C 22,2 C 65 % 1020,2 hPa 0,0 l/m 7,0 km/h (2 Bft) O-NO 68 2 min 0,000 mm 1,6 UV-I 501 W/m 10,8 C 17,1 C 12,9 km/h (3 Bft) 95,74 %
28.05.2017 08:38 17,5 C 22,2 C 65 % 1020,2 hPa 0,0 l/m 10,6 km/h (2 Bft) NO 41 2 min 0,000 mm 1,7 UV-I 505 W/m 10,8 C 15,6 C 14,5 km/h (3 Bft) 96,00 %
28.05.2017 08:40 17,6 C 22,2 C 66 % 1020,1 hPa 0,0 l/m 10,3 km/h (2 Bft) O-NO 58 2 min 0,000 mm 1,7 UV-I 512 W/m 11,2 C 15,9 C 14,5 km/h (3 Bft) 97,56 %
28.05.2017 08:42 17,7 C 22,2 C 65 % 1020,2 hPa 0,0 l/m 10,8 km/h (2 Bft) NO 44 2 min 0,000 mm 1,7 UV-I 518 W/m 11,0 C 15,8 C 14,5 km/h (3 Bft) 94,00 %
28.05.2017 08:44 17,8 C 22,2 C 65 % 1020,2 hPa 0,0 l/m 10,8 km/h (2 Bft) NO 51 2 min 0,000 mm 1,8 UV-I 525 W/m 11,1 C 15,9 C 16,1 km/h (3 Bft) 93,18 %
28.05.2017 08:46 17,9 C 22,2 C 66 % 1020,2 hPa 0,0 l/m 7,9 km/h (2 Bft) O-NO 65 2 min 0,000 mm 1,8 UV-I 531 W/m 11,5 C 17,2 C 14,5 km/h (3 Bft) 95,74 %
28.05.2017 08:48 17,9 C 22,2 C 64 % 1020,3 hPa 0,0 l/m 9,4 km/h (2 Bft) O-NO 74 2 min 0,000 mm 1,9 UV-I 536 W/m 11,0 C 16,6 C 16,1 km/h (3 Bft) 95,12 %
28.05.2017 08:50 17,9 C 22,2 C 64 % 1020,3 hPa 0,0 l/m 12,4 km/h (3 Bft) O-NO 65 2 min 0,000 mm 1,9 UV-I 540 W/m 11,0 C 15,5 C 17,7 km/h (3 Bft) 94,00 %
28.05.2017 08:52 17,9 C 22,2 C 65 % 1020,3 hPa 0,0 l/m 7,8 km/h (2 Bft) O-NO 66 2 min 0,000 mm 1,9 UV-I 546 W/m 11,2 C 17,2 C 14,5 km/h (3 Bft) 88,64 %
28.05.2017 08:54 18,0 C 22,2 C 64 % 1020,3 hPa 0,0 l/m 6,9 km/h (2 Bft) O-NO 61 2 min 0,000 mm 2,0 UV-I 551 W/m 11,1 C 17,8 C 12,9 km/h (3 Bft) 96,43 %
28.05.2017 08:56 18,1 C 22,2 C 63 % 1020,3 hPa 0,0 l/m 12,6 km/h (3 Bft) O-NO 70 2 min 0,000 mm 2,0 UV-I 557 W/m 10,9 C 15,6 C 17,7 km/h (3 Bft) 94,74 %
28.05.2017 08:58 18,0 C 22,2 C 62 % 1020,3 hPa 0,0 l/m 11,1 km/h (2 Bft) NO 42 2 min 0,000 mm 2,1 UV-I 562 W/m 10,6 C 16,0 C 17,7 km/h (3 Bft) 94,34 %
28.05.2017 09:00 18,1 C 22,2 C 64 % 1020,3 hPa 0,0 l/m 9,6 km/h (2 Bft) NO 40 2 min 0,305 mm 2,1 UV-I 568 W/m 11,2 C 16,7 C 14,5 km/h (3 Bft) 92,00 %
28.05.2017 09:02 18,2 C 22,2 C 65 % 1020,3 hPa 0,0 l/m 9,6 km/h (2 Bft) NO 36 2 min 0,000 mm 2,2 UV-I 571 W/m 11,5 C 16,8 C 16,1 km/h (3 Bft) 85,11 %
28.05.2017 09:04 18,3 C 22,2 C 66 % 1020,3 hPa 0,0 l/m 10,5 km/h (2 Bft) NO 41 2 min 0,000 mm 2,2 UV-I 577 W/m 11,8 C 16,6 C 16,1 km/h (3 Bft) 95,45 %
28.05.2017 09:06 18,4 C 22,2 C 64 % 1020,3 hPa 0,0 l/m 7,8 km/h (2 Bft) NO 43 2 min 0,000 mm 2,2 UV-I 582 W/m 11,5 C 17,8 C 14,5 km/h (3 Bft) 96,00 %
28.05.2017 09:08 18,4 C 22,2 C 63 % 1020,3 hPa 0,0 l/m 8,2 km/h (2 Bft) NO 47 2 min 0,000 mm 2,3 UV-I 587 W/m 11,2 C 17,6 C 11,3 km/h (2 Bft) 92,31 %
28.05.2017 09:10 18,6 C 22,2 C 65 % 1020,3 hPa 0,0 l/m 10,5 km/h (2 Bft) NO 37 2 min 0,000 mm 2,3 UV-I 593 W/m 11,9 C 16,9 C 16,1 km/h (3 Bft) 94,34 %
28.05.2017 09:12 18,7 C 22,2 C 63 % 1020,3 hPa 0,0 l/m 7,3 km/h (2 Bft) NO 39 2 min 0,000 mm 2,4 UV-I 599 W/m 11,5 C 18,3 C 11,3 km/h (2 Bft) 94,00 %
28.05.2017 09:14 18,8 C 22,2 C 64 % 1020,3 hPa 0,0 l/m 9,0 km/h (2 Bft) NO 51 2 min 0,000 mm 2,4 UV-I 604 W/m 11,8 C 17,7 C 14,5 km/h (3 Bft) 94,29 %
28.05.2017 09:16 18,7 C 22,2 C 62 % 1020,3 hPa 0,0 l/m 7,8 km/h (2 Bft) O 85 2 min 0,000 mm 2,5 UV-I 609 W/m 11,3 C 18,1 C 12,9 km/h (3 Bft) 94,64 %
28.05.2017 09:18 18,8 C 22,2 C 65 % 1020,3 hPa 0,0 l/m 5,9 km/h (2 Bft) O-NO 57 2 min 0,000 mm 2,5 UV-I 614 W/m 12,1 C 18,8 C 9,7 km/h (2 Bft) 94,74 %
28.05.2017 09:20 18,8 C 22,2 C 63 % 1020,3 hPa 0,0 l/m 11,0 km/h (2 Bft) O-NO 78 2 min 0,000 mm 2,6 UV-I 618 W/m 11,6 C 17,0 C 16,1 km/h (3 Bft) 92,45 %
28.05.2017 09:22 18,8 C 22,2 C 62 % 1020,3 hPa 0,0 l/m 7,8 km/h (2 Bft) NO 44 2 min 0,000 mm 2,7 UV-I 624 W/m 11,4 C 18,2 C 11,3 km/h (2 Bft) 97,56 %
28.05.2017 09:24 19,0 C 22,2 C 62 % 1020,3 hPa 0,0 l/m 9,9 km/h (2 Bft) O-NO 68 2 min 0,000 mm 2,7 UV-I 628 W/m 11,6 C 17,6 C 14,5 km/h (3 Bft) 92,68 %
28.05.2017 09:26 18,9 C 22,2 C 62 % 1020,3 hPa 0,0 l/m 7,4 km/h (2 Bft) O-NO 61 2 min 0,000 mm 2,7 UV-I 633 W/m 11,5 C 18,5 C 12,9 km/h (3 Bft) 96,77 %
28.05.2017 09:28 18,9 C 22,2 C 63 % 1020,3 hPa 0,0 l/m 8,3 km/h (2 Bft) O-NO 68 2 min 0,000 mm 2,8 UV-I 637 W/m 11,7 C 18,1 C 14,5 km/h (3 Bft) 92,68 %
28.05.2017 09:30 19,0 C 22,2 C 64 % 1020,2 hPa 0,0 l/m 7,8 km/h (2 Bft) NO 37 2 min 0,000 mm 2,8 UV-I 643 W/m 12,0 C 18,4 C 14,5 km/h (3 Bft) 98,11 %
28.05.2017 09:32 19,1 C 22,2 C 62 % 1020,2 hPa 0,0 l/m 10,5 km/h (2 Bft) O-NO 69 2 min 0,000 mm 2,9 UV-I 649 W/m 11,6 C 17,5 C 16,1 km/h (3 Bft) 92,68 %
28.05.2017 09:34 19,1 C 22,2 C 62 % 1020,2 hPa 0,0 l/m 12,4 km/h (3 Bft) NO 51 2 min 0,000 mm 2,9 UV-I 652 W/m 11,6 C 16,9 C 16,1 km/h (3 Bft) 100,00 %
28.05.2017 09:36 19,1 C 22,2 C 61 % 1020,1 hPa 0,0 l/m 13,1 km/h (3 Bft) O-NO 65 2 min 0,000 mm 3,0 UV-I 659 W/m 11,4 C 16,7 C 16,1 km/h (3 Bft) 100,00 %
28.05.2017 09:38 19,2 C 22,2 C 64 % 1020,1 hPa 0,0 l/m 11,7 km/h (2 Bft) O-NO 62 2 min 0,000 mm 3,0 UV-I 665 W/m 12,2 C 17,2 C 17,7 km/h (3 Bft) 100,00 %
28.05.2017 09:40 19,3 C 22,2 C 64 % 1020,1 hPa 0,0 l/m 11,4 km/h (2 Bft) NO 42 2 min 0,000 mm 3,1 UV-I 670 W/m 12,3 C 17,4 C 17,7 km/h (3 Bft) 98,00 %
28.05.2017 09:42 19,3 C 22,2 C 62 % 1020,1 hPa 0,0 l/m 9,4 km/h (2 Bft) O-NO 62 2 min 0,000 mm 3,1 UV-I 674 W/m 11,8 C 18,1 C 16,1 km/h (3 Bft) 100,00 %
28.05.2017 09:44 19,4 C 22,2 C 64 % 1020,1 hPa 0,0 l/m 9,6 km/h (2 Bft) O-NO 59 2 min 0,000 mm 3,2 UV-I 679 W/m 12,4 C 18,1 C 16,1 km/h (3 Bft) 100,00 %
28.05.2017 09:46 19,6 C 22,2 C 64 % 1020,1 hPa 0,0 l/m 11,1 km/h (2 Bft) O 87 2 min 0,000 mm 3,3 UV-I 685 W/m 12,6 C 17,8 C 14,5 km/h (3 Bft) 100,00 %
28.05.2017 09:48 19,7 C 22,2 C 60 % 1020,1 hPa 0,0 l/m 13,1 km/h (3 Bft) O-NO 71 2 min 0,000 mm 3,3 UV-I 690 W/m 11,7 C 17,4 C 17,7 km/h (3 Bft) 95,12 %
28.05.2017 09:50 19,7 C 22,2 C 61 % 1020,2 hPa 0,0 l/m 12,7 km/h (3 Bft) NO 55 2 min 0,000 mm 3,3 UV-I 694 W/m 12,0 C 17,5 C 19,3 km/h (3 Bft) 96,00 %
28.05.2017 09:52 19,7 C 22,2 C 61 % 1020,2 hPa 0,0 l/m 12,7 km/h (3 Bft) O-NO 74 2 min 0,000 mm 3,4 UV-I 699 W/m 12,0 C 17,5 C 17,7 km/h (3 Bft) 97,73 %
28.05.2017 09:54 19,6 C 22,2 C 62 % 1020,0 hPa 0,0 l/m 13,5 km/h (3 Bft) O-NO 60 2 min 0,000 mm 3,4 UV-I 702 W/m 12,1 C 17,1 C 19,3 km/h (3 Bft) 98,21 %
28.05.2017 09:56 19,6 C 22,2 C 61 % 1020,0 hPa 0,0 l/m 11,4 km/h (2 Bft) O-NO 62 2 min 0,000 mm 3,5 UV-I 706 W/m 11,9 C 17,7 C 16,1 km/h (3 Bft) 97,37 %
28.05.2017 09:58 19,8 C 22,2 C 62 % 1020,0 hPa 0,0 l/m 13,1 km/h (3 Bft) O 80 2 min 0,000 mm 3,5 UV-I 711 W/m 12,3 C 17,5 C 16,1 km/h (3 Bft) 97,73 %
28.05.2017 10:00 19,8 C 22,2 C 60 % 1020,0 hPa 0,0 l/m 15,2 km/h (3 Bft) O-NO 64 2 min 0,406 mm 3,6 UV-I 716 W/m 11,8 C 17,0 C 19,3 km/h (3 Bft) 98,00 %
28.05.2017 10:02 19,8 C 22,2 C 60 % 1020,1 hPa 0,0 l/m 12,8 km/h (3 Bft) O-NO 78 2 min 0,000 mm 3,6 UV-I 722 W/m 11,8 C 17,6 C 19,3 km/h (3 Bft) 92,00 %
28.05.2017 10:04 19,8 C 22,2 C 60 % 1020,1 hPa 0,0 l/m 10,2 km/h (2 Bft) O-NO 72 2 min 0,000 mm 3,7 UV-I 725 W/m 11,8 C 18,4 C 19,3 km/h (3 Bft) 100,00 %
28.05.2017 10:06 19,8 C 22,2 C 62 % 1020,1 hPa 0,0 l/m 12,2 km/h (2 Bft) O 85 2 min 0,000 mm 3,7 UV-I 729 W/m 12,3 C 17,7 C 19,3 km/h (3 Bft) 100,00 %
28.05.2017 10:08 19,9 C 22,2 C 60 % 1020,1 hPa 0,0 l/m 13,2 km/h (3 Bft) O 82 2 min 0,000 mm 3,8 UV-I 734 W/m 11,9 C 17,6 C 17,7 km/h (3 Bft) 98,11 %
28.05.2017 10:10 20,0 C 22,2 C 62 % 1020,0 hPa 0,0 l/m 9,5 km/h (2 Bft) O-NO 71 2 min 0,000 mm 3,8 UV-I 737 W/m 12,5 C 18,8 C 14,5 km/h (3 Bft) 97,37 %
28.05.2017 10:12 20,2 C 22,2 C 62 % 1020,0 hPa 0,0 l/m 11,1 km/h (2 Bft) NO 42 2 min 0,000 mm 3,9 UV-I 742 W/m 12,7 C 18,5 C 14,5 km/h (3 Bft) 97,87 %
28.05.2017 10:14 20,2 C 22,2 C 61 % 1020,0 hPa 0,0 l/m 7,5 km/h (2 Bft) O-NO 61 2 min 0,000 mm 4,0 UV-I 745 W/m 12,4 C 19,8 C 14,5 km/h (3 Bft) 100,00 %
28.05.2017 10:16 20,3 C 22,2 C 60 % 1020,0 hPa 0,0 l/m 9,7 km/h (2 Bft) O-NO 57 2 min 0,000 mm 4,0 UV-I 749 W/m 12,3 C 19,1 C 17,7 km/h (3 Bft) 98,11 %
28.05.2017 10:18 20,3 C 22,2 C 60 % 1020,0 hPa 0,0 l/m 11,7 km/h (2 Bft) O 79 2 min 0,000 mm 4,0 UV-I 754 W/m 12,3 C 18,5 C 19,3 km/h (3 Bft) 95,45 %
28.05.2017 10:20 20,3 C 22,2 C 59 % 1020,0 hPa 0,0 l/m 10,7 km/h (2 Bft) O-NO 59 2 min 0,000 mm 4,1 UV-I 759 W/m 12,0 C 18,8 C 16,1 km/h (3 Bft) 97,62 %
28.05.2017 10:22 20,4 C 22,2 C 60 % 1020,0 hPa 0,0 l/m 6,4 km/h (2 Bft) O-NO 71 2 min 0,000 mm 4,1 UV-I 762 W/m 12,4 C 20,4 C 14,5 km/h (3 Bft) 100,00 %
28.05.2017 10:24 20,6 C 22,2 C 62 % 1020,0 hPa 0,0 l/m 9,9 km/h (2 Bft) NO 48 2 min 0,000 mm 4,2 UV-I 766 W/m 13,1 C 19,3 C 16,1 km/h (3 Bft) 100,00 %
28.05.2017 10:26 20,7 C 22,2 C 61 % 1020,0 hPa 0,0 l/m 10,2 km/h (2 Bft) O-NO 73 2 min 0,000 mm 4,3 UV-I 771 W/m 12,9 C 19,4 C 16,1 km/h (3 Bft) 100,00 %
28.05.2017 10:28 20,8 C 22,2 C 61 % 1020,0 hPa 0,0 l/m 7,6 km/h (2 Bft) O-NO 78 2 min 0,000 mm 4,3 UV-I 774 W/m 13,0 C 20,3 C 16,1 km/h (3 Bft) 100,00 %
28.05.2017 10:30 20,7 C 22,2 C 58 % 1020,1 hPa 0,0 l/m 8,7 km/h (2 Bft) O 87 2 min 0,000 mm 4,3 UV-I 776 W/m 12,1 C 19,8 C 16,1 km/h (3 Bft) 95,45 %
28.05.2017 10:32 20,7 C 22,2 C 61 % 1020,1 hPa 0,0 l/m 5,2 km/h (1 Bft) NO 55 2 min 0,000 mm 4,4 UV-I 782 W/m 12,9 C 20,7 C 8,0 km/h (2 Bft) 98,21 %
28.05.2017 10:34 20,8 C 22,2 C 58 % 1020,1 hPa 0,0 l/m 7,4 km/h (2 Bft) O-NO 59 2 min 0,000 mm 4,5 UV-I 786 W/m 12,2 C 20,4 C 11,3 km/h (2 Bft) 100,00 %
28.05.2017 10:36 21,1 C 22,2 C 59 % 1020,1 hPa 0,0 l/m 8,5 km/h (2 Bft) O-NO 64 2 min 0,000 mm 4,5 UV-I 789 W/m 12,8 C 20,3 C 16,1 km/h (3 Bft) 97,56 %
28.05.2017 10:38 21,0 C 22,2 C 56 % 1020,1 hPa 0,0 l/m 11,0 km/h (2 Bft) O 92 2 min 0,000 mm 4,6 UV-I 793 W/m 11,9 C 19,5 C 16,1 km/h (3 Bft) 95,12 %
28.05.2017 10:40 20,9 C 22,2 C 58 % 1020,1 hPa 0,0 l/m 8,6 km/h (2 Bft) NO 45 2 min 0,000 mm 4,6 UV-I 797 W/m 12,3 C 20,1 C 11,3 km/h (2 Bft) 100,00 %
28.05.2017 10:42 21,1 C 22,2 C 58 % 1020,1 hPa 0,0 l/m 11,1 km/h (2 Bft) NO 49 2 min 0,000 mm 4,6 UV-I 801 W/m 12,5 C 19,5 C 17,7 km/h (3 Bft) 100,00 %
28.05.2017 10:44 21,0 C 22,2 C 57 % 1020,0 hPa 0,0 l/m 13,2 km/h (3 Bft) NO 52 2 min 0,000 mm 4,7 UV-I 802 W/m 12,1 C 18,9 C 17,7 km/h (3 Bft) 94,34 %
28.05.2017 10:46 20,9 C 22,2 C 58 % 1020,1 hPa 0,0 l/m 8,5 km/h (2 Bft) NO 44 2 min 0,000 mm 4,7 UV-I 807 W/m 12,3 C 20,1 C 14,5 km/h (3 Bft) 90,24 %
28.05.2017 10:48 21,1 C 22,2 C 58 % 1020,0 hPa 0,0 l/m 12,6 km/h (3 Bft) O-NO 57 2 min 0,000 mm 4,8 UV-I 810 W/m 12,5 C 19,1 C 22,5 km/h (4 Bft) 96,23 %
28.05.2017 10:50 21,2 C 22,2 C 57 % 1020,0 hPa 0,0 l/m 8,2 km/h (2 Bft) O 90 2 min 0,000 mm 4,8 UV-I 814 W/m 12,3 C 20,5 C 12,9 km/h (3 Bft) 97,87 %
28.05.2017 10:52 21,2 C 22,2 C 58 % 1020,0 hPa 0,0 l/m 11,1 km/h (2 Bft) O-NO 61 2 min 0,000 mm 4,9 UV-I 816 W/m 12,6 C 19,7 C 16,1 km/h (3 Bft) 95,12 %
28.05.2017 10:54 21,2 C 22,2 C 56 % 1020,0 hPa 0,0 l/m 11,7 km/h (2 Bft) O 81 2 min 0,000 mm 4,9 UV-I 821 W/m 12,1 C 19,5 C 17,7 km/h (3 Bft) 93,62 %
28.05.2017 10:56 21,2 C 22,2 C 56 % 1020,0 hPa 0,0 l/m 8,0 km/h (2 Bft) O-NO 67 2 min 0,000 mm 5,0 UV-I 825 W/m 12,1 C 20,6 C 14,5 km/h (3 Bft) 97,62 %
28.05.2017 10:58 21,2 C 22,2 C 57 % 1020,0 hPa 0,0 l/m 13,2 km/h (3 Bft) O-NO 57 2 min 0,000 mm 5,0 UV-I 829 W/m 12,3 C 19,1 C 19,3 km/h (3 Bft) 96,36 %
28.05.2017 11:00 21,2 C 22,2 C 55 % 1020,0 hPa 0,0 l/m 11,1 km/h (2 Bft) O-NO 57 2 min 0,000 mm 5,1 UV-I 832 W/m 11,8 C 19,7 C 14,5 km/h (3 Bft) 97,62 %
28.05.2017 11:02 21,2 C 22,2 C 56 % 1020,0 hPa 0,0 l/m 14,0 km/h (3 Bft) O-NO 70 2 min 0,508 mm 5,1 UV-I 835 W/m 12,1 C 18,9 C 19,3 km/h (3 Bft) 96,00 %
28.05.2017 11:04 21,3 C 22,2 C 57 % 1020,0 hPa 0,0 l/m 15,1 km/h (3 Bft) O-NO 66 2 min 0,000 mm 5,1 UV-I 837 W/m 12,4 C 18,8 C 22,5 km/h (4 Bft) 100,00 %
28.05.2017 11:06 21,4 C 22,2 C 54 % 1020,0 hPa 0,0 l/m 13,3 km/h (3 Bft) O-NO 64 2 min 0,000 mm 5,2 UV-I 843 W/m 11,7 C 19,3 C 22,5 km/h (4 Bft) 91,53 %
28.05.2017 11:08 21,4 C 22,2 C 56 % 1020,0 hPa 0,0 l/m 10,7 km/h (2 Bft) NO 44 2 min 0,000 mm 5,2 UV-I 843 W/m 12,3 C 20,0 C 14,5 km/h (3 Bft) 89,36 %
28.05.2017 11:10 21,5 C 22,2 C 56 % 1020,0 hPa 0,0 l/m 8,6 km/h (2 Bft) O 94 2 min 0,000 mm 5,2 UV-I 847 W/m 12,3 C 20,7 C 14,5 km/h (3 Bft) 94,74 %
28.05.2017 11:12 21,6 C 22,2 C 55 % 1020,0 hPa 0,0 l/m 11,4 km/h (2 Bft) O 82 2 min 0,000 mm 5,3 UV-I 848 W/m 12,2 C 20,0 C 19,3 km/h (3 Bft) 95,74 %
28.05.2017 11:14 21,6 C 22,2 C 55 % 1020,0 hPa 0,0 l/m 13,1 km/h (3 Bft) O-NO 57 2 min 0,000 mm 5,3 UV-I 851 W/m 12,2 C 19,6 C 17,7 km/h (3 Bft) 92,00 %
28.05.2017 11:16 21,6 C 22,2 C 54 % 1020,0 hPa 0,0 l/m 11,2 km/h (2 Bft) O-NO 70 2 min 0,000 mm 5,4 UV-I 855 W/m 11,9 C 20,1 C 16,1 km/h (3 Bft) 100,00 %
28.05.2017 11:18 21,7 C 22,2 C 55 % 1020,0 hPa 0,0 l/m 13,6 km/h (3 Bft) O 101 2 min 0,000 mm 5,4 UV-I 859 W/m 12,3 C 19,6 C 17,7 km/h (3 Bft) 97,56 %
28.05.2017 11:20 21,8 C 22,2 C 53 % 1020,0 hPa 0,0 l/m 12,9 km/h (3 Bft) O-NO 70 2 min 0,000 mm 5,5 UV-I 862 W/m 11,8 C 19,9 C 17,7 km/h (3 Bft) 92,45 %
28.05.2017 11:22 21,8 C 22,8 C 53 % 1020,0 hPa 0,0 l/m 10,7 km/h (2 Bft) O-NO 71 2 min 0,000 mm 5,5 UV-I 863 W/m 11,8 C 20,4 C 16,1 km/h (3 Bft) 100,00 %
28.05.2017 11:24 21,8 C 22,8 C 55 % 1020,0 hPa 0,0 l/m 8,1 km/h (2 Bft) O-NO 61 2 min 0,000 mm 5,6 UV-I 865 W/m 12,4 C 21,2 C 14,5 km/h (3 Bft) 92,00 %
28.05.2017 11:26 21,9 C 22,8 C 55 % 1019,9 hPa 0,0 l/m 13,0 km/h (3 Bft) O-NO 71 2 min 0,000 mm 5,6 UV-I 867 W/m 12,4 C 20,0 C 16,1 km/h (3 Bft) 97,87 %
28.05.2017 11:28 22,0 C 22,8 C 55 % 1019,9 hPa 0,0 l/m 11,8 km/h (2 Bft) O-NO 60 2 min 0,000 mm 5,7 UV-I 871 W/m 12,5 C 20,4 C 19,3 km/h (3 Bft) 97,56 %
28.05.2017 11:30 22,0 C 22,8 C 55 % 1019,9 hPa 0,0 l/m 10,5 km/h (2 Bft) O-NO 57 2 min 0,000 mm 5,7 UV-I 873 W/m 12,5 C 20,7 C 16,1 km/h (3 Bft) 97,56 %
28.05.2017 11:32 22,1 C 22,8 C 54 % 1019,9 hPa 0,0 l/m 11,7 km/h (2 Bft) O-NO 60 2 min 0,000 mm 5,7 UV-I 876 W/m 12,3 C 20,5 C 17,7 km/h (3 Bft) 92,86 %
28.05.2017 11:34 22,1 C 22,8 C 56 % 1019,8 hPa 0,0 l/m 11,9 km/h (2 Bft) N-NO 31 2 min 0,000 mm 5,8 UV-I 878 W/m 12,9 C 20,5 C 17,7 km/h (3 Bft) 95,74 %
28.05.2017 11:36 22,2 C 22,8 C 55 % 1019,8 hPa 0,0 l/m 12,4 km/h (3 Bft) O-NO 68 2 min 0,000 mm 5,8 UV-I 880 W/m 12,7 C 20,5 C 17,7 km/h (3 Bft) 95,74 %
28.05.2017 11:38 22,2 C 22,8 C 53 % 1019,8 hPa 0,0 l/m 15,2 km/h (3 Bft) O-NO 57 2 min 0,000 mm 5,8 UV-I 883 W/m 12,2 C 19,9 C 20,9 km/h (4 Bft) 100,00 %
28.05.2017 11:40 22,2 C 22,8 C 54 % 1019,7 hPa 0,0 l/m 14,2 km/h (3 Bft) O 83 2 min 0,000 mm 5,8 UV-I 885 W/m 12,4 C 20,1 C 22,5 km/h (4 Bft) 97,62 %
28.05.2017 11:42 22,2 C 22,8 C 55 % 1019,7 hPa 0,0 l/m 18,5 km/h (3 Bft) O-NO 76 2 min 0,000 mm 5,9 UV-I 888 W/m 12,7 C 19,3 C 24,1 km/h (4 Bft) 91,49 %
28.05.2017 11:44 22,3 C 22,8 C 53 % 1019,7 hPa 0,0 l/m 17,1 km/h (3 Bft) O 92 2 min 0,000 mm 5,9 UV-I 891 W/m 12,2 C 19,6 C 24,1 km/h (4 Bft) 97,73 %
28.05.2017 11:46 22,3 C 22,8 C 53 % 1019,7 hPa 0,0 l/m 18,8 km/h (3 Bft) O-NO 76 2 min 0,000 mm 5,9 UV-I 891 W/m 12,2 C 19,4 C 25,7 km/h (4 Bft) 97,87 %
28.05.2017 11:48 22,3 C 22,8 C 54 % 1019,7 hPa 0,0 l/m 16,0 km/h (3 Bft) O 101 2 min 0,000 mm 6,0 UV-I 894 W/m 12,5 C 19,8 C 22,5 km/h (4 Bft) 98,21 %
28.05.2017 11:50 22,4 C 22,8 C 54 % 1019,7 hPa 0,0 l/m 12,9 km/h (3 Bft) O-NO 61 2 min 0,000 mm 6,0 UV-I 896 W/m 12,6 C 20,6 C 17,7 km/h (3 Bft) 92,68 %
28.05.2017 11:52 22,6 C 22,8 C 54 % 1019,6 hPa 0,0 l/m 9,4 km/h (2 Bft) NO 51 2 min 0,000 mm 6,0 UV-I 897 W/m 12,8 C 21,7 C 17,7 km/h (3 Bft) 92,11 %
28.05.2017 11:54 22,7 C 22,8 C 53 % 1019,6 hPa 0,0 l/m 12,3 km/h (3 Bft) O-NO 71 2 min 0,000 mm 6,1 UV-I 899 W/m 12,6 C 21,1 C 17,7 km/h (3 Bft) 100,00 %
28.05.2017 11:56 22,7 C 22,8 C 53 % 1019,7 hPa 0,0 l/m 12,5 km/h (3 Bft) NO 53 2 min 0,000 mm 6,1 UV-I 902 W/m 12,6 C 21,0 C 17,7 km/h (3 Bft) 97,56 %
28.05.2017 11:58 22,8 C 22,8 C 55 % 1019,7 hPa 0,0 l/m 12,0 km/h (2 Bft) NO 49 2 min 0,000 mm 6,1 UV-I 904 W/m 13,3 C 21,3 C 17,7 km/h (3 Bft) 97,56 %
28.05.2017 12:00 22,8 C 22,8 C 54 % 1019,7 hPa 0,0 l/m 13,3 km/h (3 Bft) O-NO 64 2 min 0,610 mm 6,2 UV-I 904 W/m 13,0 C 21,0 C 19,3 km/h (3 Bft) 100,00 %
28.05.2017 12:02 22,9 C 22,8 C 51 % 1019,7 hPa 0,0 l/m 13,7 km/h (3 Bft) NO 53 2 min 0,000 mm 6,2 UV-I 906 W/m 12,2 C 21,0 C 20,9 km/h (4 Bft) 98,00 %
28.05.2017 12:04 22,8 C 22,8 C 57 % 1019,6 hPa 0,0 l/m 12,2 km/h (2 Bft) NO 53 2 min 0,000 mm 6,2 UV-I 906 W/m 13,8 C 21,2 C 19,3 km/h (3 Bft) 93,62 %
28.05.2017 12:06 22,8 C 22,8 C 51 % 1019,7 hPa 0,0 l/m 14,0 km/h (3 Bft) NO 56 2 min 0,000 mm 6,2 UV-I 909 W/m 12,1 C 20,8 C 22,5 km/h (4 Bft) 92,00 %
28.05.2017 12:08 22,8 C 22,8 C 53 % 1019,6 hPa 0,0 l/m 12,9 km/h (3 Bft) O 79 2 min 0,000 mm 6,3 UV-I 912 W/m 12,7 C 21,1 C 20,9 km/h (4 Bft) 100,00 %
28.05.2017 12:10 22,9 C 22,8 C 51 % 1019,6 hPa 0,0 l/m 17,1 km/h (3 Bft) O-NO 74 2 min 0,000 mm 6,3 UV-I 914 W/m 12,2 C 20,4 C 20,9 km/h (4 Bft) 100,00 %
28.05.2017 12:12 22,8 C 22,8 C 53 % 1019,6 hPa 0,0 l/m 14,0 km/h (3 Bft) NO 49 2 min 0,000 mm 6,3 UV-I 914 W/m 12,7 C 20,8 C 19,3 km/h (3 Bft) 90,00 %
28.05.2017 12:14 22,9 C 22,8 C 53 % 1019,6 hPa 0,0 l/m 16,3 km/h (3 Bft) O 85 2 min 0,000 mm 6,3 UV-I 915 W/m 12,8 C 20,5 C 20,9 km/h (4 Bft) 90,24 %
28.05.2017 12:16 22,9 C 22,8 C 53 % 1019,5 hPa 0,0 l/m 14,2 km/h (3 Bft) O-NO 78 2 min 0,000 mm 6,4 UV-I 918 W/m 12,8 C 20,9 C 20,9 km/h (4 Bft) 98,11 %
28.05.2017 12:18 23,0 C 22,8 C 52 % 1019,5 hPa 0,0 l/m 17,4 km/h (3 Bft) O-NO 59 2 min 0,000 mm 6,4 UV-I 917 W/m 12,6 C 20,5 C 20,9 km/h (4 Bft) 97,62 %
28.05.2017 12:20 23,1 C 22,8 C 51 % 1019,5 hPa 0,0 l/m 15,5 km/h (3 Bft) O-NO 62 2 min 0,000 mm 6,4 UV-I 920 W/m 12,4 C 20,9 C 20,9 km/h (4 Bft) 95,45 %
28.05.2017 12:22 23,1 C 22,8 C 51 % 1019,6 hPa 0,0 l/m 14,5 km/h (3 Bft) O-NO 77 2 min 0,000 mm 6,4 UV-I 920 W/m 12,4 C 21,1 C 19,3 km/h (3 Bft) 98,00 %
28.05.2017 12:24 23,1 C 22,8 C 51 % 1019,6 hPa 0,0 l/m 15,7 km/h (3 Bft) O-NO 61 2 min 0,000 mm 6,4 UV-I 920 W/m 12,4 C 20,9 C 20,9 km/h (4 Bft) 95,74 %
28.05.2017 12:26 23,1 C 22,8 C 49 % 1019,6 hPa 0,0 l/m 17,2 km/h (3 Bft) O-NO 64 2 min 0,000 mm 6,5 UV-I 922 W/m 11,8 C 20,6 C 20,9 km/h (4 Bft) 93,62 %
28.05.2017 12:28 23,1 C 22,8 C 50 % 1019,6 hPa 0,0 l/m 11,3 km/h (2 Bft) O-NO 72 2 min 0,000 mm 6,5 UV-I 923 W/m 12,1 C 21,8 C 17,7 km/h (3 Bft) 97,73 %
28.05.2017 12:30 23,2 C 22,8 C 50 % 1019,6 hPa 0,0 l/m 12,8 km/h (3 Bft) NO 51 2 min 0,000 mm 6,5 UV-I 925 W/m 12,2 C 21,5 C 19,3 km/h (3 Bft) 97,56 %
28.05.2017 12:32 23,3 C 22,8 C 51 % 1019,6 hPa 0,0 l/m 15,0 km/h (3 Bft) O 84 2 min 0,000 mm 6,5 UV-I 926 W/m 12,6 C 21,2 C 19,3 km/h (3 Bft) 93,62 %
28.05.2017 12:34 23,4 C 22,8 C 55 % 1019,6 hPa 0,0 l/m 12,5 km/h (3 Bft) N-NO 32 2 min 0,000 mm 6,5 UV-I 926 W/m 13,8 C 21,8 C 17,7 km/h (3 Bft) 94,92 %
28.05.2017 12:36 23,6 C 22,8 C 56 % 1019,6 hPa 0,0 l/m 12,1 km/h (2 Bft) NO 41 2 min 0,000 mm 6,6 UV-I 925 W/m 14,3 C 22,2 C 19,3 km/h (3 Bft) 98,00 %
28.05.2017 12:38 23,7 C 22,8 C 52 % 1019,6 hPa 0,0 l/m 12,4 km/h (3 Bft) O-NO 57 2 min 0,000 mm 6,6 UV-I 926 W/m 13,2 C 22,2 C 22,5 km/h (4 Bft) 88,64 %
28.05.2017 12:40 23,8 C 22,8 C 51 % 1019,6 hPa 0,0 l/m 15,3 km/h (3 Bft) O-NO 76 2 min 0,000 mm 6,6 UV-I 926 W/m 13,0 C 21,8 C 19,3 km/h (3 Bft) 89,47 %
28.05.2017 12:42 23,8 C 22,8 C 50 % 1019,6 hPa 0,0 l/m 12,9 km/h (3 Bft) O-NO 65 2 min 0,000 mm 6,6 UV-I 928 W/m 12,7 C 22,2 C 19,3 km/h (3 Bft) 91,49 %
28.05.2017 12:44 23,7 C 22,8 C 48 % 1019,5 hPa 0,0 l/m 12,5 km/h (3 Bft) O-NO 67 2 min 0,000 mm 6,6 UV-I 926 W/m 12,0 C 22,2 C 17,7 km/h (3 Bft) 94,34 %
28.05.2017 12:46 23,7 C 22,8 C 51 % 1019,5 hPa 0,0 l/m 8,7 km/h (2 Bft) O-NO 63 2 min 0,000 mm 6,6 UV-I 928 W/m 13,0 C 23,0 C 12,9 km/h (3 Bft) 93,18 %
28.05.2017 12:48 23,8 C 22,8 C 49 % 1019,5 hPa 0,0 l/m 13,5 km/h (3 Bft) O 101 2 min 0,000 mm 6,6 UV-I 928 W/m 12,4 C 22,1 C 20,9 km/h (4 Bft) 93,18 %
28.05.2017 12:50 23,8 C 22,8 C 48 % 1019,5 hPa 0,0 l/m 19,1 km/h (3 Bft) O-NO 78 2 min 0,000 mm 6,6 UV-I 931 W/m 12,1 C 21,2 C 22,5 km/h (4 Bft) 96,43 %
28.05.2017 12:52 23,8 C 22,8 C 50 % 1019,5 hPa 0,0 l/m 15,7 km/h (3 Bft) O-NO 75 2 min 0,000 mm 6,6 UV-I 930 W/m 12,7 C 21,7 C 20,9 km/h (4 Bft) 91,67 %
28.05.2017 12:54 23,8 C 22,8 C 52 % 1019,5 hPa 0,0 l/m 13,6 km/h (3 Bft) NO 43 2 min 0,000 mm 6,6 UV-I 928 W/m 13,3 C 22,1 C 17,7 km/h (3 Bft) 91,04 %
28.05.2017 12:56 23,8 C 22,8 C 48 % 1019,4 hPa 0,0 l/m 11,2 km/h (2 Bft) O-NO 69 2 min 0,000 mm 6,6 UV-I 927 W/m 12,1 C 22,6 C 17,7 km/h (3 Bft) 95,24 %
28.05.2017 12:58 23,8 C 22,8 C 48 % 1019,4 hPa 0,0 l/m 12,8 km/h (3 Bft) NO 53 2 min 0,000 mm 6,6 UV-I 927 W/m 12,1 C 22,2 C 17,7 km/h (3 Bft) 92,00 %
28.05.2017 13:00 23,8 C 22,8 C 48 % 1019,4 hPa 0,0 l/m 15,9 km/h (3 Bft) O 98 2 min 0,660 mm 6,6 UV-I 930 W/m 12,1 C 21,7 C 19,3 km/h (3 Bft) 92,00 %
28.05.2017 13:02 23,9 C 22,8 C 50 % 1019,4 hPa 0,0 l/m 11,1 km/h (2 Bft) O-NO 69 2 min 0,000 mm 6,6 UV-I 930 W/m 12,8 C 22,7 C 17,7 km/h (3 Bft) 92,68 %
28.05.2017 13:04 24,0 C 22,8 C 49 % 1019,3 hPa 0,0 l/m 12,8 km/h (3 Bft) O-NO 62 2 min 0,000 mm 6,6 UV-I 930 W/m 12,6 C 22,5 C 20,9 km/h (4 Bft) 94,00 %
28.05.2017 13:06 24,2 C 22,8 C 50 % 1019,3 hPa 0,0 l/m 12,0 km/h (2 Bft) O-NO 75 2 min 0,000 mm 6,6 UV-I 928 W/m 13,1 C 22,9 C 19,3 km/h (3 Bft) 92,68 %
28.05.2017 13:08 24,3 C 22,8 C 47 % 1019,3 hPa 0,0 l/m 9,8 km/h (2 Bft) O-NO 76 2 min 0,000 mm 6,6 UV-I 928 W/m 12,3 C 23,4 C 16,1 km/h (3 Bft) 98,00 %
28.05.2017 13:10 24,3 C 22,8 C 48 % 1019,3 hPa 0,0 l/m 13,2 km/h (3 Bft) NO 46 2 min 0,000 mm 6,6 UV-I 926 W/m 12,6 C 22,8 C 19,3 km/h (3 Bft) 94,64 %
28.05.2017 13:12 24,3 C 23,3 C 48 % 1019,3 hPa 0,0 l/m 11,4 km/h (2 Bft) NO 44 2 min 0,000 mm 6,6 UV-I 927 W/m 12,6 C 23,1 C 19,3 km/h (3 Bft) 96,15 %
28.05.2017 13:14 24,3 C 23,3 C 50 % 1019,3 hPa 0,0 l/m 11,7 km/h (2 Bft) N-NO 22 2 min 0,000 mm 6,6 UV-I 925 W/m 13,2 C 23,0 C 17,7 km/h (3 Bft) 97,06 %
28.05.2017 13:16 24,3 C 23,3 C 51 % 1019,2 hPa 0,0 l/m 12,7 km/h (3 Bft) NO 42 2 min 0,000 mm 6,6 UV-I 924 W/m 13,5 C 22,9 C 19,3 km/h (3 Bft) 97,56 %
28.05.2017 13:18 24,3 C 23,3 C 46 % 1019,2 hPa 0,0 l/m 12,8 km/h (3 Bft) O 81 2 min 0,000 mm 6,6 UV-I 921 W/m 11,9 C 22,8 C 19,3 km/h (3 Bft) 96,00 %
28.05.2017 13:20 24,4 C 23,3 C 49 % 1019,2 hPa 0,0 l/m 8,2 km/h (2 Bft) NO 36 2 min 0,000 mm 6,6 UV-I 925 W/m 13,0 C 23,9 C 11,3 km/h (2 Bft) 100,00 %
28.05.2017 13:22 24,5 C 23,3 C 51 % 1019,2 hPa 0,0 l/m 14,7 km/h (3 Bft) N-NO 33 2 min 0,000 mm 6,6 UV-I 924 W/m 13,7 C 22,7 C 20,9 km/h (4 Bft) 94,74 %
28.05.2017 13:24 24,6 C 23,3 C 49 % 1019,2 hPa 0,0 l/m 10,8 km/h (2 Bft) NO 52 2 min 0,000 mm 6,6 UV-I 924 W/m 13,2 C 23,6 C 17,7 km/h (3 Bft) 100,00 %
28.05.2017 13:26 24,6 C 23,3 C 49 % 1019,1 hPa 0,0 l/m 8,5 km/h (2 Bft) O-NO 65 2 min 0,000 mm 6,6 UV-I 921 W/m 13,2 C 24,1 C 17,7 km/h (3 Bft) 98,00 %
28.05.2017 13:28 24,8 C 23,3 C 48 % 1019,1 hPa 0,0 l/m 14,2 km/h (3 Bft) O-NO 59 2 min 0,000 mm 6,6 UV-I 922 W/m 13,0 C 23,2 C 19,3 km/h (3 Bft) 97,73 %
28.05.2017 13:30 24,8 C 23,3 C 48 % 1019,0 hPa 0,0 l/m 15,3 km/h (3 Bft) NO 47 2 min 0,000 mm 6,6 UV-I 923 W/m 13,0 C 23,0 C 22,5 km/h (4 Bft) 100,00 %
28.05.2017 13:32 24,8 C 23,3 C 47 % 1019,1 hPa 0,0 l/m 11,9 km/h (2 Bft) NO 47 2 min 0,000 mm 6,5 UV-I 919 W/m 12,7 C 23,6 C 22,5 km/h (4 Bft) 98,08 %
28.05.2017 13:34 24,9 C 23,3 C 47 % 1019,0 hPa 0,0 l/m 14,2 km/h (3 Bft) NO 34 2 min 0,000 mm 6,6 UV-I 921 W/m 12,8 C 23,3 C 22,5 km/h (4 Bft) 98,21 %
28.05.2017 13:36 24,9 C 23,3 C 46 % 1019,0 hPa 0,0 l/m 14,9 km/h (3 Bft) O-NO 66 2 min 0,000 mm 6,5 UV-I 919 W/m 12,5 C 23,2 C 20,9 km/h (4 Bft) 93,62 %
28.05.2017 13:38 24,9 C 23,3 C 43 % 1019,0 hPa 0,0 l/m 16,8 km/h (3 Bft) O-NO 78 2 min 0,000 mm 6,5 UV-I 921 W/m 11,4 C 22,9 C 20,9 km/h (4 Bft) 97,22 %
28.05.2017 13:40 24,9 C 23,3 C 42 % 1019,0 hPa 0,0 l/m 15,9 km/h (3 Bft) O-NO 76 2 min 0,000 mm 6,5 UV-I 921 W/m 11,1 C 23,1 C 20,9 km/h (4 Bft) 98,21 %
28.05.2017 13:42 24,9 C 23,3 C 44 % 1019,0 hPa 0,0 l/m 13,6 km/h (3 Bft) O-NO 57 2 min 0,000 mm 6,5 UV-I 919 W/m 11,8 C 23,4 C 19,3 km/h (3 Bft) 97,73 %
28.05.2017 13:44 24,9 C 23,3 C 42 % 1019,0 hPa 0,0 l/m 14,8 km/h (3 Bft) O-NO 59 2 min 0,000 mm 6,5 UV-I 918 W/m 11,1 C 23,2 C 19,3 km/h (3 Bft) 100,00 %
28.05.2017 13:46 24,8 C 23,3 C 41 % 1019,0 hPa 0,0 l/m 13,5 km/h (3 Bft) O-NO 63 2 min 0,000 mm 6,4 UV-I 915 W/m 10,6 C 23,3 C 20,9 km/h (4 Bft) 93,18 %
28.05.2017 13:48 24,9 C 23,3 C 42 % 1018,9 hPa 0,0 l/m 15,8 km/h (3 Bft) O-NO 63 2 min 0,000 mm 6,4 UV-I 913 W/m 11,1 C 23,1 C 22,5 km/h (4 Bft) 100,00 %
28.05.2017 13:50 24,9 C 23,3 C 41 % 1018,8 hPa 0,0 l/m 12,3 km/h (3 Bft) N-NO 32 2 min 0,000 mm 6,4 UV-I 914 W/m 10,7 C 23,6 C 17,7 km/h (3 Bft) 100,00 %
28.05.2017 13:52 24,9 C 23,3 C 44 % 1018,8 hPa 0,0 l/m 11,5 km/h (2 Bft) NO 48 2 min 0,000 mm 6,4 UV-I 912 W/m 11,8 C 23,8 C 17,7 km/h (3 Bft) 100,00 %
28.05.2017 13:54 25,1 C 23,3 C 44 % 1018,8 hPa 0,0 l/m 10,7 km/h (2 Bft) NO 56 2 min 0,000 mm 6,4 UV-I 910 W/m 12,0 C 24,1 C 14,5 km/h (3 Bft) 100,00 %
28.05.2017 13:56 25,1 C 23,3 C 47 % 1018,8 hPa 0,0 l/m 13,8 km/h (3 Bft) NO 40 2 min 0,000 mm 6,3 UV-I 905 W/m 13,0 C 23,6 C 19,3 km/h (3 Bft) 98,00 %
28.05.2017 13:58 25,1 C 23,3 C 39 % 1018,8 hPa 0,0 l/m 14,1 km/h (3 Bft) O-NO 71 2 min 0,000 mm 6,3 UV-I 908 W/m 10,2 C 23,6 C 24,1 km/h (4 Bft) 100,00 %
28.05.2017 14:00 25,1 C 23,3 C 39 % 1018,7 hPa 0,0 l/m 13,9 km/h (3 Bft) O-NO 77 2 min 0,000 mm 6,3 UV-I 908 W/m 10,2 C 23,6 C 20,9 km/h (4 Bft) 100,00 %
28.05.2017 14:02 25,1 C 23,3 C 43 % 1018,7 hPa 0,0 l/m 14,4 km/h (3 Bft) O 82 2 min 0,686 mm 6,3 UV-I 904 W/m 11,6 C 23,5 C 20,9 km/h (4 Bft) 94,74 %
28.05.2017 14:04 25,1 C 23,3 C 41 % 1018,8 hPa 0,0 l/m 17,2 km/h (3 Bft) NO 43 2 min 0,000 mm 6,2 UV-I 903 W/m 10,9 C 23,1 C 22,5 km/h (4 Bft) 100,00 %
28.05.2017 14:06 25,2 C 23,3 C 38 % 1018,7 hPa 0,0 l/m 15,4 km/h (3 Bft) O-NO 71 2 min 0,000 mm 6,2 UV-I 903 W/m 9,9 C 23,5 C 22,5 km/h (4 Bft) 100,00 %
28.05.2017 14:08 25,2 C 23,3 C 41 % 1018,7 hPa 0,0 l/m 14,0 km/h (3 Bft) O-NO 60 2 min 0,000 mm 6,2 UV-I 902 W/m 11,0 C 23,7 C 20,9 km/h (4 Bft) 98,21 %
28.05.2017 14:10 25,2 C 23,3 C 39 % 1018,7 hPa 0,0 l/m 14,5 km/h (3 Bft) NO 56 2 min 0,000 mm 6,2 UV-I 900 W/m 10,2 C 23,6 C 19,3 km/h (3 Bft) 100,00 %
28.05.2017 14:12 25,2 C 23,3 C 38 % 1018,7 hPa 0,0 l/m 11,8 km/h (2 Bft) NO 38 2 min 0,000 mm 6,1 UV-I 895 W/m 9,9 C 24,1 C 20,9 km/h (4 Bft) 100,00 %
28.05.2017 14:14 25,3 C 23,3 C 40 % 1018,7 hPa 0,0 l/m 13,2 km/h (3 Bft) O-NO 58 2 min 0,000 mm 6,1 UV-I 893 W/m 10,7 C 23,9 C 16,1 km/h (3 Bft) 100,00 %
28.05.2017 14:16 25,3 C 23,3 C 43 % 1018,8 hPa 0,0 l/m 7,6 km/h (2 Bft) NO 34 2 min 0,000 mm 6,1 UV-I 892 W/m 11,8 C 25,0 C 12,9 km/h (3 Bft) 100,00 %
28.05.2017 14:18 25,3 C 23,3 C 39 % 1018,7 hPa 0,0 l/m 10,0 km/h (2 Bft) O-NO 73 2 min 0,000 mm 6,0 UV-I 889 W/m 10,3 C 24,5 C 14,5 km/h (3 Bft) 100,00 %
28.05.2017 14:20 25,4 C 23,3 C 41 % 1018,8 hPa 0,0 l/m 8,5 km/h (2 Bft) O-NO 76 2 min 0,000 mm 6,0 UV-I 888 W/m 11,2 C 24,9 C 14,5 km/h (3 Bft) 100,00 %
28.05.2017 14:22 25,4 C 23,3 C 40 % 1018,7 hPa 0,0 l/m 12,1 km/h (2 Bft) NO 48 2 min 0,000 mm 6,0 UV-I 885 W/m 10,8 C 24,2 C 16,1 km/h (3 Bft) 100,00 %
28.05.2017 14:24 25,4 C 23,3 C 42 % 1018,7 hPa 0,0 l/m 12,0 km/h (2 Bft) N-NO 28 2 min 0,000 mm 5,9 UV-I 880 W/m 11,5 C 24,2 C 17,7 km/h (3 Bft) 100,00 %
28.05.2017 14:26 25,3 C 23,3 C 43 % 1018,6 hPa 0,0 l/m 12,6 km/h (3 Bft) NO 36 2 min 0,000 mm 5,9 UV-I 878 W/m 11,8 C 24,0 C 20,9 km/h (4 Bft) 98,00 %
28.05.2017 14:28 25,3 C 23,3 C 38 % 1018,6 hPa 0,0 l/m 13,4 km/h (3 Bft) O-NO 71 2 min 0,000 mm 5,9 UV-I 875 W/m 9,9 C 23,9 C 19,3 km/h (3 Bft) 100,00 %
28.05.2017 14:30 25,5 C 23,3 C 40 % 1018,6 hPa 0,0 l/m 13,2 km/h (3 Bft) N-NO 32 2 min 0,000 mm 5,8 UV-I 875 W/m 10,9 C 24,2 C 17,7 km/h (3 Bft) 100,00 %
28.05.2017 14:32 25,6 C 23,3 C 40 % 1018,6 hPa 0,0 l/m 12,4 km/h (3 Bft) NO 40 2 min 0,000 mm 5,8 UV-I 871 W/m 11,0 C 24,4 C 20,9 km/h (4 Bft) 97,56 %
28.05.2017 14:34 25,6 C 23,3 C 39 % 1018,6 hPa 0,0 l/m 10,0 km/h (2 Bft) N-NO 16 2 min 0,000 mm 5,8 UV-I 869 W/m 10,6 C 24,8 C 14,5 km/h (3 Bft) 100,00 %
28.05.2017 14:36 25,7 C 23,3 C 37 % 1018,5 hPa 0,0 l/m 9,6 km/h (2 Bft) O-NO 72 2 min 0,000 mm 5,7 UV-I 867 W/m 9,9 C 25,0 C 14,5 km/h (3 Bft) 97,06 %
28.05.2017 14:38 25,7 C 23,3 C 37 % 1018,5 hPa 0,0 l/m 16,0 km/h (3 Bft) NO 44 2 min 0,000 mm 5,7 UV-I 865 W/m 9,9 C 24,0 C 24,1 km/h (4 Bft) 97,73 %
28.05.2017 14:40 25,7 C 23,3 C 38 % 1018,5 hPa 0,0 l/m 13,5 km/h (3 Bft) NO 46 2 min 0,000 mm 5,7 UV-I 862 W/m 10,3 C 24,4 C 17,7 km/h (3 Bft) 98,21 %
28.05.2017 14:42 25,7 C 23,3 C 36 % 1018,6 hPa 0,0 l/m 12,5 km/h (3 Bft) O 86 2 min 0,000 mm 5,6 UV-I 860 W/m 9,5 C 24,5 C 17,7 km/h (3 Bft) 97,73 %
28.05.2017 14:44 25,8 C 23,3 C 38 % 1018,5 hPa 0,0 l/m 11,6 km/h (2 Bft) O-NO 58 2 min 0,000 mm 5,6 UV-I 856 W/m 10,4 C 24,8 C 17,7 km/h (3 Bft) 97,37 %
28.05.2017 14:46 25,8 C 23,3 C 39 % 1018,5 hPa 0,0 l/m 7,7 km/h (2 Bft) NO 41 2 min 0,000 mm 5,5 UV-I 852 W/m 10,8 C 25,5 C 11,3 km/h (2 Bft) 96,00 %
28.05.2017 14:48 25,8 C 23,3 C 40 % 1018,5 hPa 0,0 l/m 13,0 km/h (3 Bft) NO 51 2 min 0,000 mm 5,5 UV-I 848 W/m 11,2 C 24,6 C 19,3 km/h (3 Bft) 95,74 %
28.05.2017 14:50 25,9 C 23,9 C 40 % 1018,4 hPa 0,0 l/m 9,7 km/h (2 Bft) O-NO 62 2 min 0,000 mm 5,4 UV-I 844 W/m 11,3 C 25,2 C 14,5 km/h (3 Bft) 97,87 %
28.05.2017 14:52 25,9 C 23,9 C 37 % 1018,4 hPa 0,0 l/m 15,6 km/h (3 Bft) O-NO 58 2 min 0,000 mm 5,4 UV-I 841 W/m 10,1 C 24,3 C 24,1 km/h (4 Bft) 97,44 %
28.05.2017 14:54 25,9 C 23,9 C 38 % 1018,4 hPa 0,0 l/m 16,0 km/h (3 Bft) O-NO 63 2 min 0,000 mm 5,4 UV-I 840 W/m 10,5 C 24,3 C 22,5 km/h (4 Bft) 98,28 %
28.05.2017 14:56 25,8 C 23,9 C 40 % 1018,4 hPa 0,0 l/m 11,1 km/h (2 Bft) NO 36 2 min 0,000 mm 5,3 UV-I 837 W/m 11,2 C 24,9 C 17,7 km/h (3 Bft) 97,62 %
28.05.2017 14:58 25,8 C 23,9 C 40 % 1018,4 hPa 0,0 l/m 11,1 km/h (2 Bft) O 79 2 min 0,000 mm 5,3 UV-I 835 W/m 11,2 C 24,9 C 17,7 km/h (3 Bft) 98,18 %
28.05.2017 15:00 25,9 C 23,9 C 43 % 1018,3 hPa 0,0 l/m 8,6 km/h (2 Bft) O-SO 109 2 min 0,660 mm 5,2 UV-I 830 W/m 12,3 C 25,4 C 12,9 km/h (3 Bft) 97,44 %
28.05.2017 15:02 26,2 C 23,9 C 37 % 1018,3 hPa 0,0 l/m 11,4 km/h (2 Bft) NO 53 2 min 0,000 mm 5,2 UV-I 827 W/m 10,3 C 25,3 C 17,7 km/h (3 Bft) 94,64 %
28.05.2017 15:04 26,1 C 23,9 C 36 % 1018,3 hPa 0,0 l/m 15,6 km/h (3 Bft) O-NO 63 2 min 0,000 mm 5,1 UV-I 825 W/m 9,8 C 24,6 C 22,5 km/h (4 Bft) 97,37 %
28.05.2017 15:06 26,0 C 23,9 C 34 % 1018,3 hPa 0,0 l/m 16,3 km/h (3 Bft) NO 40 2 min 0,000 mm 5,1 UV-I 823 W/m 8,9 C 24,4 C 22,5 km/h (4 Bft) 97,73 %
28.05.2017 15:08 25,9 C 23,9 C 36 % 1018,3 hPa 0,0 l/m 14,6 km/h (3 Bft) O 82 2 min 0,000 mm 5,0 UV-I 818 W/m 9,7 C 24,5 C 20,9 km/h (4 Bft) 98,11 %
28.05.2017 15:10 25,9 C 23,9 C 38 % 1018,2 hPa 0,0 l/m 13,8 km/h (3 Bft) O-NO 78 2 min 0,000 mm 5,0 UV-I 814 W/m 10,5 C 24,6 C 19,3 km/h (3 Bft) 98,11 %
28.05.2017 15:12 26,1 C 23,9 C 38 % 1018,3 hPa 0,0 l/m 12,7 km/h (3 Bft) O-NO 78 2 min 0,000 mm 5,0 UV-I 813 W/m 10,7 C 25,0 C 17,7 km/h (3 Bft) 95,45 %
28.05.2017 15:14 26,1 C 23,9 C 39 % 1018,2 hPa 0,0 l/m 13,8 km/h (3 Bft) O-NO 67 2 min 0,000 mm 4,9 UV-I 808 W/m 11,0 C 24,8 C 19,3 km/h (3 Bft) 97,87 %
28.05.2017 15:16 26,1 C 23,9 C 35 % 1018,2 hPa 0,0 l/m 14,0 km/h (3 Bft) O-NO 62 2 min 0,000 mm 4,9 UV-I 802 W/m 9,4 C 24,8 C 20,9 km/h (4 Bft) 100,00 %
28.05.2017 15:18 26,1 C 23,9 C 35 % 1018,2 hPa 0,0 l/m 15,0 km/h (3 Bft) O 81 2 min 0,000 mm 4,8 UV-I 801 W/m 9,4 C 24,6 C 22,5 km/h (4 Bft) 100,00 %
28.05.2017 15:20 25,9 C 23,9 C 36 % 1018,2 hPa 0,0 l/m 14,9 km/h (3 Bft) O-SO 110 2 min 0,000 mm 4,8 UV-I 796 W/m 9,7 C 24,4 C 19,3 km/h (3 Bft) 98,21 %
28.05.2017 15:22 25,9 C 23,9 C 36 % 1018,2 hPa 0,0 l/m 10,5 km/h (2 Bft) NO 52 2 min 0,000 mm 4,7 UV-I 796 W/m 9,7 C 25,1 C 16,1 km/h (3 Bft) 100,00 %
28.05.2017 15:24 25,9 C 23,9 C 36 % 1018,1 hPa 0,0 l/m 13,3 km/h (3 Bft) O-NO 69 2 min 0,000 mm 4,7 UV-I 790 W/m 9,7 C 24,6 C 17,7 km/h (3 Bft) 100,00 %
28.05.2017 15:26 26,1 C 23,9 C 39 % 1018,1 hPa 0,0 l/m 13,6 km/h (3 Bft) NO 52 2 min 0,000 mm 4,6 UV-I 784 W/m 11,0 C 24,8 C 20,9 km/h (4 Bft) 100,00 %
28.05.2017 15:28 26,1 C 23,9 C 40 % 1018,1 hPa 0,0 l/m 8,6 km/h (2 Bft) O-NO 67 2 min 0,000 mm 4,6 UV-I 779 W/m 11,4 C 25,6 C 14,5 km/h (3 Bft) 96,23 %
28.05.2017 15:30 26,2 C 23,9 C 41 % 1018,1 hPa 0,0 l/m 8,2 km/h (2 Bft) N 11 2 min 0,000 mm 4,5 UV-I 774 W/m 11,9 C 25,8 C 14,5 km/h (3 Bft) 97,37 %
28.05.2017 15:32 26,3 C 23,9 C 38 % 1018,2 hPa 0,0 l/m 9,7 km/h (2 Bft) O-NO 58 2 min 0,000 mm 4,4 UV-I 768 W/m 10,8 C 25,7 C 14,5 km/h (3 Bft) 95,83 %
28.05.2017 15:34 26,3 C 23,9 C 38 % 1018,2 hPa 0,0 l/m 9,9 km/h (2 Bft) N-NO 23 2 min 0,000 mm 4,4 UV-I 762 W/m 10,8 C 25,6 C 14,5 km/h (3 Bft) 96,15 %
28.05.2017 15:36 26,3 C 23,9 C 43 % 1018,2 hPa 0,0 l/m 8,2 km/h (2 Bft) NO 48 2 min 0,000 mm 4,3 UV-I 757 W/m 12,7 C 25,9 C 14,5 km/h (3 Bft) 98,00 %
28.05.2017 15:38 26,3 C 23,9 C 43 % 1018,2 hPa 0,0 l/m 7,2 km/h (2 Bft) NO 49 2 min 0,000 mm 4,3 UV-I 755 W/m 12,7 C 26,1 C 12,9 km/h (3 Bft) 97,44 %
28.05.2017 15:40 26,3 C 23,9 C 36 % 1018,1 hPa 0,0 l/m 9,1 km/h (2 Bft) O-NO 65 2 min 0,000 mm 4,3 UV-I 753 W/m 10,0 C 25,8 C 14,5 km/h (3 Bft) 98,21 %
28.05.2017 15:42 26,3 C 23,9 C 38 % 1018,1 hPa 0,0 l/m 10,6 km/h (2 Bft) O-NO 71 2 min 0,000 mm 4,2 UV-I 750 W/m 10,8 C 25,5 C 14,5 km/h (3 Bft) 100,00 %
28.05.2017 15:44 26,4 C 23,9 C 41 % 1018,1 hPa 0,0 l/m 9,6 km/h (2 Bft) N-NO 26 2 min 0,000 mm 4,2 UV-I 745 W/m 12,1 C 25,8 C 16,1 km/h (3 Bft) 98,00 %
28.05.2017 15:46 26,5 C 23,9 C 38 % 1018,0 hPa 0,0 l/m 13,6 km/h (3 Bft) O-NO 73 2 min 0,000 mm 4,1 UV-I 742 W/m 11,0 C 25,3 C 20,9 km/h (4 Bft) 100,00 %
28.05.2017 15:48 26,5 C 23,9 C 34 % 1018,0 hPa 0,0 l/m 14,3 km/h (3 Bft) NO 50 2 min 0,000 mm 4,1 UV-I 738 W/m 9,3 C 25,2 C 20,9 km/h (4 Bft) 100,00 %
28.05.2017 15:50 26,5 C 23,9 C 35 % 1018,0 hPa 0,0 l/m 12,5 km/h (3 Bft) NO 36 2 min 0,000 mm 4,0 UV-I 736 W/m 9,8 C 25,4 C 17,7 km/h (3 Bft) 100,00 %
28.05.2017 15:52 26,4 C 23,9 C 38 % 1018,0 hPa 0,0 l/m 11,0 km/h (2 Bft) NO 49 2 min 0,000 mm 4,0 UV-I 734 W/m 10,9 C 25,5 C 19,3 km/h (3 Bft) 98,11 %
28.05.2017 15:54 26,3 C 23,9 C 39 % 1017,9 hPa 0,0 l/m 16,1 km/h (3 Bft) O-NO 68 2 min 0,000 mm 3,9 UV-I 724 W/m 11,2 C 24,8 C 24,1 km/h (4 Bft) 97,56 %
28.05.2017 15:56 26,2 C 23,9 C 34 % 1017,9 hPa 0,0 l/m 15,2 km/h (3 Bft) O-NO 76 2 min 0,000 mm 3,9 UV-I 719 W/m 9,1 C 24,7 C 20,9 km/h (4 Bft) 95,45 %
28.05.2017 15:58 26,3 C 23,9 C 36 % 1017,9 hPa 0,0 l/m 11,5 km/h (2 Bft) O-NO 69 2 min 0,000 mm 3,8 UV-I 715 W/m 10,0 C 25,4 C 17,7 km/h (3 Bft) 100,00 %
28.05.2017 16:00 26,3 C 23,9 C 37 % 1017,9 hPa 0,0 l/m 13,9 km/h (3 Bft) O-NO 61 2 min 0,000 mm 3,8 UV-I 712 W/m 10,4 C 25,0 C 19,3 km/h (3 Bft) 100,00 %
28.05.2017 16:02 26,3 C 23,9 C 34 % 1017,9 hPa 0,0 l/m 15,2 km/h (3 Bft) O-NO 65 2 min 0,610 mm 3,7 UV-I 706 W/m 9,2 C 24,9 C 22,5 km/h (4 Bft) 100,00 %
28.05.2017 16:04 26,4 C 23,9 C 35 % 1017,9 hPa 0,0 l/m 16,7 km/h (3 Bft) O-NO 69 2 min 0,000 mm 3,7 UV-I 703 W/m 9,7 C 24,8 C 24,1 km/h (4 Bft) 100,00 %
28.05.2017 16:06 26,3 C 23,9 C 33 % 1017,9 hPa 0,0 l/m 14,5 km/h (3 Bft) NO 42 2 min 0,000 mm 3,6 UV-I 700 W/m 8,7 C 24,9 C 22,5 km/h (4 Bft) 100,00 %
28.05.2017 16:08 26,3 C 23,9 C 35 % 1017,9 hPa 0,0 l/m 13,3 km/h (3 Bft) O-NO 60 2 min 0,000 mm 3,6 UV-I 699 W/m 9,6 C 25,1 C 19,3 km/h (3 Bft) 97,62 %
28.05.2017 16:10 26,3 C 23,9 C 35 % 1017,9 hPa 0,0 l/m 10,5 km/h (2 Bft) NO 55 2 min 0,000 mm 3,6 UV-I 693 W/m 9,6 C 25,5 C 14,5 km/h (3 Bft) 96,36 %
28.05.2017 16:12 26,4 C 23,9 C 37 % 1017,9 hPa 0,0 l/m 8,8 km/h (2 Bft) O 96 2 min 0,000 mm 3,5 UV-I 687 W/m 10,5 C 25,9 C 14,5 km/h (3 Bft) 94,00 %
28.05.2017 16:14 26,5 C 23,9 C 38 % 1017,8 hPa 0,0 l/m 9,8 km/h (2 Bft) O 88 2 min 0,000 mm 3,4 UV-I 681 W/m 11,0 C 25,9 C 14,5 km/h (3 Bft) 97,44 %
28.05.2017 16:16 26,5 C 23,9 C 35 % 1017,8 hPa 0,0 l/m 11,8 km/h (2 Bft) O-NO 78 2 min 0,000 mm 3,4 UV-I 677 W/m 9,8 C 25,5 C 17,7 km/h (3 Bft) 97,37 %
28.05.2017 16:18 26,4 C 23,9 C 35 % 1017,7 hPa 0,0 l/m 11,1 km/h (2 Bft) O 87 2 min 0,000 mm 3,3 UV-I 672 W/m 9,7 C 25,5 C 17,7 km/h (3 Bft) 96,23 %
28.05.2017 16:20 26,5 C 23,9 C 38 % 1017,8 hPa 0,0 l/m 9,9 km/h (2 Bft) O 91 2 min 0,000 mm 3,3 UV-I 666 W/m 11,0 C 25,8 C 14,5 km/h (3 Bft) 94,64 %
28.05.2017 16:22 26,6 C 23,9 C 37 % 1017,7 hPa 0,0 l/m 13,9 km/h (3 Bft) O 90 2 min 0,000 mm 3,2 UV-I 660 W/m 10,7 C 25,4 C 22,5 km/h (4 Bft) 98,00 %
28.05.2017 16:24 26,6 C 23,9 C 37 % 1017,7 hPa 0,0 l/m 15,9 km/h (3 Bft) O-NO 77 2 min 0,000 mm 3,2 UV-I 654 W/m 10,7 C 25,1 C 20,9 km/h (4 Bft) 95,12 %
28.05.2017 16:26 26,6 C 23,9 C 36 % 1017,7 hPa 0,0 l/m 11,5 km/h (2 Bft) O-NO 70 2 min 0,000 mm 3,1 UV-I 647 W/m 10,3 C 25,7 C 16,1 km/h (3 Bft) 95,45 %
28.05.2017 16:28 26,6 C 23,9 C 35 % 1017,7 hPa 0,0 l/m 11,0 km/h (2 Bft) NO 51 2 min 0,000 mm 3,1 UV-I 643 W/m 9,9 C 25,8 C 16,1 km/h (3 Bft) 94,64 %
28.05.2017 16:30 26,6 C 23,9 C 34 % 1017,7 hPa 0,0 l/m 11,5 km/h (2 Bft) NO 51 2 min 0,000 mm 3,0 UV-I 638 W/m 9,4 C 25,7 C 20,9 km/h (4 Bft) 95,12 %
28.05.2017 16:32 26,6 C 23,9 C 33 % 1017,7 hPa 0,0 l/m 15,6 km/h (3 Bft) O-NO 57 2 min 0,000 mm 3,0 UV-I 633 W/m 9,0 C 25,2 C 20,9 km/h (4 Bft) 93,62 %
28.05.2017 16:34 26,6 C 23,9 C 35 % 1017,8 hPa 0,0 l/m 10,4 km/h (2 Bft) O-NO 69 2 min 0,000 mm 3,0 UV-I 629 W/m 9,9 C 25,9 C 16,1 km/h (3 Bft) 96,23 %
28.05.2017 16:36 26,6 C 23,9 C 37 % 1017,7 hPa 0,0 l/m 13,2 km/h (3 Bft) NO 53 2 min 0,000 mm 2,9 UV-I 624 W/m 10,7 C 25,5 C 22,5 km/h (4 Bft) 94,74 %
28.05.2017 16:38 26,6 C 23,9 C 35 % 1017,7 hPa 0,0 l/m 10,9 km/h (2 Bft) NO 43 2 min 0,000 mm 2,9 UV-I 618 W/m 9,9 C 25,8 C 14,5 km/h (3 Bft) 96,23 %
28.05.2017 16:40 26,6 C 23,9 C 36 % 1017,7 hPa 0,0 l/m 9,9 km/h (2 Bft) O 84 2 min 0,000 mm 2,8 UV-I 607 W/m 10,3 C 25,9 C 14,5 km/h (3 Bft) 95,45 %
28.05.2017 16:42 26,6 C 23,9 C 34 % 1017,6 hPa 0,0 l/m 11,8 km/h (2 Bft) O-NO 67 2 min 0,000 mm 2,8 UV-I 609 W/m 9,4 C 25,7 C 16,1 km/h (3 Bft) 92,45 %
28.05.2017 16:44 26,6 C 23,9 C 37 % 1017,6 hPa 0,0 l/m 8,7 km/h (2 Bft) O-NO 71 2 min 0,000 mm 2,7 UV-I 604 W/m 10,7 C 26,2 C 12,9 km/h (3 Bft) 95,12 %
28.05.2017 16:46 26,6 C 23,9 C 38 % 1017,6 hPa 0,0 l/m 11,9 km/h (2 Bft) O 82 2 min 0,000 mm 2,7 UV-I 597 W/m 11,1 C 25,6 C 16,1 km/h (3 Bft) 95,74 %
28.05.2017 16:48 26,6 C 23,9 C 36 % 1017,7 hPa 0,0 l/m 13,9 km/h (3 Bft) O-NO 61 2 min 0,000 mm 2,6 UV-I 592 W/m 10,3 C 25,4 C 19,3 km/h (3 Bft) 93,62 %
28.05.2017 16:50 26,6 C 23,9 C 38 % 1017,6 hPa 0,0 l/m 13,3 km/h (3 Bft) O 84 2 min 0,000 mm 2,6 UV-I 587 W/m 11,1 C 25,5 C 20,9 km/h (4 Bft) 94,87 %
28.05.2017 16:52 26,6 C 23,9 C 36 % 1017,6 hPa 0,0 l/m 11,5 km/h (2 Bft) O 82 2 min 0,000 mm 2,5 UV-I 585 W/m 10,3 C 25,7 C 16,1 km/h (3 Bft) 92,73 %
28.05.2017 16:54 26,6 C 23,9 C 37 % 1017,6 hPa 0,0 l/m 9,5 km/h (2 Bft) O-NO 57 2 min 0,000 mm 2,5 UV-I 580 W/m 10,7 C 26,0 C 17,7 km/h (3 Bft) 97,62 %
28.05.2017 16:56 26,5 C 23,9 C 33 % 1017,6 hPa 0,0 l/m 13,2 km/h (3 Bft) O-NO 74 2 min 0,000 mm 2,4 UV-I 575 W/m 8,9 C 25,4 C 17,7 km/h (3 Bft) 93,62 %
28.05.2017 16:58 26,5 C 23,9 C 35 % 1017,6 hPa 0,0 l/m 12,4 km/h (3 Bft) NO 48 2 min 0,000 mm 2,4 UV-I 567 W/m 9,8 C 25,5 C 20,9 km/h (4 Bft) 96,23 %
28.05.2017 17:00 26,5 C 23,9 C 34 % 1017,6 hPa 0,0 l/m 11,7 km/h (2 Bft) NO 52 2 min 0,533 mm 2,3 UV-I 561 W/m 9,3 C 25,6 C 19,3 km/h (3 Bft) 92,68 %
28.05.2017 17:02 26,5 C 23,9 C 33 % 1017,5 hPa 0,0 l/m 8,0 km/h (2 Bft) NO 55 2 min 0,000 mm 2,3 UV-I 555 W/m 8,9 C 26,2 C 14,5 km/h (3 Bft) 96,00 %
28.05.2017 17:04 26,5 C 23,9 C 33 % 1017,6 hPa 0,0 l/m 13,0 km/h (3 Bft) O 92 2 min 0,000 mm 2,3 UV-I 551 W/m 8,9 C 25,4 C 19,3 km/h (3 Bft) 95,45 %
28.05.2017 17:06 26,5 C 23,9 C 31 % 1017,5 hPa 0,0 l/m 10,2 km/h (2 Bft) O-NO 65 2 min 0,000 mm 2,2 UV-I 545 W/m 8,0 C 25,8 C 16,1 km/h (3 Bft) 96,23 %
28.05.2017 17:08 26,6 C 23,9 C 32 % 1017,5 hPa 0,0 l/m 11,3 km/h (2 Bft) O 85 2 min 0,000 mm 2,2 UV-I 540 W/m 8,5 C 25,7 C 16,1 km/h (3 Bft) 95,12 %
28.05.2017 17:10 26,7 C 23,9 C 36 % 1017,4 hPa 0,0 l/m 7,9 km/h (2 Bft) NO 55 2 min 0,000 mm 2,1 UV-I 534 W/m 10,4 C 26,4 C 14,5 km/h (3 Bft) 96,23 %
28.05.2017 17:12 26,7 C 23,9 C 33 % 1017,5 hPa 0,0 l/m 8,8 km/h (2 Bft) O-NO 66 2 min 0,000 mm 2,1 UV-I 529 W/m 9,1 C 26,2 C 14,5 km/h (3 Bft) 94,74 %
28.05.2017 17:14 26,7 C 23,9 C 37 % 1017,5 hPa 0,0 l/m 7,8 km/h (2 Bft) O-NO 78 2 min 0,000 mm 2,1 UV-I 523 W/m 10,8 C 26,4 C 14,5 km/h (3 Bft) 98,00 %
28.05.2017 17:16 26,7 C 23,9 C 33 % 1017,4 hPa 0,0 l/m 8,7 km/h (2 Bft) O-NO 65 2 min 0,000 mm 2,0 UV-I 518 W/m 9,1 C 26,3 C 16,1 km/h (3 Bft) 100,00 %
28.05.2017 17:18 26,7 C 23,9 C 32 % 1017,4 hPa 0,0 l/m 12,9 km/h (3 Bft) O-NO 78 2 min 0,000 mm 2,0 UV-I 512 W/m 8,6 C 25,6 C 17,7 km/h (3 Bft) 98,31 %
28.05.2017 17:20 26,6 C 23,9 C 32 % 1017,4 hPa 0,0 l/m 16,5 km/h (3 Bft) O-NO 64 2 min 0,000 mm 1,9 UV-I 506 W/m 8,5 C 25,1 C 22,5 km/h (4 Bft) 100,00 %
28.05.2017 17:22 26,6 C 23,9 C 33 % 1017,4 hPa 0,0 l/m 16,8 km/h (3 Bft) NO 56 2 min 0,000 mm 1,9 UV-I 501 W/m 9,0 C 25,0 C 19,3 km/h (3 Bft) 98,00 %
28.05.2017 17:24 26,5 C 23,9 C 35 % 1017,3 hPa 0,0 l/m 8,5 km/h (2 Bft) O-NO 74 2 min 0,000 mm 1,9 UV-I 495 W/m 9,8 C 26,1 C 14,5 km/h (3 Bft) 100,00 %
28.05.2017 17:26 26,6 C 23,9 C 33 % 1017,3 hPa 0,0 l/m 9,6 km/h (2 Bft) O-NO 67 2 min 0,000 mm 1,8 UV-I 489 W/m 9,0 C 26,0 C 12,9 km/h (3 Bft) 100,00 %
28.05.2017 17:28 26,6 C 23,9 C 33 % 1017,3 hPa 0,0 l/m 8,7 km/h (2 Bft) O 84 2 min 0,000 mm 1,8 UV-I 483 W/m 9,0 C 26,2 C 12,9 km/h (3 Bft) 100,00 %
28.05.2017 17:30 26,6 C 23,9 C 34 % 1017,3 hPa 0,0 l/m 13,5 km/h (3 Bft) O-NO 77 2 min 0,000 mm 1,7 UV-I 476 W/m 9,4 C 25,4 C 20,9 km/h (4 Bft) 98,57 %
28.05.2017 17:32 26,6 C 23,9 C 32 % 1017,3 hPa 0,0 l/m 14,4 km/h (3 Bft) O-NO 57 2 min 0,000 mm 1,7 UV-I 472 W/m 8,5 C 25,3 C 17,7 km/h (3 Bft) 97,62 %
28.05.2017 17:34 26,5 C 23,9 C 35 % 1017,2 hPa 0,0 l/m 9,7 km/h (2 Bft) O-NO 78 2 min 0,000 mm 1,6 UV-I 465 W/m 9,8 C 25,9 C 16,1 km/h (3 Bft) 98,11 %
28.05.2017 17:36 26,6 C 23,9 C 36 % 1017,2 hPa 0,0 l/m 7,4 km/h (2 Bft) O-NO 62 2 min 0,000 mm 1,6 UV-I 461 W/m 10,3 C 26,4 C 12,9 km/h (3 Bft) 100,00 %
28.05.2017 17:38 26,5 C 23,9 C 36 % 1017,2 hPa 0,0 l/m 7,9 km/h (2 Bft) O-NO 76 2 min 0,000 mm 1,6 UV-I 455 W/m 10,2 C 26,2 C 14,5 km/h (3 Bft) 100,00 %
28.05.2017 17:40 26,5 C 23,9 C 34 % 1017,2 hPa 0,0 l/m 13,9 km/h (3 Bft) O-NO 57 2 min 0,000 mm 1,5 UV-I 449 W/m 9,3 C 25,3 C 20,9 km/h (4 Bft) 100,00 %
28.05.2017 17:42 26,4 C 23,9 C 36 % 1017,1 hPa 0,0 l/m 9,5 km/h (2 Bft) O 89 2 min 0,000 mm 1,5 UV-I 441 W/m 10,1 C 25,8 C 14,5 km/h (3 Bft) 100,00 %
28.05.2017 17:44 26,4 C 23,9 C 35 % 1017,2 hPa 0,0 l/m 11,1 km/h (2 Bft) O 82 2 min 0,000 mm 1,5 UV-I 434 W/m 9,7 C 25,5 C 19,3 km/h (3 Bft) 100,00 %
28.05.2017 17:46 26,4 C 23,9 C 35 % 1017,1 hPa 0,0 l/m 13,4 km/h (3 Bft) O-NO 61 2 min 0,000 mm 1,4 UV-I 429 W/m 9,7 C 25,2 C 19,3 km/h (3 Bft) 94,83 %
28.05.2017 17:48 26,4 C 23,9 C 35 % 1017,1 hPa 0,0 l/m 8,8 km/h (2 Bft) NO 44 2 min 0,000 mm 1,4 UV-I 423 W/m 9,7 C 25,9 C 14,5 km/h (3 Bft) 100,00 %
28.05.2017 17:50 26,4 C 23,9 C 36 % 1017,1 hPa 0,0 l/m 8,2 km/h (2 Bft) O 82 2 min 0,000 mm 1,4 UV-I 418 W/m 10,1 C 26,0 C 16,1 km/h (3 Bft) 100,00 %
28.05.2017 17:52 26,3 C 24,4 C 35 % 1017,0 hPa 0,0 l/m 9,9 km/h (2 Bft) O-NO 75 2 min 0,000 mm 1,3 UV-I 411 W/m 9,6 C 25,6 C 16,1 km/h (3 Bft) 100,00 %
28.05.2017 17:54 26,3 C 24,4 C 35 % 1017,0 hPa 0,0 l/m 9,1 km/h (2 Bft) O-NO 66 2 min 0,000 mm 1,3 UV-I 405 W/m 9,6 C 25,8 C 16,1 km/h (3 Bft) 97,06 %
28.05.2017 17:56 26,4 C 24,4 C 36 % 1017,0 hPa 0,0 l/m 7,2 km/h (2 Bft) O 81 2 min 0,000 mm 1,3 UV-I 399 W/m 10,1 C 26,2 C 14,5 km/h (3 Bft) 100,00 %
28.05.2017 17:58 26,4 C 24,4 C 34 % 1017,0 hPa 0,0 l/m 10,0 km/h (2 Bft) O-NO 73 2 min 0,000 mm 1,2 UV-I 394 W/m 9,3 C 25,7 C 16,1 km/h (3 Bft) 100,00 %
28.05.2017 18:00 26,4 C 24,4 C 36 % 1017,0 hPa 0,0 l/m 13,8 km/h (3 Bft) O-NO 60 2 min 0,407 mm 1,2 UV-I 388 W/m 10,1 C 25,2 C 17,7 km/h (3 Bft) 98,00 %
28.05.2017 18:02 26,3 C 24,4 C 35 % 1017,0 hPa 0,0 l/m 11,6 km/h (2 Bft) O-NO 62 2 min 0,000 mm 1,2 UV-I 382 W/m 9,6 C 25,3 C 16,1 km/h (3 Bft) 97,56 %
28.05.2017 18:04 26,3 C 24,4 C 35 % 1016,9 hPa 0,0 l/m 10,1 km/h (2 Bft) O-NO 59 2 min 0,000 mm 1,1 UV-I 377 W/m 9,6 C 25,6 C 16,1 km/h (3 Bft) 100,00 %
28.05.2017 18:06 26,2 C 24,4 C 36 % 1016,9 hPa 0,0 l/m 9,5 km/h (2 Bft) O-NO 65 2 min 0,000 mm 1,1 UV-I 369 W/m 9,9 C 25,6 C 16,1 km/h (3 Bft) 100,00 %
28.05.2017 18:08 26,2 C 24,4 C 36 % 1016,9 hPa 0,0 l/m 10,4 km/h (2 Bft) O-NO 59 2 min 0,000 mm 1,1 UV-I 363 W/m 9,9 C 25,4 C 16,1 km/h (3 Bft) 92,45 %
28.05.2017 18:10 26,1 C 24,4 C 36 % 1016,9 hPa 0,0 l/m 11,6 km/h (2 Bft) O-NO 67 2 min 0,000 mm 1,0 UV-I 358 W/m 9,8 C 25,1 C 16,1 km/h (3 Bft) 100,00 %
28.05.2017 18:12 26,1 C 24,4 C 37 % 1016,9 hPa 0,0 l/m 10,7 km/h (2 Bft) NO 56 2 min 0,000 mm 1,0 UV-I 352 W/m 10,3 C 25,3 C 16,1 km/h (3 Bft) 100,00 %
28.05.2017 18:14 26,1 C 24,4 C 38 % 1016,9 hPa 0,0 l/m 8,6 km/h (2 Bft) O-NO 72 2 min 0,000 mm 1,0 UV-I 345 W/m 10,7 C 25,6 C 12,9 km/h (3 Bft) 94,00 %
28.05.2017 18:16 26,1 C 24,4 C 40 % 1016,8 hPa 0,0 l/m 8,6 km/h (2 Bft) O 96 2 min 0,000 mm 0,9 UV-I 339 W/m 11,4 C 25,6 C 14,5 km/h (3 Bft) 100,00 %
28.05.2017 18:18 26,1 C 24,4 C 40 % 1016,9 hPa 0,0 l/m 15,4 km/h (3 Bft) O-NO 59 2 min 0,000 mm 0,9 UV-I 333 W/m 11,4 C 24,6 C 19,3 km/h (3 Bft) 96,43 %
28.05.2017 18:20 26,0 C 24,4 C 39 % 1016,9 hPa 0,0 l/m 12,6 km/h (3 Bft) O 88 2 min 0,000 mm 0,9 UV-I 326 W/m 11,0 C 24,8 C 17,7 km/h (3 Bft) 97,37 %
28.05.2017 18:22 25,9 C 24,4 C 39 % 1016,9 hPa 0,0 l/m 13,8 km/h (3 Bft) O 84 2 min 0,000 mm 0,9 UV-I 321 W/m 10,9 C 24,6 C 17,7 km/h (3 Bft) 97,73 %
28.05.2017 18:24 25,9 C 24,4 C 40 % 1016,9 hPa 0,0 l/m 15,0 km/h (3 Bft) O-NO 67 2 min 0,000 mm 0,8 UV-I 314 W/m 11,3 C 24,4 C 20,9 km/h (4 Bft) 98,21 %
28.05.2017 18:26 25,8 C 24,4 C 41 % 1016,9 hPa 0,0 l/m 14,1 km/h (3 Bft) O-NO 62 2 min 0,000 mm 0,8 UV-I 309 W/m 11,5 C 24,4 C 19,3 km/h (3 Bft) 97,37 %
28.05.2017 18:28 25,7 C 24,4 C 40 % 1016,9 hPa 0,0 l/m 14,7 km/h (3 Bft) O-NO 65 2 min 0,000 mm 0,8 UV-I 303 W/m 11,1 C 24,2 C 20,9 km/h (4 Bft) 98,11 %
28.05.2017 18:30 25,7 C 24,4 C 42 % 1016,9 hPa 0,0 l/m 11,1 km/h (2 Bft) NO 54 2 min 0,000 mm 0,8 UV-I 292 W/m 11,8 C 24,7 C 17,7 km/h (3 Bft) 94,34 %
28.05.2017 18:32 25,6 C 24,4 C 40 % 1016,9 hPa 0,0 l/m 15,5 km/h (3 Bft) NO 52 2 min 0,000 mm 0,7 UV-I 286 W/m 11,0 C 24,0 C 20,9 km/h (4 Bft) 97,37 %
28.05.2017 18:34 25,6 C 24,4 C 40 % 1016,8 hPa 0,0 l/m 16,4 km/h (3 Bft) O-NO 62 2 min 0,000 mm 0,7 UV-I 279 W/m 11,0 C 23,9 C 22,5 km/h (4 Bft) 96,23 %
28.05.2017 18:36 25,6 C 24,4 C 40 % 1016,8 hPa 0,0 l/m 11,6 km/h (2 Bft) O 88 2 min 0,000 mm 0,7 UV-I 276 W/m 11,0 C 24,5 C 19,3 km/h (3 Bft) 95,12 %
28.05.2017 18:38 25,5 C 24,4 C 40 % 1016,8 hPa 0,0 l/m 13,2 km/h (3 Bft) O-NO 71 2 min 0,000 mm 0,6 UV-I 265 W/m 10,9 C 24,2 C 17,7 km/h (3 Bft) 98,11 %
28.05.2017 18:40 25,5 C 24,4 C 39 % 1016,8 hPa 0,0 l/m 15,8 km/h (3 Bft) O 87 2 min 0,000 mm 0,6 UV-I 184 W/m 10,5 C 23,8 C 22,5 km/h (4 Bft) 90,24 %
28.05.2017 18:42 25,5 C 24,4 C 40 % 1016,8 hPa 0,0 l/m 11,5 km/h (2 Bft) O 82 2 min 0,000 mm 0,6 UV-I 256 W/m 10,9 C 24,4 C 16,1 km/h (3 Bft) 93,62 %
28.05.2017 18:44 25,5 C 24,4 C 40 % 1016,8 hPa 0,0 l/m 13,8 km/h (3 Bft) O-NO 72 2 min 0,000 mm 0,6 UV-I 247 W/m 10,9 C 24,1 C 19,3 km/h (3 Bft) 97,87 %
28.05.2017 18:46 25,4 C 23,9 C 40 % 1016,8 hPa 0,0 l/m 11,4 km/h (2 Bft) O-NO 63 2 min 0,000 mm 0,5 UV-I 213 W/m 10,8 C 24,4 C 16,1 km/h (3 Bft) 97,78 %
28.05.2017 18:48 25,3 C 23,9 C 42 % 1016,8 hPa 0,0 l/m 10,2 km/h (2 Bft) O 91 0 min 0,000 mm 0,5 UV-I 164 W/m 11,5 C 24,5 C 16,1 km/h (3 Bft) 96,15 %
28.05.2017 18:50 25,2 C 23,9 C 42 % 1016,8 hPa 0,0 l/m 12,8 km/h (3 Bft) O 87 2 min 0,000 mm 0,5 UV-I 187 W/m 11,4 C 23,9 C 17,7 km/h (3 Bft) 96,67 %
28.05.2017 18:52 25,2 C 23,9 C 43 % 1016,8 hPa 0,0 l/m 12,3 km/h (3 Bft) O-NO 78 2 min 0,000 mm 0,5 UV-I 200 W/m 11,7 C 24,0 C 20,9 km/h (4 Bft) 98,39 %
28.05.2017 18:54 25,1 C 23,9 C 41 % 1016,8 hPa 0,0 l/m 14,1 km/h (3 Bft) O-NO 73 2 min 0,000 mm 0,5 UV-I 190 W/m 10,9 C 23,6 C 19,3 km/h (3 Bft) 97,87 %
28.05.2017 18:56 25,1 C 23,9 C 41 % 1016,8 hPa 0,0 l/m 11,4 km/h (2 Bft) NO 46 2 min 0,000 mm 0,0 UV-I 168 W/m 10,9 C 24,0 C 16,1 km/h (3 Bft) 100,00 %
28.05.2017 18:58 24,9 C 23,9 C 41 % 1016,8 hPa 0,0 l/m 13,2 km/h (3 Bft) O 82 0 min 0,000 mm 0,0 UV-I 146 W/m 10,7 C 23,5 C 16,1 km/h (3 Bft) 100,00 %
28.05.2017 19:00 24,8 C 23,9 C 42 % 1016,8 hPa 0,0 l/m 10,6 km/h (2 Bft) O 81 0 min 0,000 mm 0,0 UV-I 88 W/m 11,0 C 23,8 C 16,1 km/h (3 Bft) 93,18 %
28.05.2017 19:02 24,7 C 23,9 C 42 % 1016,8 hPa 0,0 l/m 7,5 km/h (2 Bft) O-NO 76 0 min 0,304 mm 0,0 UV-I 93 W/m 10,9 C 24,4 C 14,5 km/h (3 Bft) 100,00 %
28.05.2017 19:04 24,5 C 23,9 C 43 % 1016,8 hPa 0,0 l/m 7,3 km/h (2 Bft) O-NO 67 0 min 0,000 mm 0,0 UV-I 137 W/m 11,1 C 24,3 C 11,3 km/h (2 Bft) 97,56 %
28.05.2017 19:06 24,4 C 23,9 C 44 % 1016,8 hPa 0,0 l/m 7,3 km/h (2 Bft) O-NO 67 0 min 0,000 mm 0,0 UV-I 127 W/m 11,3 C 24,2 C 11,3 km/h (2 Bft) 98,00 %
28.05.2017 19:08 24,3 C 23,9 C 45 % 1016,8 hPa 0,0 l/m 5,4 km/h (1 Bft) O 82 0 min 0,000 mm 0,0 UV-I 137 W/m 11,6 C 24,3 C 8,0 km/h (2 Bft) 100,00 %
28.05.2017 19:10 24,3 C 23,9 C 46 % 1016,7 hPa 0,0 l/m 7,2 km/h (2 Bft) O-NO 66 2 min 0,000 mm 0,0 UV-I 169 W/m 11,9 C 24,1 C 16,1 km/h (3 Bft) 98,00 %
28.05.2017 19:12 24,3 C 23,9 C 45 % 1016,7 hPa 0,0 l/m 11,0 km/h (2 Bft) O-NO 69 2 min 0,000 mm 0,0 UV-I 169 W/m 11,6 C 23,2 C 14,5 km/h (3 Bft) 100,00 %
28.05.2017 19:14 24,3 C 23,9 C 44 % 1016,7 hPa 0,0 l/m 9,7 km/h (2 Bft) O-NO 66 2 min 0,000 mm 0,0 UV-I 139 W/m 11,3 C 23,5 C 14,5 km/h (3 Bft) 100,00 %
28.05.2017 19:16 24,3 C 23,9 C 44 % 1016,7 hPa 0,0 l/m 10,2 km/h (2 Bft) NO 51 2 min 0,000 mm 0,0 UV-I 135 W/m 11,3 C 23,3 C 16,1 km/h (3 Bft) 100,00 %
28.05.2017 19:18 24,3 C 23,9 C 44 % 1016,7 hPa 0,0 l/m 9,9 km/h (2 Bft) O 86 2 min 0,000 mm 0,0 UV-I 150 W/m 11,3 C 23,4 C 14,5 km/h (3 Bft) 100,00 %
28.05.2017 19:20 24,3 C 23,9 C 45 % 1016,7 hPa 0,0 l/m 9,6 km/h (2 Bft) O-NO 71 2 min 0,000 mm 0,0 UV-I 155 W/m 11,6 C 23,5 C 12,9 km/h (3 Bft) 100,00 %
28.05.2017 19:22 24,3 C 23,9 C 45 % 1016,7 hPa 0,0 l/m 9,7 km/h (2 Bft) O-NO 73 2 min 0,000 mm 0,0 UV-I 156 W/m 11,6 C 23,5 C 14,5 km/h (3 Bft) 100,00 %
28.05.2017 19:24 24,2 C 23,9 C 45 % 1016,8 hPa 0,0 l/m 9,2 km/h (2 Bft) O-NO 57 2 min 0,000 mm 0,0 UV-I 152 W/m 11,5 C 23,5 C 12,9 km/h (3 Bft) 100,00 %
28.05.2017 19:26 24,2 C 23,9 C 44 % 1016,7 hPa 0,0 l/m 8,9 km/h (2 Bft) NO 55 2 min 0,000 mm 0,0 UV-I 148 W/m 11,2 C 23,5 C 14,5 km/h (3 Bft) 97,62 %
28.05.2017 19:28 24,2 C 23,9 C 44 % 1016,7 hPa 0,0 l/m 10,1 km/h (2 Bft) O 85 2 min 0,000 mm 0,0 UV-I 141 W/m 11,2 C 23,3 C 16,1 km/h (3 Bft) 98,18 %
28.05.2017 19:30 24,2 C 23,9 C 45 % 1016,7 hPa 0,0 l/m 9,5 km/h (2 Bft) O-NO 74 2 min 0,000 mm 0,0 UV-I 137 W/m 11,5 C 23,4 C 16,1 km/h (3 Bft) 97,22 %
28.05.2017 19:32 24,2 C 23,9 C 45 % 1016,8 hPa 0,0 l/m 5,9 km/h (2 Bft) O-NO 69 2 min 0,000 mm 0,0 UV-I 130 W/m 11,5 C 24,2 C 9,7 km/h (2 Bft) 96,43 %
28.05.2017 19:34 24,1 C 23,9 C 45 % 1016,8 hPa 0,0 l/m 8,5 km/h (2 Bft) O-NO 76 2 min 0,000 mm 0,0 UV-I 122 W/m 11,4 C 23,5 C 12,9 km/h (3 Bft) 98,11 %
28.05.2017 19:36 24,1 C 23,9 C 45 % 1016,8 hPa 0,0 l/m 9,1 km/h (2 Bft) O-NO 77 2 min 0,000 mm 0,0 UV-I 122 W/m 11,4 C 23,4 C 14,5 km/h (3 Bft) 97,56 %
28.05.2017 19:38 24,0 C 23,9 C 45 % 1016,8 hPa 0,0 l/m 8,8 km/h (2 Bft) O-NO 61 2 min 0,000 mm 0,0 UV-I 117 W/m 11,3 C 23,3 C 14,5 km/h (3 Bft) 94,00 %
28.05.2017 19:40 23,9 C 23,9 C 46 % 1016,8 hPa 0,0 l/m 9,1 km/h (2 Bft) O-NO 78 2 min 0,000 mm 0,0 UV-I 114 W/m 11,6 C 23,2 C 12,9 km/h (3 Bft) 100,00 %
28.05.2017 19:43 23,7 C 23,9 C 46 % 1016,8 hPa 0,0 l/m 10,1 km/h (2 Bft) O-NO 78 3 min 0,000 mm 0,0 UV-I 110 W/m 11,4 C 22,7 C 16,1 km/h (3 Bft) 98,53 %
28.05.2017 19:44 23,7 C 23,9 C 46 % 1016,7 hPa 0,0 l/m 9,7 km/h (2 Bft) NO 53 1 min 0,000 mm 0,0 UV-I 106 W/m 11,4 C 22,8 C 14,5 km/h (3 Bft) 96,15 %
28.05.2017 19:46 23,6 C 23,9 C 46 % 1016,8 hPa 0,0 l/m 9,8 km/h (2 Bft) O-NO 59 2 min 0,000 mm 0,0 UV-I 103 W/m 11,3 C 22,7 C 17,7 km/h (3 Bft) 100,00 %
28.05.2017 19:48 23,6 C 23,9 C 46 % 1016,8 hPa 0,0 l/m 8,7 km/h (2 Bft) NO 41 2 min 0,000 mm 0,0 UV-I 98 W/m 11,3 C 22,9 C 14,5 km/h (3 Bft) 98,11 %
28.05.2017 19:50 23,5 C 23,9 C 47 % 1016,8 hPa 0,0 l/m 10,3 km/h (2 Bft) O 84 2 min 0,000 mm 0,0 UV-I 90 W/m 11,5 C 22,4 C 14,5 km/h (3 Bft) 96,00 %
28.05.2017 19:52 23,4 C 23,9 C 48 % 1016,8 hPa 0,0 l/m 9,6 km/h (2 Bft) O-NO 77 2 min 0,000 mm 0,0 UV-I 83 W/m 11,8 C 22,5 C 12,9 km/h (3 Bft) 97,56 %
28.05.2017 19:54 23,3 C 23,9 C 48 % 1016,8 hPa 0,0 l/m 11,0 km/h (2 Bft) O-NO 60 2 min 0,000 mm 0,0 UV-I 82 W/m 11,7 C 22,0 C 16,1 km/h (3 Bft) 98,00 %
28.05.2017 19:56 23,3 C 23,9 C 49 % 1016,7 hPa 0,0 l/m 10,8 km/h (2 Bft) NO 55 2 min 0,000 mm 0,0 UV-I 84 W/m 12,0 C 22,1 C 16,1 km/h (3 Bft) 100,00 %
28.05.2017 19:58 23,2 C 23,9 C 49 % 1016,7 hPa 0,0 l/m 12,1 km/h (2 Bft) O 86 2 min 0,000 mm 0,0 UV-I 80 W/m 11,9 C 21,7 C 16,1 km/h (3 Bft) 96,61 %
28.05.2017 20:00 23,1 C 23,9 C 50 % 1016,7 hPa 0,0 l/m 11,0 km/h (2 Bft) O-NO 65 2 min 0,153 mm 0,0 UV-I 76 W/m 12,1 C 21,8 C 16,1 km/h (3 Bft) 100,00 %
28.05.2017 20:02 22,9 C 23,9 C 50 % 1016,7 hPa 0,0 l/m 9,6 km/h (2 Bft) O-NO 64 2 min 0,000 mm 0,0 UV-I 72 W/m 11,9 C 21,9 C 12,9 km/h (3 Bft) 98,00 %
28.05.2017 20:04 22,8 C 23,9 C 50 % 1016,6 hPa 0,0 l/m 10,3 km/h (2 Bft) NO 56 2 min 0,000 mm 0,0 UV-I 65 W/m 11,8 C 21,7 C 14,5 km/h (3 Bft) 97,87 %
28.05.2017 20:06 22,8 C 23,9 C 51 % 1016,6 hPa 0,0 l/m 8,4 km/h (2 Bft) O-NO 74 2 min 0,000 mm 0,0 UV-I 55 W/m 12,1 C 22,2 C 11,3 km/h (2 Bft) 94,00 %
28.05.2017 20:08 22,7 C 23,9 C 52 % 1016,6 hPa 0,0 l/m 5,4 km/h (1 Bft) NO 49 0 min 0,000 mm 0,0 UV-I 49 W/m 12,3 C 22,7 C 8,0 km/h (2 Bft) 94,44 %
28.05.2017 20:10 22,4 C 23,9 C 52 % 1016,6 hPa 0,0 l/m 7,6 km/h (2 Bft) O-NO 70 0 min 0,000 mm 0,0 UV-I 44 W/m 12,1 C 22,0 C 11,3 km/h (2 Bft) 98,21 %
28.05.2017 20:12 22,3 C 23,9 C 53 % 1016,7 hPa 0,0 l/m 9,5 km/h (2 Bft) O-NO 75 0 min 0,000 mm 0,0 UV-I 42 W/m 12,2 C 21,3 C 14,5 km/h (3 Bft) 92,11 %
28.05.2017 20:14 22,2 C 23,9 C 54 % 1016,6 hPa 0,0 l/m 9,9 km/h (2 Bft) O-NO 72 2 min 0,000 mm 0,0 UV-I 49 W/m 12,4 C 21,1 C 14,5 km/h (3 Bft) 96,00 %
28.05.2017 20:16 22,1 C 23,9 C 54 % 1016,7 hPa 0,0 l/m 9,9 km/h (2 Bft) O-NO 57 2 min 0,000 mm 0,0 UV-I 47 W/m 12,3 C 21,0 C 16,1 km/h (3 Bft) 93,62 %
28.05.2017 20:18 22,0 C 23,9 C 54 % 1016,7 hPa 0,0 l/m 11,0 km/h (2 Bft) O 86 2 min 0,000 mm 0,0 UV-I 44 W/m 12,3 C 20,6 C 17,7 km/h (3 Bft) 92,68 %
28.05.2017 20:20 21,9 C 23,9 C 54 % 1016,7 hPa 0,0 l/m 10,0 km/h (2 Bft) O-NO 57 2 min 0,000 mm 0,0 UV-I 41 W/m 12,2 C 20,7 C 16,1 km/h (3 Bft) 94,00 %
28.05.2017 20:22 21,8 C 23,9 C 54 % 1016,7 hPa 0,0 l/m 10,2 km/h (2 Bft) O-NO 68 2 min 0,000 mm 0,0 UV-I 38 W/m 12,1 C 20,6 C 16,1 km/h (3 Bft) 87,23 %
28.05.2017 20:24 21,8 C 23,9 C 55 % 1016,6 hPa 0,0 l/m 9,4 km/h (2 Bft) O 82 2 min 0,000 mm 0,0 UV-I 35 W/m 12,4 C 20,8 C 14,5 km/h (3 Bft) 92,45 %
28.05.2017 20:26 21,7 C 23,9 C 55 % 1016,6 hPa 0,0 l/m 9,0 km/h (2 Bft) O-NO 73 2 min 0,000 mm 0,0 UV-I 33 W/m 12,3 C 20,8 C 14,5 km/h (3 Bft) 94,00 %
28.05.2017 20:28 21,6 C 23,9 C 56 % 1016,6 hPa 0,0 l/m 11,8 km/h (2 Bft) O 90 2 min 0,000 mm 0,0 UV-I 29 W/m 12,4 C 19,9 C 16,1 km/h (3 Bft) 87,80 %
28.05.2017 20:30 21,6 C 23,9 C 55 % 1016,6 hPa 0,0 l/m 11,9 km/h (2 Bft) O-NO 57 2 min 0,000 mm 0,0 UV-I 24 W/m 12,2 C 19,9 C 14,5 km/h (3 Bft) 96,30 %
28.05.2017 20:32 21,6 C 23,9 C 55 % 1016,6 hPa 0,0 l/m 10,0 km/h (2 Bft) NO 50 0 min 0,000 mm 0,0 UV-I 18 W/m 12,2 C 20,4 C 16,1 km/h (3 Bft) 94,29 %
28.05.2017 20:34 21,6 C 23,9 C 56 % 1016,6 hPa 0,0 l/m 8,8 km/h (2 Bft) O 80 2 min 0,000 mm 0,0 UV-I 16 W/m 12,4 C 20,8 C 12,9 km/h (3 Bft) 96,00 %
28.05.2017 20:36 21,6 C 23,9 C 56 % 1016,6 hPa 0,0 l/m 7,4 km/h (2 Bft) O-NO 71 2 min 0,000 mm 0,0 UV-I 15 W/m 12,4 C 21,2 C 11,3 km/h (2 Bft) 95,12 %
28.05.2017 20:38 21,4 C 23,9 C 56 % 1016,6 hPa 0,0 l/m 7,1 km/h (2 Bft) O 82 2 min 0,000 mm 0,0 UV-I 14 W/m 12,3 C 21,1 C 11,3 km/h (2 Bft) 95,45 %
28.05.2017 20:40 21,3 C 23,9 C 56 % 1016,6 hPa 0,0 l/m 7,4 km/h (2 Bft) O-NO 77 0 min 0,000 mm 0,0 UV-I 12 W/m 12,2 C 20,9 C 12,9 km/h (3 Bft) 90,57 %
28.05.2017 20:42 21,3 C 23,9 C 56 % 1016,6 hPa 0,0 l/m 6,8 km/h (2 Bft) O-NO 63 0 min 0,000 mm 0,0 UV-I 12 W/m 12,2 C 21,2 C 9,7 km/h (2 Bft) 97,56 %
28.05.2017 20:44 21,2 C 23,9 C 57 % 1016,6 hPa 0,0 l/m 5,0 km/h (1 Bft) O-NO 74 0 min 0,000 mm 0,0 UV-I 11 W/m 12,3 C 21,2 C 8,0 km/h (2 Bft) 96,00 %
28.05.2017 20:46 21,1 C 23,9 C 57 % 1016,7 hPa 0,0 l/m 4,3 km/h (1 Bft) O-NO 77 0 min 0,000 mm 0,0 UV-I 10 W/m 12,2 C 21,1 C 6,4 km/h (2 Bft) 94,87 %
28.05.2017 20:48 20,9 C 23,9 C 58 % 1016,7 hPa 0,0 l/m 6,3 km/h (2 Bft) O-NO 69 0 min 0,000 mm 0,0 UV-I 9 W/m 12,3 C 20,9 C 11,3 km/h (2 Bft) 94,64 %
28.05.2017 20:50 20,8 C 23,9 C 58 % 1016,7 hPa 0,0 l/m 5,8 km/h (2 Bft) O-NO 73 0 min 0,000 mm 0,0 UV-I 8 W/m 12,2 C 20,8 C 8,0 km/h (2 Bft) 97,87 %
28.05.2017 20:52 20,8 C 23,9 C 58 % 1016,7 hPa 0,0 l/m 5,1 km/h (1 Bft) O-NO 76 0 min 0,000 mm 0,0 UV-I 7 W/m 12,2 C 20,8 C 6,4 km/h (2 Bft) 98,00 %
28.05.2017 20:54 20,7 C 23,9 C 58 % 1016,7 hPa 0,0 l/m 4,1 km/h (1 Bft) O-NO 78 0 min 0,000 mm 0,0 UV-I 7 W/m 12,1 C 20,7 C 4,8 km/h (1 Bft) 97,56 %
28.05.2017 20:56 20,7 C 23,9 C 58 % 1016,7 hPa 0,0 l/m 5,4 km/h (1 Bft) O-NO 75 0 min 0,000 mm 0,0 UV-I 5 W/m 12,1 C 20,7 C 6,4 km/h (2 Bft) 98,00 %
28.05.2017 20:58 20,7 C 23,9 C 59 % 1016,8 hPa 0,0 l/m 4,6 km/h (1 Bft) O-NO 66 0 min 0,000 mm 0,0 UV-I 5 W/m 12,4 C 20,7 C 6,4 km/h (2 Bft) 96,00 %
28.05.2017 21:00 20,6 C 23,9 C 59 % 1016,8 hPa 0,0 l/m 4,4 km/h (1 Bft) O-NO 69 0 min 0,000 mm 0,0 UV-I 5 W/m 12,3 C 20,6 C 6,4 km/h (2 Bft) 97,73 %
28.05.2017 21:02 20,6 C 23,9 C 59 % 1016,8 hPa 0,0 l/m 3,7 km/h (1 Bft) O-NO 69 0 min 0,076 mm 0,0 UV-I 5 W/m 12,3 C 20,6 C 4,8 km/h (1 Bft) 95,74 %
28.05.2017 21:04 20,5 C 23,9 C 59 % 1016,9 hPa 0,0 l/m 2,2 km/h (1 Bft) O-NO 69 0 min 0,000 mm 0,0 UV-I 4 W/m 12,2 C 20,5 C 3,2 km/h (1 Bft) 97,96 %
28.05.2017 21:06 20,4 C 23,9 C 59 % 1016,9 hPa 0,0 l/m 0,4 km/h (0 Bft) O-NO 69 0 min 0,000 mm 0,0 UV-I 0 W/m 12,1 C 20,4 C 1,6 km/h (1 Bft) 95,74 %
28.05.2017 21:08 20,3 C 23,9 C 60 % 1016,9 hPa 0,0 l/m 0,2 km/h (0 Bft) O-NO 69 0 min 0,000 mm 0,0 UV-I 0 W/m 12,3 C 20,3 C 1,6 km/h (1 Bft) 95,74 %
28.05.2017 21:10 20,3 C 23,9 C 60 % 1016,8 hPa 0,0 l/m 0,2 km/h (0 Bft) O-NO 69 0 min 0,000 mm 0,0 UV-I 0 W/m 12,3 C 20,3 C 1,6 km/h (1 Bft) 100,00 %
28.05.2017 21:12 20,2 C 23,9 C 60 % 1016,9 hPa 0,0 l/m 1,0 km/h (0 Bft) O-NO 69 0 min 0,000 mm 0,0 UV-I 0 W/m 12,2 C 20,2 C 4,8 km/h (1 Bft) 94,00 %
28.05.2017 21:14 20,1 C 23,9 C 60 % 1016,9 hPa 0,0 l/m 3,1 km/h (1 Bft) O-NO 67 0 min 0,000 mm 0,0 UV-I 0 W/m 12,1 C 20,1 C 8,0 km/h (2 Bft) 100,00 %
28.05.2017 21:16 19,9 C 23,9 C 61 % 1016,9 hPa 0,0 l/m 3,1 km/h (1 Bft) O-NO 67 0 min 0,000 mm 0,0 UV-I 0 W/m 12,2 C 19,9 C 4,8 km/h (1 Bft) 100,00 %
28.05.2017 21:18 19,8 C 23,9 C 61 % 1016,9 hPa 0,0 l/m 1,4 km/h (1 Bft) O-NO 67 0 min 0,000 mm 0,0 UV-I 0 W/m 12,1 C 19,8 C 3,2 km/h (1 Bft) 100,00 %
28.05.2017 21:20 19,8 C 23,9 C 62 % 1016,9 hPa 0,0 l/m 2,1 km/h (1 Bft) O-NO 67 0 min 0,000 mm 0,0 UV-I 0 W/m 12,3 C 19,8 C 3,2 km/h (1 Bft) 98,00 %
28.05.2017 21:22 19,7 C 23,9 C 62 % 1017,0 hPa 0,0 l/m 1,9 km/h (1 Bft) O-NO 67 0 min 0,000 mm 0,0 UV-I 0 W/m 12,2 C 19,7 C 3,2 km/h (1 Bft) 100,00 %
28.05.2017 21:24 19,6 C 23,9 C 62 % 1017,1 hPa 0,0 l/m 2,0 km/h (1 Bft) O-NO 67 0 min 0,000 mm 0,0 UV-I 0 W/m 12,1 C 19,6 C 3,2 km/h (1 Bft) 100,00 %
28.05.2017 21:26 19,5 C 23,9 C 62 % 1017,1 hPa 0,0 l/m 2,5 km/h (1 Bft) O-NO 67 0 min 0,000 mm 0,0 UV-I 0 W/m 12,0 C 19,5 C 4,8 km/h (1 Bft) 100,00 %
28.05.2017 21:29 19,5 C 23,9 C 62 % 1017,1 hPa 0,0 l/m 1,5 km/h (1 Bft) O-NO 67 0 min 0,000 mm 0,0 UV-I 0 W/m 12,0 C 19,5 C 3,2 km/h (1 Bft) 97,14 %
28.05.2017 21:30 19,5 C 23,9 C 62 % 1017,1 hPa 0,0 l/m 1,7 km/h (1 Bft) O-NO 67 0 min 0,000 mm 0,0 UV-I 0 W/m 12,0 C 19,5 C 3,2 km/h (1 Bft) 96,30 %
28.05.2017 21:32 19,4 C 23,9 C 62 % 1017,1 hPa 0,0 l/m 1,5 km/h (1 Bft) O-NO 67 0 min 0,000 mm 0,0 UV-I 0 W/m 11,9 C 19,4 C 3,2 km/h (1 Bft) 100,00 %
28.05.2017 21:34 19,4 C 23,9 C 62 % 1017,1 hPa 0,0 l/m 3,4 km/h (1 Bft) O-NO 60 0 min 0,000 mm 0,0 UV-I 0 W/m 11,9 C 19,4 C 6,4 km/h (2 Bft) 100,00 %
28.05.2017 21:36 19,3 C 23,9 C 62 % 1017,1 hPa 0,0 l/m 4,3 km/h (1 Bft) O-NO 71 0 min 0,000 mm 0,0 UV-I 0 W/m 11,8 C 19,3 C 8,0 km/h (2 Bft) 100,00 %
28.05.2017 21:38 19,3 C 23,9 C 62 % 1017,1 hPa 0,0 l/m 4,3 km/h (1 Bft) O-NO 71 0 min 0,000 mm 0,0 UV-I 0 W/m 11,8 C 19,3 C 8,0 km/h (2 Bft) 100,00 %
28.05.2017 21:40 19,3 C 23,9 C 62 % 1017,1 hPa 0,0 l/m 5,1 km/h (1 Bft) O-NO 66 0 min 0,000 mm 0,0 UV-I 0 W/m 11,8 C 19,3 C 6,4 km/h (2 Bft) 100,00 %
28.05.2017 21:42 19,2 C 23,9 C 62 % 1017,1 hPa 0,0 l/m 6,0 km/h (2 Bft) O-NO 70 0 min 0,000 mm 0,0 UV-I 0 W/m 11,7 C 19,2 C 8,0 km/h (2 Bft) 100,00 %
28.05.2017 21:44 19,1 C 23,9 C 62 % 1017,1 hPa 0,0 l/m 7,1 km/h (2 Bft) O 92 0 min 0,000 mm 0,0 UV-I 0 W/m 11,6 C 18,8 C 11,3 km/h (2 Bft) 100,00 %
28.05.2017 21:46 19,1 C 23,9 C 62 % 1017,1 hPa 0,0 l/m 8,7 km/h (2 Bft) O-NO 71 0 min 0,000 mm 0,0 UV-I 0 W/m 11,6 C 18,1 C 12,9 km/h (3 Bft) 98,00 %
28.05.2017 21:48 19,1 C 23,9 C 61 % 1017,1 hPa 0,0 l/m 6,9 km/h (2 Bft) O-NO 61 0 min 0,000 mm 0,0 UV-I 0 W/m 11,4 C 18,9 C 12,9 km/h (3 Bft) 97,87 %
28.05.2017 21:50 19,2 C 23,9 C 61 % 1017,1 hPa 0,0 l/m 7,4 km/h (2 Bft) O-NO 67 0 min 0,000 mm 0,0 UV-I 0 W/m 11,5 C 18,8 C 12,9 km/h (3 Bft) 98,00 %
28.05.2017 21:52 19,1 C 23,9 C 61 % 1017,1 hPa 0,0 l/m 7,1 km/h (2 Bft) O-NO 61 0 min 0,000 mm 0,0 UV-I 0 W/m 11,4 C 18,8 C 14,5 km/h (3 Bft) 100,00 %
28.05.2017 21:54 19,1 C 23,9 C 61 % 1017,1 hPa 0,0 l/m 7,2 km/h (2 Bft) O-NO 76 0 min 0,000 mm 0,0 UV-I 0 W/m 11,4 C 18,7 C 9,7 km/h (2 Bft) 97,73 %
28.05.2017 21:56 19,1 C 23,9 C 61 % 1017,1 hPa 0,0 l/m 7,0 km/h (2 Bft) O-NO 61 0 min 0,000 mm 0,0 UV-I 0 W/m 11,4 C 18,8 C 9,7 km/h (2 Bft) 100,00 %
28.05.2017 21:58 19,1 C 23,9 C 61 % 1017,1 hPa 0,0 l/m 9,0 km/h (2 Bft) O 84 0 min 0,000 mm 0,0 UV-I 0 W/m 11,4 C 18,0 C 11,3 km/h (2 Bft) 95,24 %
28.05.2017 22:00 19,0 C 23,9 C 61 % 1017,1 hPa 0,0 l/m 9,4 km/h (2 Bft) O-NO 77 0 min 0,000 mm 0,0 UV-I 0 W/m 11,3 C 17,8 C 14,5 km/h (3 Bft) 100,00 %
28.05.2017 22:02 19,1 C 23,9 C 61 % 1017,1 hPa 0,0 l/m 9,5 km/h (2 Bft) O-NO 78 0 min 0,025 mm 0,0 UV-I 0 W/m 11,4 C 17,8 C 12,9 km/h (3 Bft) 100,00 %
28.05.2017 22:04 19,1 C 23,9 C 60 % 1017,1 hPa 0,0 l/m 9,0 km/h (2 Bft) O 89 0 min 0,000 mm 0,0 UV-I 0 W/m 11,1 C 18,0 C 14,5 km/h (3 Bft) 100,00 %
28.05.2017 22:06 19,1 C 23,9 C 61 % 1017,1 hPa 0,0 l/m 8,6 km/h (2 Bft) O-NO 61 0 min 0,000 mm 0,0 UV-I 0 W/m 11,4 C 18,2 C 12,9 km/h (3 Bft) 98,00 %
28.05.2017 22:08 19,1 C 23,9 C 61 % 1017,1 hPa 0,0 l/m 9,8 km/h (2 Bft) O 84 0 min 0,000 mm 0,0 UV-I 0 W/m 11,4 C 17,7 C 14,5 km/h (3 Bft) 97,22 %
28.05.2017 22:10 19,0 C 23,9 C 61 % 1017,1 hPa 0,0 l/m 11,5 km/h (2 Bft) O-NO 74 0 min 0,000 mm 0,0 UV-I 0 W/m 11,3 C 17,0 C 16,1 km/h (3 Bft) 98,00 %
28.05.2017 22:12 19,0 C 23,9 C 61 % 1017,1 hPa 0,0 l/m 13,1 km/h (3 Bft) O-NO 77 0 min 0,000 mm 0,0 UV-I 0 W/m 11,3 C 16,6 C 17,7 km/h (3 Bft) 100,00 %
28.05.2017 22:14 19,0 C 23,9 C 61 % 1017,1 hPa 0,0 l/m 12,0 km/h (2 Bft) O-NO 76 0 min 0,000 mm 0,0 UV-I 0 W/m 11,3 C 16,9 C 19,3 km/h (3 Bft) 100,00 %
28.05.2017 22:16 19,1 C 23,9 C 61 % 1017,1 hPa 0,0 l/m 14,2 km/h (3 Bft) O-NO 77 0 min 0,000 mm 0,0 UV-I 0 W/m 11,4 C 16,4 C 17,7 km/h (3 Bft) 98,11 %
28.05.2017 22:18 19,1 C 23,9 C 60 % 1017,1 hPa 0,0 l/m 11,1 km/h (2 Bft) O-NO 60 0 min 0,000 mm 0,0 UV-I 0 W/m 11,1 C 17,3 C 16,1 km/h (3 Bft) 93,62 %
28.05.2017 22:20 19,1 C 23,9 C 60 % 1017,1 hPa 0,0 l/m 11,8 km/h (2 Bft) O 88 0 min 0,000 mm 0,0 UV-I 0 W/m 11,1 C 17,1 C 17,7 km/h (3 Bft) 96,00 %
28.05.2017 22:22 19,1 C 23,9 C 60 % 1017,2 hPa 0,0 l/m 9,0 km/h (2 Bft) O 84 0 min 0,000 mm 0,0 UV-I 0 W/m 11,1 C 18,0 C 14,5 km/h (3 Bft) 97,37 %
28.05.2017 22:24 19,1 C 23,9 C 60 % 1017,1 hPa 0,0 l/m 10,5 km/h (2 Bft) O-NO 76 0 min 0,000 mm 0,0 UV-I 0 W/m 11,1 C 17,5 C 14,5 km/h (3 Bft) 96,00 %
28.05.2017 22:26 19,1 C 23,9 C 60 % 1017,2 hPa 0,0 l/m 11,3 km/h (2 Bft) O-NO 78 0 min 0,000 mm 0,0 UV-I 0 W/m 11,1 C 17,2 C 16,1 km/h (3 Bft) 96,23 %
28.05.2017 22:28 19,1 C 23,9 C 60 % 1017,1 hPa 0,0 l/m 10,6 km/h (2 Bft) O 80 0 min 0,000 mm 0,0 UV-I 0 W/m 11,1 C 17,4 C 16,1 km/h (3 Bft) 97,37 %
28.05.2017 22:30 19,1 C 23,3 C 60 % 1017,1 hPa 0,0 l/m 11,6 km/h (2 Bft) O-NO 77 0 min 0,000 mm 0,0 UV-I 0 W/m 11,1 C 17,1 C 16,1 km/h (3 Bft) 96,23 %
28.05.2017 22:32 19,1 C 23,3 C 60 % 1017,2 hPa 0,0 l/m 11,6 km/h (2 Bft) O-NO 70 0 min 0,000 mm 0,0 UV-I 0 W/m 11,1 C 17,1 C 16,1 km/h (3 Bft) 94,00 %
28.05.2017 22:34 19,1 C 23,3 C 61 % 1017,2 hPa 0,0 l/m 7,7 km/h (2 Bft) O-NO 61 0 min 0,000 mm 0,0 UV-I 0 W/m 11,4 C 18,5 C 12,9 km/h (3 Bft) 100,00 %
28.05.2017 22:36 18,9 C 23,3 C 61 % 1017,2 hPa 0,0 l/m 8,7 km/h (2 Bft) O 95 0 min 0,000 mm 0,0 UV-I 0 W/m 11,2 C 17,9 C 14,5 km/h (3 Bft) 96,00 %
28.05.2017 22:38 18,9 C 23,3 C 61 % 1017,2 hPa 0,0 l/m 10,4 km/h (2 Bft) O 84 0 min 0,000 mm 0,0 UV-I 0 W/m 11,2 C 17,3 C 14,5 km/h (3 Bft) 95,12 %
28.05.2017 22:40 18,9 C 23,3 C 61 % 1017,3 hPa 0,0 l/m 8,6 km/h (2 Bft) O-NO 75 0 min 0,000 mm 0,0 UV-I 0 W/m 11,2 C 18,0 C 12,9 km/h (3 Bft) 98,11 %
28.05.2017 22:42 19,0 C 23,3 C 61 % 1017,2 hPa 0,0 l/m 8,7 km/h (2 Bft) O 80 0 min 0,000 mm 0,0 UV-I 0 W/m 11,3 C 18,0 C 16,1 km/h (3 Bft) 97,62 %
28.05.2017 22:44 18,9 C 23,3 C 61 % 1017,2 hPa 0,0 l/m 8,0 km/h (2 Bft) O-NO 77 0 min 0,000 mm 0,0 UV-I 0 W/m 11,2 C 18,2 C 12,9 km/h (3 Bft) 96,15 %
28.05.2017 22:46 18,9 C 23,3 C 61 % 1017,2 hPa 0,0 l/m 6,3 km/h (2 Bft) O 84 0 min 0,000 mm 0,0 UV-I 0 W/m 11,2 C 18,9 C 11,3 km/h (2 Bft) 97,22 %
28.05.2017 22:48 18,9 C 23,3 C 61 % 1017,2 hPa 0,0 l/m 8,0 km/h (2 Bft) O 93 0 min 0,000 mm 0,0 UV-I 0 W/m 11,2 C 18,2 C 14,5 km/h (3 Bft) 98,15 %
28.05.2017 22:50 18,8 C 23,3 C 61 % 1017,2 hPa 0,0 l/m 8,9 km/h (2 Bft) O 84 0 min 0,000 mm 0,0 UV-I 0 W/m 11,1 C 17,7 C 12,9 km/h (3 Bft) 98,00 %
28.05.2017 22:52 18,8 C 23,3 C 62 % 1017,2 hPa 0,0 l/m 6,8 km/h (2 Bft) O-NO 76 0 min 0,000 mm 0,0 UV-I 0 W/m 11,4 C 18,6 C 12,9 km/h (3 Bft) 100,00 %
28.05.2017 22:54 18,7 C 23,3 C 62 % 1017,2 hPa 0,0 l/m 6,3 km/h (2 Bft) O-NO 64 0 min 0,000 mm 0,0 UV-I 0 W/m 11,3 C 18,7 C 9,7 km/h (2 Bft) 98,11 %
28.05.2017 22:56 18,7 C 23,3 C 62 % 1017,1 hPa 0,0 l/m 5,3 km/h (1 Bft) O-NO 69 0 min 0,000 mm 0,0 UV-I 0 W/m 11,3 C 18,7 C 8,0 km/h (2 Bft) 100,00 %
28.05.2017 22:58 18,6 C 23,3 C 62 % 1017,1 hPa 0,0 l/m 4,7 km/h (1 Bft) O-NO 74 0 min 0,000 mm 0,0 UV-I 0 W/m 11,2 C 18,6 C 8,0 km/h (2 Bft) 100,00 %
28.05.2017 23:00 18,5 C 23,3 C 63 % 1017,1 hPa 0,0 l/m 7,4 km/h (2 Bft) O 79 0 min 0,051 mm 0,0 UV-I 0 W/m 11,3 C 18,0 C 16,1 km/h (3 Bft) 95,74 %
28.05.2017 23:02 18,5 C 23,3 C 63 % 1017,1 hPa 0,0 l/m 7,7 km/h (2 Bft) O 79 0 min 0,000 mm 0,0 UV-I 0 W/m 11,3 C 17,9 C 14,5 km/h (3 Bft) 100,00 %
28.05.2017 23:04 18,6 C 23,3 C 63 % 1017,2 hPa 0,0 l/m 7,9 km/h (2 Bft) O-NO 69 0 min 0,000 mm 0,0 UV-I 0 W/m 11,4 C 17,9 C 14,5 km/h (3 Bft) 100,00 %
28.05.2017 23:06 18,6 C 23,3 C 63 % 1017,1 hPa 0,0 l/m 7,4 km/h (2 Bft) O-NO 70 0 min 0,000 mm 0,0 UV-I 0 W/m 11,4 C 18,1 C 11,3 km/h (2 Bft) 100,00 %
28.05.2017 23:08 18,4 C 23,3 C 63 % 1017,1 hPa 0,0 l/m 7,2 km/h (2 Bft) O 100 0 min 0,000 mm 0,0 UV-I 0 W/m 11,2 C 18,0 C 11,3 km/h (2 Bft) 100,00 %
28.05.2017 23:10 18,3 C 23,3 C 64 % 1017,1 hPa 0,0 l/m 5,0 km/h (1 Bft) O-SO 110 0 min 0,000 mm 0,0 UV-I 0 W/m 11,4 C 18,3 C 9,7 km/h (2 Bft) 100,00 %
28.05.2017 23:12 18,3 C 23,3 C 63 % 1017,1 hPa 0,0 l/m 6,8 km/h (2 Bft) O 92 0 min 0,000 mm 0,0 UV-I 0 W/m 11,1 C 18,1 C 9,7 km/h (2 Bft) 100,00 %
28.05.2017 23:14 18,2 C 23,3 C 64 % 1017,0 hPa 0,0 l/m 7,2 km/h (2 Bft) O-NO 72 0 min 0,000 mm 0,0 UV-I 0 W/m 11,3 C 17,8 C 11,3 km/h (2 Bft) 98,00 %
28.05.2017 23:16 18,2 C 23,3 C 64 % 1017,0 hPa 0,0 l/m 6,8 km/h (2 Bft) O-NO 76 0 min 0,000 mm 0,0 UV-I 0 W/m 11,3 C 18,0 C 12,9 km/h (3 Bft) 100,00 %
28.05.2017 23:18 18,2 C 23,3 C 64 % 1017,1 hPa 0,0 l/m 5,3 km/h (1 Bft) O 79 0 min 0,000 mm 0,0 UV-I 0 W/m 11,3 C 18,2 C 11,3 km/h (2 Bft) 100,00 %
28.05.2017 23:20 18,2 C 23,3 C 64 % 1017,1 hPa 0,0 l/m 6,8 km/h (2 Bft) O-NO 57 0 min 0,000 mm 0,0 UV-I 0 W/m 11,3 C 18,0 C 11,3 km/h (2 Bft) 100,00 %
28.05.2017 23:22 18,2 C 23,3 C 64 % 1017,1 hPa 0,0 l/m 6,4 km/h (2 Bft) O-NO 61 0 min 0,000 mm 0,0 UV-I 0 W/m 11,3 C 18,2 C 11,3 km/h (2 Bft) 100,00 %
28.05.2017 23:24 18,2 C 23,3 C 64 % 1017,1 hPa 0,0 l/m 7,7 km/h (2 Bft) O-NO 76 0 min 0,000 mm 0,0 UV-I 0 W/m 11,3 C 17,6 C 11,3 km/h (2 Bft) 97,37 %
28.05.2017 23:26 18,2 C 23,3 C 64 % 1017,1 hPa 0,0 l/m 6,0 km/h (2 Bft) O 86 0 min 0,000 mm 0,0 UV-I 0 W/m 11,3 C 18,2 C 12,9 km/h (3 Bft) 100,00 %
28.05.2017 23:28 18,2 C 23,3 C 64 % 1017,1 hPa 0,0 l/m 6,2 km/h (2 Bft) O-NO 76 0 min 0,000 mm 0,0 UV-I 0 W/m 11,3 C 18,2 C 12,9 km/h (3 Bft) 100,00 %
28.05.2017 23:30 18,2 C 23,3 C 64 % 1017,1 hPa 0,0 l/m 3,8 km/h (1 Bft) O-NO 78 0 min 0,000 mm 0,0 UV-I 0 W/m 11,3 C 18,2 C 6,4 km/h (2 Bft) 100,00 %
28.05.2017 23:32 18,0 C 23,3 C 65 % 1017,1 hPa 0,0 l/m 4,5 km/h (1 Bft) O 90 0 min 0,000 mm 0,0 UV-I 0 W/m 11,3 C 18,0 C 9,7 km/h (2 Bft) 100,00 %
28.05.2017 23:34 17,8 C 23,3 C 65 % 1017,1 hPa 0,0 l/m 5,4 km/h (1 Bft) O 94 0 min 0,000 mm 0,0 UV-I 0 W/m 11,1 C 17,8 C 9,7 km/h (2 Bft) 100,00 %
28.05.2017 23:36 17,8 C 23,3 C 65 % 1017,1 hPa 0,0 l/m 4,0 km/h (1 Bft) O-NO 62 0 min 0,000 mm 0,0 UV-I 0 W/m 11,1 C 17,8 C 6,4 km/h (2 Bft) 98,00 %
28.05.2017 23:38 17,6 C 23,3 C 66 % 1017,1 hPa 0,0 l/m 5,0 km/h (1 Bft) O-NO 78 0 min 0,000 mm 0,0 UV-I 0 W/m 11,2 C 17,6 C 8,0 km/h (2 Bft) 100,00 %
28.05.2017 23:40 17,4 C 23,3 C 67 % 1017,0 hPa 0,0 l/m 3,0 km/h (1 Bft) O-NO 78 0 min 0,000 mm 0,0 UV-I 0 W/m 11,2 C 17,4 C 4,8 km/h (1 Bft) 96,00 %
28.05.2017 23:42 17,2 C 23,3 C 68 % 1017,0 hPa 0,0 l/m 2,7 km/h (1 Bft) O-NO 78 0 min 0,000 mm 0,0 UV-I 0 W/m 11,2 C 17,2 C 4,8 km/h (1 Bft) 100,00 %
28.05.2017 23:44 17,0 C 23,3 C 69 % 1017,0 hPa 0,0 l/m 3,6 km/h (1 Bft) O-NO 69 0 min 0,000 mm 0,0 UV-I 0 W/m 11,3 C 17,0 C 4,8 km/h (1 Bft) 97,87 %
28.05.2017 23:46 16,9 C 23,3 C 69 % 1017,0 hPa 0,0 l/m 2,7 km/h (1 Bft) O-NO 69 0 min 0,000 mm 0,0 UV-I 0 W/m 11,2 C 16,9 C 4,8 km/h (1 Bft) 98,11 %
28.05.2017 23:48 16,8 C 23,3 C 69 % 1017,0 hPa 0,0 l/m 3,5 km/h (1 Bft) O-NO 69 0 min 0,000 mm 0,0 UV-I 0 W/m 11,1 C 16,8 C 4,8 km/h (1 Bft) 100,00 %
28.05.2017 23:50 16,8 C 23,3 C 69 % 1017,0 hPa 0,0 l/m 3,1 km/h (1 Bft) O-NO 69 0 min 0,000 mm 0,0 UV-I 0 W/m 11,1 C 16,8 C 4,8 km/h (1 Bft) 98,00 %
28.05.2017 23:52 16,8 C 23,3 C 69 % 1017,0 hPa 0,0 l/m 3,2 km/h (1 Bft) O-NO 69 0 min 0,000 mm 0,0 UV-I 0 W/m 11,1 C 16,8 C 4,8 km/h (1 Bft) 98,00 %
28.05.2017 23:54 16,7 C 23,3 C 69 % 1016,9 hPa 0,0 l/m 3,4 km/h (1 Bft) O-NO 69 0 min 0,000 mm 0,0 UV-I 0 W/m 11,0 C 16,7 C 4,8 km/h (1 Bft) 100,00 %
28.05.2017 23:56 16,7 C 23,3 C 70 % 1016,9 hPa 0,0 l/m 3,4 km/h (1 Bft) O-NO 69 0 min 0,000 mm 0,0 UV-I 0 W/m 11,2 C 16,7 C 4,8 km/h (1 Bft) 100,00 %
28.05.2017 23:58 16,7 C 23,3 C 69 % 1016,9 hPa 0,0 l/m 3,4 km/h (1 Bft) O-NO 69 0 min 0,000 mm 0,0 UV-I 0 W/m 11,0 C 16,7 C 4,8 km/h (1 Bft) 96,00 %
_ Min-Zeit 05:38 07:24 17:06 20:04 - 21:08 - - - - - - 17:06 03:48 21:06 09:02
Minimum _ 12,6 C 21,7 C 31 % 1016,6 hPa - 0,2 km/h (0 Bft) - - - - - - 8,0 C 10,2 C 1,6 km/h (1 Bft) 85,11 %
_ Max-Zeit 17:10 17:52 05:38 08:02 00:00 12:50 - - 07:43 14:02 12:36 12:50 12:36 17:14 00:06 00:00
Maximum _ 26,7 C 24,4 C 80 % 1020,4 hPa 0,0 l/m 19,1 km/h
O-NO (3 Bft)
- - 3 min 0,686 mm 6,6 UV-I 931 W/m 14,3 C 26,4 C 27,4 km/h
O-NO (4 Bft)
100,00 %
Durchschnitt _ 19,9 C 23,0 C 58 % 1018,9 hPa #0,0 l/m 10,3 km/h (2 Bft) O-NO - #14:40 h #6,553 mm 3,7 UV-I 511 W/m 10,8 C 18,6 C 15,5 km/h (3 Bft) 97,13 %